Date StartTime U_cm/s V_cm/s W_cm/s Ustd_cm/s Vstd_cm/s Wstd_cm/s Uvar_(cm/s)^2 Vvar_(cm/s)^2 Wvar_(cm/s)^2 KE_(m/s)^2 TurbulentKE_(m/s)^2 HorizWindSpeed_cm/s FrictionSpeec_cm/s DragCoef SpeedOfSound_m/s SonicTemperature_C Pressure_mb 
12/12/2013  00:00:00     -114.796      -12.174       -9.006       28.037       28.006       17.520      786.071      784.359      306.940        0.764        0.094      115.440       12.627        0.012      326.406       -8.760      869.986
12/12/2013  00:01:00     -132.247        5.120      -17.155       34.626       22.863       20.330     1198.959      522.737      413.290        0.997        0.107      132.346       18.021        0.019      326.415       -8.747      869.983
12/12/2013  00:02:00     -103.397       -6.128       -6.375       40.107       21.646       22.119     1608.599      468.546      489.236        0.667        0.128      103.579       23.602        0.052      326.367       -8.824      869.980
12/12/2013  00:03:00      -78.345       -6.299       -5.285       38.314       31.990       25.089     1467.975     1023.391      629.465        0.466        0.156       78.598       18.949        0.058      326.321       -8.898      869.974
12/12/2013  00:04:00      -43.891        2.298        5.519       38.969       22.446       19.959     1518.585      503.834      398.345        0.219        0.121       43.951       20.889        0.226      326.310       -8.917      869.982
12/12/2013  00:05:00      -44.879       -5.748       -1.076       34.878       21.562       14.950     1216.488      464.931      223.508        0.198        0.095       45.246       15.652        0.120      326.365       -8.829      869.970
12/12/2013  00:06:00      -39.403       -2.256       -2.456       26.076       21.846       13.248      679.934      477.237      175.497        0.145        0.067       39.468        7.207        0.033      326.376       -8.811      869.966
12/12/2013  00:07:00      -41.198       -2.793       -2.153       30.450       30.853       14.514      927.220      951.878      210.646        0.190        0.104       41.293       11.750        0.081      326.398       -8.776      869.963
12/12/2013  00:08:00      -40.209       -0.833       -0.290       33.158       18.962       15.295     1099.437      359.567      233.934        0.165        0.085       40.218       16.127        0.161      326.345       -8.858      869.949
12/12/2013  00:09:00      -58.401      -14.026       -4.508       26.083       21.045       17.185      680.331      442.887      295.340        0.252        0.071       60.062       15.159        0.064      326.318       -8.904      869.945
12/12/2013  00:10:00      -48.431      -23.068       -8.083       16.518       16.927       10.586      272.855      286.535      112.067        0.181        0.034       53.644        5.981        0.012      326.350       -8.851      869.951
12/12/2013  00:11:00      -61.078      -15.158       -7.704       17.106       17.303        9.774      292.611      299.401       95.541        0.235        0.034       62.931        3.868        0.004      326.372       -8.817      869.954
12/12/2013  00:12:00      -99.525      -16.139       -8.563       17.295       15.545       12.789      299.123      241.659      163.565        0.547        0.035      100.825        2.212        0.000      326.353       -8.848      869.949
12/12/2013  00:13:00     -119.400       -9.270      -13.864       18.347       14.501       12.720      336.607      210.290      161.786        0.762        0.035      119.759        7.714        0.004      326.352       -8.848      869.946
12/12/2013  00:14:00      -93.784      -14.856      -15.586       30.047       19.065       16.447      902.807      363.487      270.500        0.540        0.077       94.953       14.167        0.022      326.335       -8.877      869.946
12/12/2013  00:15:00      -80.511      -35.146      -10.460       21.095       21.283       11.167      445.010      452.955      124.693        0.442        0.051       87.848        9.248        0.011      326.420       -8.737      869.944
12/12/2013  00:16:00      -57.617      -23.374       -7.513       24.096       22.217       17.146      580.635      493.608      293.973        0.265        0.068       62.178        8.640        0.019      326.439       -8.709      869.944
12/12/2013  00:17:00      -63.934       -4.738      -15.688       14.741       12.648       11.294      217.288      159.973      127.550        0.243        0.025       64.110       10.727        0.028      326.584       -8.473      869.947
12/12/2013  00:18:00      -55.723        1.604       -7.767       12.728        8.840       11.219      162.006       78.142      125.865        0.177        0.018       55.746        9.301        0.028      326.558       -8.515      869.943
12/12/2013  00:19:00      -46.685       11.067       -5.774       17.788       11.427       10.017      316.410      130.571      100.345        0.144        0.027       47.979        9.340        0.038      326.542       -8.541      869.941
12/12/2013  00:20:00      -46.813       -0.424       -9.118       11.354       11.641        9.009      128.902      135.512       81.165        0.131        0.017       46.815        9.426        0.041      326.629       -8.400      869.937
12/12/2013  00:21:00      -33.689        3.892       -6.093        7.673        8.406        7.032       58.877       70.658       49.452        0.068        0.009       33.913        4.053        0.014      326.635       -8.389      869.933
12/12/2013  00:22:00      -42.058      -14.779       -9.259       15.698       13.327        9.350      246.413      177.616       87.423        0.129        0.026       44.579       11.011        0.061      326.763       -8.183      869.924
12/12/2013  00:23:00      -49.485        7.175       -5.134        8.023        6.937       10.997       64.373       48.121      120.941        0.138        0.012       50.003        3.574        0.005      326.595       -8.455      869.924
12/12/2013  00:24:00      -37.553      -14.499       -5.667        9.656        6.951        6.924       93.246       48.321       47.936        0.092        0.009       40.255        2.514        0.004      326.701       -8.283      869.915
12/12/2013  00:25:00      -38.326       -7.512       -2.922       11.635        7.526        8.805      135.374       56.648       77.537        0.090        0.013       39.055        6.458        0.027      326.659       -8.351      869.908
12/12/2013  00:26:00      -22.747      -10.233       -5.510       12.202        8.659        7.994      148.895       74.980       63.905        0.047        0.014       24.943        4.193        0.028      326.718       -8.257      869.906
12/12/2013  00:27:00        0.488      -23.907       10.381        9.534       15.182        9.742       90.896      230.503       94.908        0.055        0.021       23.912        9.431        0.156      326.951       -7.878      869.904
12/12/2013  00:28:00      -13.516        8.111       10.387        8.280       18.282        8.782       68.562      334.249       77.122        0.042        0.024       15.763        7.379        0.219      326.933       -7.906      869.901
12/12/2013  00:29:00       -9.070       17.908       13.980        9.228       12.016        8.392       85.157      144.375       70.419        0.045        0.015       20.074        4.973        0.061      326.879       -7.994      869.890
12/12/2013  00:30:00      -34.683       -8.167       -1.955       12.518       17.617        7.677      156.712      310.350       58.934        0.090        0.026       35.631        8.431        0.056      326.647       -8.370      869.875
12/12/2013  00:31:00      -61.860      -15.227       -0.761       11.189       14.026        8.411      125.187      196.731       70.752        0.223        0.020       63.706        6.419        0.010      326.676       -8.325      869.850
12/12/2013  00:32:00      -53.975       -8.328       -9.727        6.565        9.421        9.889       43.095       88.749       97.793        0.165        0.011       54.614        4.872        0.008      326.621       -8.415      869.834
12/12/2013  00:33:00      -57.818      -16.104       -9.219       15.251       10.621        6.860      232.585      112.815       47.053        0.204        0.020       60.019        5.653        0.009      326.597       -8.453      869.823
12/12/2013  00:34:00      -57.596      -23.917       -7.654       14.609       13.617       10.598      213.428      185.420      112.311        0.223        0.026       62.365        6.303        0.010      326.619       -8.416      869.819
12/12/2013  00:35:00      -67.268      -19.537       -4.534       13.180       17.948       10.606      173.711      322.139      112.482        0.277        0.030       70.048        4.800        0.005      326.592       -8.461      869.817
12/12/2013  00:36:00      -57.914      -18.701       -5.907       14.219       12.061        9.780      202.189      145.464       95.655        0.209        0.022       60.859        6.073        0.010      326.579       -8.483      869.815
12/12/2013  00:37:00      -68.463       -9.207       -4.614       22.149       14.357        9.575      490.589      206.115       91.680        0.279        0.039       69.079       10.532        0.023      326.498       -8.612      869.798
12/12/2013  00:38:00      -58.544      -13.227        0.929       24.222       18.136       13.081      586.684      328.901      171.120        0.234        0.054       60.020       13.020        0.047      326.479       -8.642      869.789
12/12/2013  00:39:00      -38.414      -14.139       -0.271       18.938       15.397        9.891      358.663      237.075       97.829        0.118        0.035       40.933        9.432        0.053      326.502       -8.607      869.787
12/12/2013  00:40:00       -9.755       -6.637        6.282       18.895       11.199       11.731      357.034      125.422      137.628        0.040        0.031       11.799       11.368        0.928      326.558       -8.516      869.786
12/12/2013  00:41:00      -21.085        5.475       -5.250       18.589        9.535        8.819      345.549       90.917       77.770        0.051        0.026       21.784       10.525        0.233      326.548       -8.531      869.781
12/12/2013  00:42:00      -52.263        3.585       -5.599       10.156        8.125       10.144      103.138       66.010      102.896        0.152        0.014       52.386        7.349        0.020      326.864       -8.021      869.770
12/12/2013  00:43:00      -62.947        1.935       -1.635       12.167       13.875        7.860      148.037      192.521       61.778        0.219        0.020       62.976        4.252        0.005      326.737       -8.226      869.757
12/12/2013  00:44:00      -52.162      -18.793       -2.465        9.588        7.877        5.526       91.921       62.040       30.539        0.163        0.009       55.444        2.848        0.003      326.622       -8.412      869.760
12/12/2013  00:45:00      -58.745       -2.374       -3.266       10.711       10.984        6.996      114.726      120.655       48.943        0.188        0.014       58.793        3.427        0.003      326.535       -8.554      869.758
12/12/2013  00:46:00      -60.251      -15.126       -6.677       13.342        9.059        8.165      178.012       82.057       66.661        0.212        0.016       62.120        4.314        0.005      326.567       -8.500      869.757
12/12/2013  00:47:00      -82.762      -14.619       -4.244       27.842       18.100       10.477      775.182      327.619      109.773        0.415        0.061       84.043       10.225        0.015      326.544       -8.538      869.754
12/12/2013  00:48:00     -117.775      -12.713      -10.328       30.938       20.716       15.592      957.187      429.157      243.108        0.788        0.081      118.460       10.854        0.008      326.240       -9.030      869.754
12/12/2013  00:49:00     -121.063       -6.095       -7.573       37.796       29.299       21.975     1428.562      858.423      482.897        0.876        0.138      121.216       19.672        0.026      326.100       -9.255      869.762
12/12/2013  00:50:00      -59.485      -10.776        4.521       44.822       29.403       22.182     2008.990      864.529      492.046        0.352        0.168       60.453       21.866        0.131      326.178       -9.131      869.772
12/12/2013  00:51:00      -59.259      -27.953        1.472       37.179       27.921       22.210     1382.314      779.573      493.268        0.347        0.133       65.521       18.006        0.076      326.145       -9.185      869.769
12/12/2013  00:52:00      -64.885       -4.636        5.825       38.774       24.749       20.045     1503.393      612.529      401.789        0.339        0.126       65.050       22.561        0.120      326.228       -9.049      869.755
12/12/2013  00:53:00      -63.663      -15.806        2.621       37.042       21.651       21.285     1372.077      468.753      453.048        0.330        0.115       65.595       12.839        0.038      326.234       -9.040      869.749
12/12/2013  00:54:00      -61.660       -9.418        4.908       40.659       34.020       21.992     1653.189     1157.354      483.667        0.360        0.165       62.375       22.427        0.129      326.198       -9.097      869.750
12/12/2013  00:55:00     -111.395        2.246        5.131       65.565       37.673       26.663     4298.768     1419.252      710.917        0.943        0.321      111.417       29.903        0.072      326.079       -9.291      869.771
12/12/2013  00:56:00     -154.806        4.223      -10.084       49.835       40.616       22.073     2483.568     1649.632      487.215        1.435        0.231      154.863       20.283        0.017      325.975       -9.458      869.772
12/12/2013  00:57:00      -53.550        0.140       -1.462       46.543       34.533       20.925     2166.278     1192.515      437.866        0.333        0.190       53.550       24.393        0.207      325.969       -9.469      869.764
12/12/2013  00:58:00      -37.454      -17.488        1.010       22.632       20.471       15.045      512.201      419.068      226.338        0.143        0.058       41.336        9.094        0.048      326.080       -9.290      869.747
12/12/2013  00:59:00      -16.609       -7.426       -9.574       15.696       11.818       10.339      246.368      139.660      106.904        0.046        0.025       18.194       10.355        0.324      326.091       -9.270      869.732
12/12/2013  01:00:00      -15.858      -17.491       -1.928       11.118       10.231        8.993      123.603      104.677       80.883        0.044        0.015       23.610        4.654        0.039      326.162       -9.157      869.730
12/12/2013  01:01:00      -13.122       -9.122        8.052       13.326       15.259       12.867      177.589      232.850      165.554        0.045        0.029       15.982        5.770        0.130      326.209       -9.081      869.732
12/12/2013  01:02:00      -11.583      -29.507        5.872       11.805       16.797       11.047      139.350      282.131      122.047        0.079        0.027       31.699        7.359        0.054      326.355       -8.843      869.733
12/12/2013  01:03:00      -23.767      -34.294        1.542       19.775       14.761       13.566      391.068      217.896      184.035        0.127        0.040       41.725       10.117        0.059      326.379       -8.806      869.732
12/12/2013  01:04:00      -26.637      -21.965       -3.377       11.078       10.110        8.883      122.720      102.221       78.912        0.075        0.015       34.525        3.462        0.010      326.263       -8.992      869.732
12/12/2013  01:05:00       -5.180       -2.563       -7.745       21.581       17.699        8.850      465.734      313.251       78.330        0.048        0.043        5.780        2.980        0.266      326.464       -8.667      869.725
12/12/2013  01:06:00       22.607        7.421      -13.614       11.686       10.550        9.550      136.574      111.301       91.195        0.055        0.017       23.794        8.144        0.117      326.695       -8.292      869.709
12/12/2013  01:07:00       10.544       22.359        1.096        8.084       10.409        8.985       65.346      108.344       80.728        0.043        0.013       24.720        6.243        0.064      326.766       -8.177      869.708
12/12/2013  01:08:00        4.613        5.430        6.849       10.742        6.192        7.374      115.390       38.343       54.374        0.015        0.010        7.125        7.296        1.049      326.740       -8.220      869.729
12/12/2013  01:09:00      -34.749      -12.999        3.037       16.416       11.001       10.459      269.501      121.023      109.391        0.094        0.025       37.101       11.014        0.088      326.305       -8.926      869.756
12/12/2013  01:10:00      -51.548      -10.937       -8.908       13.176       11.629       12.169      173.603      135.242      148.077        0.166        0.023       52.695        6.513        0.015      326.173       -9.138      869.774
12/12/2013  01:11:00      -40.598      -18.970      -12.651       14.091       10.250        8.284      198.550      105.058       68.625        0.127        0.019       44.811        4.219        0.009      326.182       -9.125      869.778
12/12/2013  01:12:00      -23.624      -14.585       -6.821       11.433        7.361        9.520      130.705       54.189       90.637        0.055        0.014       27.764        5.329        0.037      326.294       -8.943      869.776
12/12/2013  01:13:00      -23.948      -12.992       -2.945       10.897        5.891       10.610      118.742       34.702      112.582        0.051        0.013       27.245        9.565        0.123      326.293       -8.944      869.772
12/12/2013  01:14:00      -39.484      -17.704       -0.887       10.582       10.726        8.663      111.977      115.045       75.052        0.109        0.015       43.272        6.726        0.024      326.277       -8.971      869.775
12/12/2013  01:15:00      -18.711       -2.608       -1.787       10.753        5.315        4.131      115.627       28.244       17.065        0.026        0.008       18.891        2.414        0.016      326.301       -8.931      869.769
12/12/2013  01:16:00       26.463       13.690        9.176       16.654       13.965        9.939      277.346      195.027       98.776        0.077        0.029       29.795        7.247        0.059      326.621       -8.412      869.766
12/12/2013  01:17:00       42.232       35.163       21.207       15.100       11.945        8.351      228.006      142.692       69.745        0.195        0.022       54.954        8.405        0.023      326.610       -8.431      869.760
12/12/2013  01:18:00       60.830       37.923       21.407       17.766       17.086       11.076      315.620      291.931      122.677        0.316        0.037       71.683        5.096        0.005      326.725       -8.243      869.749
12/12/2013  01:19:00       25.358        9.813       16.022       24.986       16.389       12.075      624.315      268.599      145.795        0.102        0.052       27.190        4.407        0.026      326.726       -8.242      869.753
12/12/2013  01:20:00       21.015       10.602       16.849       22.057       18.014        7.455      486.515      324.515       55.578        0.085        0.043       23.538        3.199        0.018      326.751       -8.202      869.755
12/12/2013  01:21:00       -5.456       -7.681       14.403        6.432        8.757        8.714       41.368       76.682       75.931        0.025        0.010        9.421        5.979        0.403      326.558       -8.516      869.756
12/12/2013  01:22:00      -20.535       -5.615       -2.182        7.373        5.266        5.633       54.363       27.730       31.731        0.029        0.006       21.288        4.549        0.046      326.293       -8.944      869.751
12/12/2013  01:23:00      -19.451        0.239       -3.734       10.047        5.849        7.454      100.940       34.216       55.555        0.029        0.010       19.453        6.497        0.112      326.298       -8.937      869.742
12/12/2013  01:24:00       36.614       16.577       13.197       25.449       12.140        7.498      647.629      147.389       56.221        0.132        0.043       40.192        2.654        0.004      326.585       -8.471      869.741
12/12/2013  01:25:00       68.750       35.713        8.061       17.756       16.397        7.856      315.261      268.877       61.712        0.336        0.032       77.473        2.409        0.001      326.675       -8.325      869.739
12/12/2013  01:26:00       46.184       15.897       13.630       21.897       12.316       10.614      479.484      151.692      112.657        0.166        0.037       48.843       11.394        0.054      326.731       -8.235      869.761
12/12/2013  01:27:00        2.690       -1.855        7.883       23.372       15.324       11.176      546.267      234.840      124.904        0.049        0.045        3.267       12.675       15.049      326.639       -8.383      869.783
12/12/2013  01:28:00      -24.528       -9.432        4.871       18.804        9.495       12.887      353.598       90.161      166.066        0.066        0.030       26.279       12.623        0.231      326.285       -8.956      869.803
12/12/2013  01:29:00      -55.613       -8.611       -6.483        6.869        8.614        8.413       47.186       74.199       70.775        0.170        0.010       56.276        3.518        0.004      326.105       -9.249      869.799
12/12/2013  01:30:00      -45.487      -17.267       -9.373        8.921       13.963        9.501       79.588      194.958       90.263        0.141        0.018       48.654        3.099        0.004      326.105       -9.249      869.801
12/12/2013  01:31:00      -58.148      -20.061       -8.677        7.572        9.589        7.594       57.332       91.950       57.663        0.203        0.010       61.512        1.307        0.000      326.133       -9.203      869.810
12/12/2013  01:32:00      -50.656      -15.173       -7.021        9.212        7.951        6.830       84.868       63.213       46.644        0.152        0.010       52.880        1.918        0.001      326.136       -9.199      869.817
12/12/2013  01:33:00      -52.518      -15.945      -11.768       11.060       12.585        9.221      122.314      158.387       85.031        0.176        0.018       54.885        6.893        0.016      325.950       -9.501      869.814
12/12/2013  01:34:00      -73.315        0.302       -8.560       14.483       12.119       12.998      209.743      146.866      168.959        0.299        0.026       73.315        9.044        0.015      325.754       -9.816      869.805
12/12/2013  01:35:00      -73.489       -2.719      -13.214       18.376       13.576       14.824      337.663      184.306      219.762        0.316        0.037       73.539        9.560        0.017      325.778       -9.778      869.803
12/12/2013  01:36:00      -62.721      -10.631      -15.101       13.692       10.743        8.363      187.466      115.406       69.935        0.232        0.019       63.615        4.812        0.006      325.808       -9.731      869.804
12/12/2013  01:37:00      -54.787      -16.991      -10.930        9.516       11.736       10.419       90.548      137.740      108.548        0.187        0.017       57.361        4.264        0.006      325.846       -9.667      869.807
12/12/2013  01:38:00      -59.280      -17.057      -10.518       13.166       10.015       10.947      173.334      100.301      119.836        0.215        0.020       61.685        5.340        0.007      325.842       -9.675      869.804
12/12/2013  01:39:00      -63.581      -13.303      -10.367       11.381       11.691        9.985      129.536      136.675       99.709        0.235        0.018       64.958        7.383        0.013      325.737       -9.843      869.823
12/12/2013  01:40:00      -73.594       -4.062      -12.368       18.154       17.384       13.290      329.586      302.206      176.614        0.320        0.040       73.706        6.848        0.009      325.700       -9.905      869.840
12/12/2013  01:41:00      -71.275       -5.451      -14.064       25.723       19.079       13.049      661.651      364.022      170.289        0.325        0.060       71.483       12.428        0.030      325.667       -9.956      869.850
12/12/2013  01:42:00      -32.728       -5.930       -7.652       11.083       10.125        7.924      122.837      102.510       62.784        0.073        0.014       33.261        3.860        0.013      325.743       -9.835      869.852
12/12/2013  01:43:00      -28.482      -17.534       -5.930       15.427        9.153        7.087      237.999       83.786       50.223        0.076        0.019       33.447        7.144        0.046      325.825       -9.703      869.853
12/12/2013  01:44:00      -34.358       -9.014       -3.716       15.264       13.857        8.646      233.000      192.011       74.754        0.089        0.025       35.521        7.386        0.043      325.905       -9.572      869.860
12/12/2013  01:45:00      -70.060      -18.533      -11.968       19.398       10.338        9.156      376.267      106.865       83.826        0.298        0.028       72.470        9.569        0.017      325.768       -9.794      869.867
12/12/2013  01:46:00      -80.010      -13.210      -10.702       19.832       16.449       14.512      393.306      270.564      210.598        0.378        0.044       81.093        9.673        0.014      325.668       -9.955      869.867
12/12/2013  01:47:00      -77.531      -20.714      -12.716       22.526       13.825       13.301      507.422      191.136      176.918        0.374        0.044       80.250        8.294        0.011      325.589      -10.082      869.873
12/12/2013  01:48:00      -89.590      -10.377       -9.964       21.078       16.743       12.744      444.295      280.326      162.400        0.456        0.044       90.189        8.428        0.009      325.622      -10.028      869.890
12/12/2013  01:49:00      -98.232      -19.256      -13.753       22.029       15.090       13.530      485.277      227.695      183.067        0.555        0.045      100.102        8.761        0.008      325.616      -10.039      869.904
12/12/2013  01:50:00      -98.992       -2.793      -12.617       25.774       18.908       15.388      664.303      357.502      236.785        0.561        0.063       99.031       11.371        0.013      325.600      -10.065      869.898
12/12/2013  01:51:00      -93.132       -3.597      -11.527       18.719       18.127       15.007      350.402      328.595      225.196        0.486        0.045       93.202        7.783        0.007      325.574      -10.107      869.891
12/12/2013  01:52:00      -91.060      -10.629      -11.166       29.505       19.480       17.198      870.569      379.484      295.782        0.504        0.077       91.678       14.921        0.026      325.574      -10.106      869.910
12/12/2013  01:53:00      -95.840       -3.115       -9.787       22.821       18.245       15.583      520.805      332.891      242.845        0.519        0.055       95.890       13.816        0.021      325.602      -10.062      869.940
12/12/2013  01:54:00      -98.870       -6.881       -6.735       23.754       26.040       16.365      564.245      678.075      267.828        0.569        0.076       99.109       13.718        0.019      325.590      -10.082      869.952
12/12/2013  01:55:00     -102.982      -15.173      -14.778       31.960       28.504       15.334     1021.452      812.491      235.130        0.656        0.103      104.094       14.021        0.018      325.574      -10.106      869.960
12/12/2013  01:56:00     -113.716       -8.583       -2.068       53.811       26.352       24.942     2895.664      694.435      622.080        0.861        0.211      114.040       27.946        0.060      325.452      -10.304      869.973
12/12/2013  01:57:00      -83.771       -3.876       -6.607       49.731       24.791       24.143     2473.172      614.603      582.865        0.537        0.184       83.861       23.351        0.078      325.470      -10.276      869.972
12/12/2013  01:58:00      -62.803       -4.514       -3.320       38.692       25.169       22.458     1497.050      633.468      504.365        0.330        0.132       62.965       16.990        0.073      325.493      -10.238      869.976
12/12/2013  01:59:00      -84.007       -2.555       -9.658       27.116       22.651       18.691      735.261      513.072      349.364        0.438        0.080       84.046       16.780        0.040      325.551      -10.144      869.981
12/12/2013  02:00:00      -93.719      -16.712      -14.403       14.569       13.097        7.395      212.262      171.523       54.683        0.485        0.022       95.198        5.788        0.004      325.511      -10.210      869.976
12/12/2013  02:01:00      -88.026      -20.162       -9.295       33.732       22.495       14.412     1137.853      506.032      207.693        0.505        0.093       90.305       10.019        0.012      325.565      -10.122      869.969
12/12/2013  02:02:00     -110.485       -2.286       -9.988       39.052       21.909       21.592     1525.044      479.995      466.198        0.739        0.124      110.508       21.878        0.039      325.559      -10.132      869.979
12/12/2013  02:03:00     -110.094       -2.718       -2.901       37.056       34.899       20.392     1373.143     1217.975      415.842        0.757        0.150      110.128       18.510        0.028      325.561      -10.127      869.997
12/12/2013  02:04:00     -112.182       -3.951       -9.226       30.418       20.522       17.510      925.250      421.135      306.590        0.717        0.083      112.251       11.775        0.011      325.552      -10.143      870.010
12/12/2013  02:05:00      -81.772      -10.461       -5.255       23.421       27.069       14.435      548.538      732.748      208.370        0.416        0.074       82.439        6.299        0.006      325.544      -10.155      870.003
12/12/2013  02:06:00      -90.933      -18.838      -13.551       13.886       15.185       11.089      192.821      230.576      122.976        0.468        0.027       92.864        5.105        0.003      325.580      -10.097      869.990
12/12/2013  02:07:00      -91.553      -25.848      -13.951       18.228       20.401       17.555      332.271      416.196      308.195        0.515        0.053       95.131       10.029        0.011      325.590      -10.082      869.978
12/12/2013  02:08:00      -90.388      -15.441      -11.959       41.777       17.620       13.200     1745.348      310.474      174.233        0.539        0.112       91.698        5.980        0.004      325.503      -10.224      869.986
12/12/2013  02:09:00      -92.523       -4.345       -4.945       31.745       25.011       15.970     1007.752      625.566      255.041        0.525        0.094       92.625       14.698        0.025      325.518      -10.197      869.996
12/12/2013  02:10:00      -71.021       -4.766       -7.595       28.512       23.202       17.551      812.911      538.351      308.031        0.339        0.083       71.180       13.534        0.036      325.564      -10.124      869.983
12/12/2013  02:11:00      -67.619      -23.043      -11.097        9.946       10.131       11.649       98.919      102.632      135.702        0.278        0.017       71.438        4.647        0.004      325.543      -10.158      869.973
12/12/2013  02:12:00      -84.500      -24.190      -12.165       22.475       22.839       13.627      505.131      521.625      185.693        0.454        0.061       87.895        5.631        0.004      325.681       -9.935      869.972
12/12/2013  02:13:00     -112.727      -51.234       -5.972       26.962       24.867       15.264      726.962      618.346      232.982        0.847        0.079      123.823        5.725        0.002      325.539      -10.165      869.975
12/12/2013  02:14:00     -154.348      -34.522      -23.822       21.229       16.792       14.937      450.680      281.957      223.111        1.327        0.048      158.161        5.469        0.001      325.431      -10.340      869.986
12/12/2013  02:15:00     -128.401      -42.670       -4.748       31.903       24.306       16.889     1017.773      590.801      285.234        1.011        0.095      135.305       15.169        0.013      325.422      -10.353      869.998
12/12/2013  02:16:00     -120.966      -16.770       -9.473       25.706       20.510       18.551      660.792      420.659      344.133        0.821        0.071      122.123       13.133        0.012      325.420      -10.357      869.999
12/12/2013  02:17:00     -116.584      -28.815      -10.870       18.222       22.505       16.489      332.037      506.470      271.876        0.783        0.056      120.092        9.725        0.007      325.449      -10.309      869.985
12/12/2013  02:18:00     -138.360        3.990      -14.020       30.569       15.296       19.097      934.490      233.968      364.682        1.044        0.077      138.418       13.278        0.009      325.394      -10.399      869.983
12/12/2013  02:19:00     -134.857      -15.749      -15.511       30.825       27.552       22.309      950.207      759.088      497.693        1.044        0.110      135.773       14.741        0.012      325.385      -10.412      869.986
12/12/2013  02:20:00     -130.469       -3.812      -11.550       32.737       23.933       19.772     1071.713      572.765      390.951        0.960        0.102      130.525       14.583        0.012      325.368      -10.440      869.973
12/12/2013  02:21:00     -145.058      -16.308      -11.797       31.801       19.570       18.278     1011.314      382.994      334.093        1.159        0.086      145.972       16.877        0.013      325.358      -10.455      869.973
12/12/2013  02:22:00     -158.746       -6.598       -9.946       25.420       22.312       21.328      646.161      497.804      454.871        1.347        0.080      158.883       17.433        0.012      325.324      -10.511      869.983
12/12/2013  02:23:00     -178.307       -8.376      -13.906       25.711       26.960       20.984      661.051      726.827      440.334        1.694        0.091      178.504       18.693        0.011      325.305      -10.540      869.989
12/12/2013  02:24:00     -134.380      -19.875      -10.691       36.588       33.225       28.655     1338.716     1103.927      821.103        1.091        0.163      135.842       19.143        0.020      325.294      -10.559      869.983
12/12/2013  02:25:00     -132.844      -10.160       -5.079       39.160       36.204       22.935     1533.541     1310.708      526.028        1.057        0.169      133.232       21.135        0.025      325.288      -10.569      869.969
12/12/2013  02:26:00     -151.066       -8.062      -16.969       25.719       18.646       19.170      661.448      347.666      367.488        1.227        0.069      151.281       12.068        0.006      325.272      -10.593      869.966
12/12/2013  02:27:00     -127.378      -12.358      -11.115       40.697       29.929       19.472     1656.231      895.753      379.142        0.972        0.147      127.976       20.229        0.025      325.256      -10.619      869.961
12/12/2013  02:28:00     -124.554       -3.511      -11.743       31.512       24.283       23.642      993.006      589.652      558.966        0.890        0.107      124.603       20.953        0.028      325.288      -10.569      869.966
12/12/2013  02:29:00     -129.951      -22.251       -7.764       20.817       23.110       13.768      433.365      534.055      189.561        0.930        0.058      131.843        7.933        0.004      325.343      -10.480      869.964
12/12/2013  02:30:00     -116.039      -28.492       -4.154       29.943       27.673       17.110      896.588      765.809      292.769        0.812        0.098      119.485        9.495        0.006      325.365      -10.444      869.962
12/12/2013  02:31:00     -129.131      -12.701       -8.418       28.094       25.839       23.512      789.298      667.650      552.828        0.946        0.100      129.755       16.305        0.016      325.374      -10.429      869.977
12/12/2013  02:32:00     -117.833       -0.644       -2.411       31.344       24.125       28.288      982.424      582.039      800.219        0.813        0.118      117.834       17.232        0.021      325.299      -10.551      869.998
12/12/2013  02:33:00     -128.607      -24.437      -10.551       34.243       22.255       21.018     1172.617      495.306      441.736        0.968        0.105      130.908       17.759        0.018      325.361      -10.450      869.992
12/12/2013  02:34:00     -134.543      -38.635       -7.215       35.680       28.832       21.896     1273.062      831.289      479.423        1.111        0.129      139.981       17.977        0.016      325.325      -10.508      869.984
12/12/2013  02:35:00     -122.959      -11.415       -4.593       37.446       34.761       18.577     1402.239     1208.325      345.091        0.911        0.148      123.488       19.699        0.025      325.315      -10.525      869.984
12/12/2013  02:36:00     -131.791       -6.320       -3.393       48.807       28.828       23.733     2382.162      831.070      563.236        1.060        0.189      131.943       24.183        0.034      325.342      -10.481      869.986
12/12/2013  02:37:00     -110.458      -16.618       -8.795       58.415       33.029       24.333     3412.363     1090.937      592.095        0.882        0.255      111.701       20.190        0.033      325.360      -10.452      869.978
12/12/2013  02:38:00     -164.263      -17.154      -14.693       30.842       28.753       19.754      951.254      826.741      390.203        1.483        0.108      165.156       13.871        0.007      325.360      -10.452      869.972
12/12/2013  02:39:00     -124.696       -3.671       -1.467       38.788       35.773       27.540     1504.493     1279.711      758.427        0.955        0.177      124.750       24.140        0.037      325.404      -10.382      869.976
12/12/2013  02:40:00      -77.529       -7.073        4.970       53.892       39.355       29.578     2904.330     1548.848      874.874        0.571        0.266       77.851       31.501        0.164      325.429      -10.342      869.969
12/12/2013  02:41:00     -101.173       -0.621       -3.114       54.264       39.858       27.104     2944.601     1588.700      734.627        0.776        0.263      101.174       29.324        0.084      325.374      -10.430      869.953
12/12/2013  02:42:00     -108.744       -0.312       -8.738       62.064       42.121       27.419     3851.915     1774.216      751.775        0.914        0.319      108.744       27.345        0.063      325.362      -10.451      869.954
12/12/2013  02:43:00      -49.886        2.165       -1.313       38.746       33.590       23.703     1501.271     1128.305      561.822        0.284        0.160       49.933       22.591        0.205      325.388      -10.408      869.949
12/12/2013  02:44:00      -37.457      -11.175       -0.267       39.707       19.697       19.638     1576.611      387.966      385.640        0.194        0.118       39.089       20.410        0.273      325.405      -10.379      869.934
12/12/2013  02:45:00      -82.269       -9.469       -8.867       32.955       17.773       15.294     1086.020      315.895      233.914        0.429        0.082       82.812       13.561        0.027      325.439      -10.325      869.929
12/12/2013  02:46:00     -117.053       -4.206      -14.827       19.547       16.507       12.715      382.088      272.484      161.681        0.738        0.041      117.128        4.953        0.002      325.424      -10.349      869.953
12/12/2013  02:47:00      -95.956      -19.164       -7.389       19.464       18.113       10.723      378.833      328.091      114.977        0.523        0.041       97.851        8.497        0.008      325.409      -10.374      869.951
12/12/2013  02:48:00      -93.177       -9.863       -8.515       17.797       15.638       14.227      316.735      244.541      202.411        0.481        0.038       93.698        9.202        0.010      325.390      -10.405      869.942
12/12/2013  02:49:00     -101.634      -14.546      -13.590       16.535       26.369       12.765      273.405      695.299      162.935        0.593        0.057      102.669        6.641        0.004      325.468      -10.279      869.940
12/12/2013  02:50:00      -76.178      -14.110       -2.156       29.087       22.862       15.907      846.032      522.685      253.039        0.381        0.081       77.474       16.259        0.044      325.480      -10.260      869.947
12/12/2013  02:51:00      -74.319      -10.992       -9.698       15.927       13.787        9.162      253.661      190.075       83.942        0.313        0.026       75.127        7.125        0.009      325.544      -10.155      869.948
12/12/2013  02:52:00     -101.413      -15.517      -12.255       22.382       19.572       13.721      500.945      383.070      188.252        0.587        0.054      102.593       10.438        0.010      325.519      -10.197      869.954
12/12/2013  02:53:00      -90.301      -58.124       -6.131       34.253       44.328       18.884     1173.264     1964.929      356.597        0.753        0.175      107.391       12.909        0.014      325.494      -10.237      869.948
12/12/2013  02:54:00      -85.252      -33.014       -4.026       38.372       26.154       19.501     1472.380      684.044      380.283        0.545        0.127       91.421       20.865        0.052      325.513      -10.207      869.938
12/12/2013  02:55:00      -77.711      -21.905       -4.489       20.047       21.330       10.849      401.863      454.970      117.708        0.376        0.049       80.740        7.658        0.009      325.581      -10.095      869.917
12/12/2013  02:56:00      -84.623       -8.163       -4.631       25.220       12.558        9.989      636.043      157.708       99.779        0.407        0.045       85.016       10.507        0.015      325.596      -10.071      869.906
12/12/2013  02:57:00     -104.623        3.919       -7.681       25.318       16.141       17.501      641.006      260.525      306.282        0.611        0.060      104.696       14.549        0.019      325.479      -10.262      869.907
12/12/2013  02:58:00     -141.575        3.355      -17.094       13.137       14.673       12.063      172.571      215.301      145.520        1.044        0.027      141.615        6.543        0.002      325.445      -10.315      869.902
12/12/2013  02:59:00     -139.606       -6.589      -14.968       20.164       17.193       15.778      406.601      295.600      248.942        1.035        0.048      139.762        8.903        0.004      325.389      -10.406      869.898
12/12/2013  03:00:00     -108.755      -17.698       -5.499       35.109       26.095       22.580     1232.627      680.935      509.843        0.730        0.121      110.185       22.557        0.042      325.334      -10.495      869.899
12/12/2013  03:01:00      -96.616       -5.450       -2.639       35.547       26.497       20.197     1263.572      702.112      407.934        0.587        0.119       96.770       21.106        0.048      325.324      -10.509      869.891
12/12/2013  03:02:00     -105.396      -24.730       -9.903       30.018       22.527       13.687      901.100      507.455      187.333        0.671        0.080      108.258       13.511        0.016      325.349      -10.470      869.888
12/12/2013  03:03:00      -82.340      -37.895        2.335       18.418       31.714       14.851      339.238     1005.771      220.563        0.489        0.078       90.641       10.187        0.013      325.464      -10.285      869.898
12/12/2013  03:04:00      -64.419       -6.041       -2.727       24.017       20.788       16.552      576.823      432.147      273.977        0.274        0.064       64.702        9.007        0.019      325.422      -10.354      869.875
12/12/2013  03:05:00      -41.857      -14.162       -4.597       17.846       12.241       10.495      318.469      149.832      110.147        0.128        0.029       44.188        3.797        0.007      325.394      -10.399      869.847
12/12/2013  03:06:00      -74.728      -18.598       -4.564       26.460       16.055       10.298      700.153      257.771      106.058        0.351        0.053       77.007       10.204        0.018      325.485      -10.252      869.851
12/12/2013  03:07:00     -125.811      -20.206      -17.318       16.795       16.808       14.906      282.088      282.508      222.195        0.866        0.039      127.423        7.876        0.004      325.395      -10.396      869.862
12/12/2013  03:08:00      -97.774      -15.169       -8.813       29.238       20.794       16.434      854.874      432.389      270.069        0.571        0.078       98.944       16.873        0.029      325.349      -10.471      869.859
12/12/2013  03:09:00     -107.272      -22.836      -13.038       18.004       19.499       14.335      324.159      380.202      205.490        0.655        0.045      109.676        6.218        0.003      325.285      -10.572      869.854
12/12/2013  03:10:00      -93.164      -23.748      -12.670       24.420       33.013       18.748      596.324     1089.827      351.497        0.572        0.102       96.143       17.891        0.035      325.298      -10.552      869.855
12/12/2013  03:11:00      -91.281      -21.128       -9.198       18.051       28.036       15.405      325.851      785.998      237.301        0.511        0.067       93.694       10.564        0.013      325.317      -10.522      869.848
12/12/2013  03:12:00      -84.881      -19.925       -9.787       16.262       19.673       12.757      264.466      387.013      162.737        0.426        0.041       87.188        2.940        0.001      325.341      -10.483      869.829
12/12/2013  03:13:00      -91.109       -4.271       -7.495       24.343       21.062       14.755      592.565      443.608      217.698        0.481        0.063       91.209       12.812        0.020      325.303      -10.544      869.830
12/12/2013  03:14:00      -77.628       -7.499       -0.857       19.080       19.331       15.917      364.031      373.687      253.348        0.354        0.050       77.990       11.014        0.020      325.266      -10.603      869.842
12/12/2013  03:15:00      -76.503        0.494       -8.523       14.694       11.331       12.368      215.913      128.382      152.975        0.321        0.025       76.505        3.128        0.002      325.211      -10.695      869.830
12/12/2013  03:16:00     -103.140      -12.275       -9.935       18.811       12.727       11.962      353.858      161.968      143.099        0.577        0.033      103.868        6.970        0.005      325.223      -10.675      869.825
12/12/2013  03:17:00     -120.966       -5.346       -5.610       31.990       20.758       18.184     1023.383      430.889      330.668        0.824        0.089      121.084       17.460        0.021      325.238      -10.650      869.840
12/12/2013  03:18:00     -117.477        2.340       -6.767       28.777       21.425       18.548      828.096      459.019      344.039        0.774        0.082      117.501       12.513        0.011      325.208      -10.697      869.838
12/12/2013  03:19:00     -120.012       -1.286      -13.998       18.723       18.528       15.640      350.538      343.294      244.595        0.777        0.047      120.019        9.202        0.006      325.156      -10.782      869.813
12/12/2013  03:20:00     -117.770      -15.068       -9.652       31.688       21.197       18.398     1004.122      449.304      338.485        0.799        0.090      118.730       13.891        0.014      325.164      -10.768      869.782
12/12/2013  03:21:00     -123.154       -6.604       -9.560       33.865       15.207       19.168     1146.853      231.255      367.411        0.852        0.087      123.331       20.149        0.027      325.111      -10.855      869.775
12/12/2013  03:22:00     -105.289       -6.322       -4.655       30.147       20.532       21.895      908.844      421.557      479.385        0.648        0.090      105.479       17.550        0.028      325.084      -10.898      869.752
12/12/2013  03:23:00     -124.606       -8.643      -10.399       28.143       24.503       17.910      792.035      600.407      320.785        0.871        0.086      124.905       13.433        0.012      325.099      -10.874      869.742
12/12/2013  03:24:00     -135.597       -8.203       -8.106       34.054       22.953       18.034     1159.687      526.855      325.209        1.027        0.101      135.845       18.108        0.018      325.055      -10.946      869.740
12/12/2013  03:25:00     -109.561        1.623       -8.187       28.394       20.130       18.672      806.234      405.225      348.626        0.682        0.078      109.573       17.025        0.024      325.070      -10.919      869.735
12/12/2013  03:26:00     -107.396       -4.493      -11.792       22.348       17.063       13.294      499.450      291.160      176.739        0.633        0.048      107.490        8.002        0.006      325.132      -10.823      869.723
12/12/2013  03:27:00      -57.537       -9.550      -12.231       17.033       10.564        9.314      290.130      111.588       86.745        0.202        0.024       58.324        5.018        0.007      325.178      -10.747      869.712
12/12/2013  03:28:00      -48.627      -12.153       -8.625        7.753        7.889        5.978       60.111       62.238       35.738        0.137        0.008       50.122        5.514        0.012      325.406      -10.378      869.691
12/12/2013  03:29:00      -39.841      -12.641       -5.637       14.658       11.528       16.584      214.844      132.898      275.031        0.120        0.031       41.798        5.987        0.021      325.461      -10.288      869.681
12/12/2013  03:30:00      -55.599      -12.035      -11.129       33.369        8.403       10.284     1113.500       70.618      105.761        0.232        0.064       56.886        6.222        0.012      325.401      -10.388      869.688
12/12/2013  03:31:00      -81.312       -9.892       -5.753       20.854       11.754       11.510      434.895      138.149      132.485        0.372        0.035       81.911       12.363        0.023      325.181      -10.742      869.677
12/12/2013  03:32:00      -53.866       -0.942       -4.872       13.049       10.592        9.113      170.265      112.187       83.051        0.165        0.018       53.874        7.802        0.021      325.252      -10.627      869.663
12/12/2013  03:33:00      -65.683      -11.087       -7.601       13.677        9.527       10.490      187.056       90.768      110.036        0.244        0.019       66.612        1.969        0.001      325.288      -10.568      869.652
12/12/2013  03:34:00      -55.213      -23.636       -4.804       10.721       13.165        8.065      114.940      173.320       65.043        0.199        0.018       60.060        4.684        0.006      325.370      -10.435      869.650
12/12/2013  03:35:00      -58.408      -10.527      -11.689       11.087       11.142        6.738      122.921      124.134       45.404        0.198        0.015       59.349        2.843        0.002      325.312      -10.529      869.648
12/12/2013  03:36:00      -55.570       -4.908      -10.025       14.082        9.931        7.272      198.309       98.631       52.889        0.178        0.017       55.786        2.399        0.002      325.288      -10.569      869.630
12/12/2013  03:37:00      -43.889       -9.614       -7.967       11.605        9.617        8.622      134.687       92.491       74.335        0.119        0.015       44.929        8.214        0.033      325.426      -10.347      869.629
12/12/2013  03:38:00      -60.407      -19.618      -11.530        8.710       12.094        9.093       75.864      146.262       82.690        0.224        0.015       63.513        5.946        0.009      325.458      -10.294      869.635
12/12/2013  03:39:00      -83.278      -13.067      -12.548       24.199       14.860       12.243      585.601      220.822      149.893        0.411        0.048       84.297        7.982        0.009      325.306      -10.539      869.635
12/12/2013  03:40:00     -102.683       -3.742      -14.513       16.541       11.330        9.507      273.588      128.374       90.390        0.563        0.025      102.751        7.163        0.005      325.258      -10.618      869.628
12/12/2013  03:41:00      -85.039       -5.696       -9.430       16.560       15.691       13.039      274.221      246.193      170.010        0.402        0.035       85.230        7.855        0.008      325.217      -10.684      869.624
12/12/2013  03:42:00      -86.019        1.331       -8.951        9.080        7.119        8.046       82.441       50.675       64.737        0.384        0.010       86.029        4.683        0.003      325.326      -10.508      869.602
12/12/2013  03:43:00      -80.209       -4.748       -8.527       12.277       10.432        8.385      150.722      108.837       70.311        0.343        0.016       80.350        5.039        0.004      325.469      -10.277      869.583
12/12/2013  03:44:00      -70.117      -20.453      -10.373       22.672       13.118       10.721      514.009      172.072      114.942        0.312        0.040       73.039        2.835        0.002      325.412      -10.369      869.601
12/12/2013  03:45:00     -116.218      -13.220      -14.862       13.888       13.608       11.828      192.886      185.184      139.894        0.721        0.026      116.968        6.317        0.003      325.259      -10.616      869.624
12/12/2013  03:46:00     -108.146      -13.444       -9.501       16.787       13.273       13.108      281.803      176.167      171.812        0.630        0.031      108.979       11.633        0.011      325.251      -10.629      869.639
12/12/2013  03:47:00     -109.298       -5.955      -12.731       11.711        8.526        9.379      137.137       72.688       87.972        0.622        0.015      109.460        4.270        0.002      325.254      -10.625      869.618
12/12/2013  03:48:00      -87.283        0.375      -11.977       13.880       10.380        7.588      192.661      107.751       57.578        0.406        0.018       87.283        2.627        0.001      325.335      -10.492      869.601
12/12/2013  03:49:00      -72.474        0.299      -11.670       14.661       12.792       10.812      214.938      163.639      116.891        0.294        0.025       72.474        7.092        0.010      325.480      -10.261      869.583
12/12/2013  03:50:00      -66.745      -10.857      -10.423       13.149       16.092        8.545      172.892      258.967       73.017        0.259        0.025       67.622        4.709        0.005      325.573      -10.108      869.561
12/12/2013  03:51:00      -61.294      -28.524      -11.243        8.883       14.714        6.832       78.909      216.507       46.672        0.252        0.017       67.606        5.006        0.005      325.574      -10.109      869.545
12/12/2013  03:52:00      -61.939      -22.594      -11.959       24.240       12.365       13.383      587.566      152.888      179.116        0.270        0.046       65.932        9.623        0.021      325.407      -10.377      869.544
12/12/2013  03:53:00      -86.318      -16.989      -11.771       16.690       21.339       11.760      278.555      455.344      138.298        0.437        0.044       87.973        7.280        0.007      325.288      -10.568      869.557
12/12/2013  03:54:00      -81.802       -1.110       -7.658       19.229       15.511       12.699      369.763      240.576      161.265        0.376        0.039       81.809        9.378        0.013      325.175      -10.752      869.568
12/12/2013  03:55:00      -79.125        4.452       -9.783       12.108       10.780       10.393      146.603      116.203      108.008        0.337        0.019       79.250        6.894        0.008      325.258      -10.617      869.554
12/12/2013  03:56:00      -93.858      -10.874      -14.854       12.555       11.762       11.448      157.639      138.354      131.050        0.479        0.021       94.486        6.719        0.005      325.257      -10.620      869.535
12/12/2013  03:57:00     -116.090      -23.072      -10.497       17.615       27.650       15.582      310.294      764.534      242.791        0.772        0.066      118.361       11.723        0.010      325.195      -10.718      869.519
12/12/2013  03:58:00     -106.871      -23.333      -11.769       29.637       28.922       17.818      878.337      836.499      317.476        0.707        0.102      109.388       14.322        0.017      325.153      -10.788      869.518
12/12/2013  03:59:00     -101.281      -41.120      -12.345       23.136       25.458       13.004      535.261      648.085      169.099        0.673        0.068      109.310       11.561        0.011      325.148      -10.795      869.519
12/12/2013  04:00:00      -72.761      -23.867      -10.712       21.856       15.353       13.248      477.668      235.715      175.517        0.343        0.044       76.575        8.055        0.011      325.170      -10.760      869.509
12/12/2013  04:01:00      -56.187      -15.703       -1.898       23.156       23.794       17.255      536.223      566.162      297.743        0.240        0.070       58.341       17.103        0.086      325.248      -10.635      869.503
12/12/2013  04:02:00      -33.244      -23.876       -8.364       22.614       12.890       12.557      511.378      166.147      157.670        0.129        0.042       40.930        9.253        0.051      325.282      -10.578      869.507
12/12/2013  04:03:00      -51.681      -11.940      -17.486       11.895       12.484        8.266      141.498      155.854       68.332        0.174        0.018       53.042        3.891        0.005      325.332      -10.498      869.510
12/12/2013  04:04:00      -78.754      -15.969      -12.876       24.157       19.700       16.890      583.562      388.078      285.274        0.394        0.063       80.357        7.517        0.009      325.272      -10.593      869.494
12/12/2013  04:05:00     -107.224      -11.812      -10.761       32.161       22.311       19.693     1034.309      497.777      387.820        0.684        0.096      107.872       19.568        0.033      325.173      -10.755      869.487
12/12/2013  04:06:00     -113.772       -2.714      -11.706       41.172       23.297       18.493     1695.104      542.764      341.993        0.783        0.129      113.804       17.011        0.022      325.139      -10.809      869.481
12/12/2013  04:07:00      -62.943       -4.189       -3.482       43.770       21.755       17.236     1915.784      473.268      297.088        0.334        0.134       63.082       16.756        0.071      325.082      -10.901      869.478
12/12/2013  04:08:00      -55.141       -2.854       -7.695       22.398       17.439       16.044      501.652      304.133      257.424        0.209        0.053       55.215       14.130        0.065      325.133      -10.820      869.455
12/12/2013  04:09:00      -43.721       -9.947       -3.626       10.620       14.032       10.390      112.782      196.884      107.943        0.122        0.021       44.838        7.534        0.028      325.143      -10.805      869.431
12/12/2013  04:10:00      -43.354       -7.769       -6.036        8.865        8.340        6.698       78.593       69.553       44.867        0.108        0.010       44.045        2.430        0.003      325.289      -10.567      869.423
12/12/2013  04:11:00      -52.090       -8.576      -10.960       11.759        8.089       12.334      138.270       65.429      152.134        0.163        0.018       52.791        3.654        0.005      325.432      -10.336      869.426
12/12/2013  04:12:00      -59.650      -22.745       -6.743       12.005       14.022        8.704      144.113      196.607       75.754        0.227        0.021       63.839        4.771        0.006      325.293      -10.561      869.424
12/12/2013  04:13:00      -61.434      -21.159       -9.213       13.618        9.088       10.141      185.461       82.596      102.830        0.234        0.019       64.976        6.795        0.011      325.258      -10.617      869.412
12/12/2013  04:14:00      -65.830      -21.514       -7.523       14.980       11.488        9.696      224.389      131.966       94.010        0.265        0.023       69.256        4.375        0.004      325.257      -10.619      869.405
12/12/2013  04:15:00      -92.402      -16.163       -8.863       18.230       20.585       13.782      332.339      423.752      189.940        0.491        0.047       93.805        6.820        0.005      325.143      -10.803      869.416
12/12/2013  04:16:00      -93.196      -10.084       -7.885       22.944       21.989       18.702      526.415      483.499      349.762        0.510        0.068       93.740       11.506        0.015      325.134      -10.818      869.417
12/12/2013  04:17:00     -112.067      -12.118       -8.619       23.907       23.038       16.776      571.521      530.772      281.441        0.708        0.069      112.720       11.736        0.011      325.139      -10.811      869.412
12/12/2013  04:18:00      -82.591      -17.789      -11.442       25.954       16.587       15.061      673.606      275.136      226.835        0.422        0.059       84.485       10.604        0.016      325.152      -10.789      869.406
12/12/2013  04:19:00      -79.359      -13.323       -3.472       39.125       25.576       19.905     1530.766      654.131      396.222        0.453        0.129       80.469       13.500        0.028      325.144      -10.802      869.402
12/12/2013  04:20:00      -55.206      -23.291       -1.522       28.421       35.093       21.887      807.753     1231.505      479.046        0.305        0.126       59.918       18.549        0.096      325.156      -10.783      869.400
12/12/2013  04:21:00      -43.535      -14.848       -5.739       35.290       24.703       16.190     1245.419      610.261      262.102        0.213        0.106       45.998       15.768        0.118      325.122      -10.837      869.397
12/12/2013  04:22:00      -41.672      -29.167       -0.474       28.216       34.381       16.355      796.170     1182.036      267.479        0.242        0.112       50.865       15.528        0.093      325.113      -10.852      869.376
12/12/2013  04:23:00      -53.231      -29.738       -7.928       25.672       28.883       15.376      659.072      834.254      236.421        0.275        0.086       60.974        8.491        0.019      325.095      -10.880      869.356
12/12/2013  04:24:00      -64.972      -20.069       -6.811       17.234       16.700       12.856      297.028      278.897      165.274        0.271        0.037       68.001        7.444        0.012      325.100      -10.874      869.351
12/12/2013  04:25:00      -71.728      -20.016       -7.043       17.418       18.061       17.001      303.401      326.211      289.023        0.326        0.046       74.468        6.800        0.008      325.087      -10.894      869.363
12/12/2013  04:26:00      -75.127       -4.915       -8.746       12.182       13.418       11.335      148.407      180.044      128.479        0.310        0.023       75.288        7.687        0.010      324.984      -11.059      869.373
12/12/2013  04:27:00      -56.903      -15.037       -8.195       16.023       12.140       12.043      256.751      147.378      145.028        0.204        0.027       58.857        5.811        0.010      324.994      -11.044      869.372
12/12/2013  04:28:00      -42.977       -5.823       -6.890        9.553        8.056        8.885       91.256       64.894       78.948        0.108        0.012       43.369        3.950        0.008      325.107      -10.861      869.361
12/12/2013  04:29:00      -24.056      -22.375        0.414       16.799       13.672        7.927      282.194      186.916       62.836        0.081        0.027       32.853        4.604        0.020      325.236      -10.653      869.343
12/12/2013  04:30:00       10.386        6.093        7.183       11.288        8.655        8.169      127.415       74.916       66.731        0.023        0.013       12.042        5.759        0.229      325.268      -10.600      869.320
12/12/2013  04:31:00       26.113        8.839        3.219        9.760        8.291       10.411       95.250       68.747      108.396        0.052        0.014       27.568        5.875        0.045      325.503      -10.223      869.301
12/12/2013  04:32:00       34.305        9.260        1.164        7.996        7.390        5.251       63.936       54.607       27.572        0.071        0.007       35.533        2.639        0.006      325.638      -10.002      869.306
12/12/2013  04:33:00       18.554        8.848        5.655       10.646        6.682        5.258      113.327       44.649       27.650        0.032        0.009       20.555        4.582        0.050      325.667       -9.959      869.311
12/12/2013  04:34:00       40.621       23.058       19.048        9.462        7.431        8.853       89.538       55.224       78.368        0.138        0.011       46.709        5.802        0.015      325.729       -9.859      869.298
12/12/2013  04:35:00       42.151       31.937       16.222       12.678        8.778        9.793      160.734       77.050       95.910        0.170        0.017       52.884        6.798        0.017      325.657       -9.974      869.272
12/12/2013  04:36:00       39.306       30.726        5.527       14.047       11.078        9.508      197.305      122.711       90.406        0.146        0.021       49.890        7.465        0.022      325.656       -9.976      869.274
12/12/2013  04:37:00       24.089       23.020       -4.618       14.144       10.727        7.947      200.063      115.069       63.150        0.075        0.019       33.319        4.759        0.020      325.653       -9.980      869.299
12/12/2013  04:38:00       14.572       12.001        1.899       15.823       12.182        8.647      250.365      148.410       74.776        0.042        0.024       18.878        8.666        0.211      325.669       -9.954      869.311
12/12/2013  04:39:00       26.754       14.561        6.047       13.724        8.233        8.188      188.358       67.787       67.043        0.064        0.016       30.459        5.456        0.032      325.658       -9.971      869.302
12/12/2013  04:40:00       28.132       14.208        2.320       10.615        7.713        7.572      112.679       59.491       57.341        0.061        0.011       31.516        2.287        0.005      325.629      -10.016      869.307
12/12/2013  04:41:00       10.580        3.080        6.104        9.783        9.526        7.420       95.698       90.739       55.057        0.020        0.012       11.020        4.253        0.149      325.733       -9.850      869.307
12/12/2013  04:42:00       33.499       17.492        8.211        8.507        7.921        7.268       72.362       62.746       52.821        0.084        0.009       37.791        4.434        0.014      325.676       -9.944      869.295
12/12/2013  04:43:00       38.801       17.906        2.314        8.053        9.763        8.190       64.845       95.314       67.079        0.103        0.011       42.734        4.631        0.012      325.637      -10.007      869.290
12/12/2013  04:44:00       33.056       17.254       -0.609        7.794        8.863        6.624       60.745       78.554       43.880        0.079        0.009       37.288        2.796        0.006      325.607      -10.053      869.287
12/12/2013  04:45:00       10.585        6.239        5.967        8.540        9.730        6.801       72.938       94.671       46.257        0.020        0.011       12.287        7.041        0.328      325.614      -10.042      869.288
12/12/2013  04:46:00       27.294        1.773        3.384       13.140        8.927        9.718      172.663       79.687       94.441        0.055        0.017       27.351        7.351        0.072      325.619      -10.033      869.283
12/12/2013  04:47:00       -1.447      -14.215       11.987        7.629       12.437        7.556       58.198      154.688       57.098        0.031        0.013       14.288        5.724        0.160      325.585      -10.089      869.282
12/12/2013  04:48:00      -28.991      -11.983       -2.750       14.154        8.555        7.169      200.333       73.184       51.396        0.066        0.016       31.370        8.452        0.073      325.331      -10.500      869.285
12/12/2013  04:49:00      -37.051       -3.255       -7.095        8.774       10.129        5.911       76.978      102.594       34.940        0.082        0.011       37.194        3.621        0.009      325.182      -10.741      869.267
12/12/2013  04:50:00      -11.114        0.329       -0.265       16.767        5.927        7.393      281.134       35.127       54.653        0.025        0.019       11.119        9.302        0.700      325.290      -10.566      869.255
12/12/2013  04:51:00       11.064       11.265       -0.074        7.890        8.665        6.292       62.250       75.076       39.590        0.021        0.009       15.790        5.505        0.122      325.500      -10.227      869.263
12/12/2013  04:52:00       18.008        6.828        1.701        6.746        8.815       11.334       45.506       77.700      128.452        0.031        0.013       19.259        8.560        0.198      325.625      -10.024      869.280
12/12/2013  04:53:00        1.709        8.234       -4.918        6.720        6.927        7.444       45.156       47.989       55.407        0.012        0.007        8.409        6.103        0.527      325.565      -10.121      869.285
12/12/2013  04:54:00      -37.978      -12.804       -4.430       11.502        8.302        7.009      132.288       68.930       49.123        0.094        0.013       40.078        2.202        0.003      325.251      -10.630      869.279
12/12/2013  04:55:00      -37.435      -13.666       -4.304        5.995       11.587        5.270       35.941      134.250       27.768        0.090        0.010       39.852        3.205        0.006      325.213      -10.690      869.267
12/12/2013  04:56:00       -6.304       -8.784        3.775       11.232        8.809        6.314      126.162       77.591       39.864        0.019        0.012       10.812        4.750        0.193      325.200      -10.711      869.259
12/12/2013  04:57:00      -27.925      -20.829       -6.364       25.259       10.261        9.316      638.040      105.283       86.785        0.104        0.042       34.838       10.418        0.089      325.180      -10.743      869.255
12/12/2013  04:58:00      -79.432      -17.240      -11.001       25.852       15.652       11.684      668.349      244.999      136.513        0.389        0.052       81.282       12.461        0.024      324.958      -11.103      869.260
12/12/2013  04:59:00      -62.747        2.594       -9.267       27.059       14.140       15.067      732.196      199.949      227.000        0.259        0.058       62.800       15.716        0.063      324.724      -11.479      869.264
12/12/2013  05:00:00      -49.117        4.268       -6.449       23.645       14.676       12.103      559.094      215.373      146.486        0.170        0.046       49.302       12.014        0.059      324.841      -11.291      869.247
12/12/2013  05:01:00      -38.559        8.312       -4.848       26.645       10.700       13.055      709.946      114.493      170.423        0.129        0.050       39.445       11.662        0.087      324.864      -11.254      869.227
12/12/2013  05:02:00      -43.980       -6.181      -11.080       10.111        9.208        7.276      102.240       84.781       52.938        0.117        0.012       44.412        4.426        0.010      325.000      -11.033      869.229
12/12/2013  05:03:00      -52.114      -11.384       -5.752       10.951       10.245        8.208      119.923      104.962       67.377        0.159        0.015       53.343        6.136        0.013      324.877      -11.234      869.239
12/12/2013  05:04:00      -55.535      -10.312       -4.663       15.449       14.389       12.032      238.687      207.036      144.767        0.190        0.030       56.484        9.716        0.030      324.912      -11.177      869.235
12/12/2013  05:05:00      -84.931       -5.449      -12.855       10.642        9.816        9.262      113.262       96.348       85.789        0.385        0.015       85.105        5.083        0.004      324.866      -11.250      869.231
12/12/2013  05:06:00      -90.709      -10.833      -12.809       23.243       12.503       10.655      540.224      156.322      113.531        0.466        0.041       91.353       10.049        0.012      324.877      -11.233      869.240
12/12/2013  05:07:00      -63.799      -10.972       -9.233       13.093       17.708        9.708      171.427      313.564       94.247        0.243        0.029       64.735        6.178        0.009      324.827      -11.311      869.250
12/12/2013  05:08:00      -54.942       -1.687       -6.680       11.194        9.647        8.433      125.308       93.074       71.122        0.168        0.014       54.968        5.105        0.009      324.805      -11.348      869.250
12/12/2013  05:09:00      -50.423      -11.430      -13.311        9.973        9.937        8.047       99.451       98.743       64.749        0.156        0.013       51.702        5.443        0.011      324.917      -11.169      869.254
12/12/2013  05:10:00      -64.060      -21.643      -10.451       14.612       13.052       10.179      213.499      170.360      103.609        0.258        0.024       67.617        5.815        0.007      324.980      -11.066      869.263
12/12/2013  05:11:00      -97.988       -1.110      -13.744       12.268        7.768        8.721      150.508       60.341       76.056        0.504        0.014       97.994        5.675        0.003      324.827      -11.313      869.263
12/12/2013  05:12:00      -83.549        1.066      -12.680       13.697        7.937        9.710      187.594       62.999       94.290        0.374        0.017       83.556        4.740        0.003      324.881      -11.226      869.249
12/12/2013  05:13:00      -55.419       -5.683      -13.923        9.289        6.098        6.932       86.285       37.192       48.054        0.173        0.009       55.710        3.364        0.004      324.982      -11.062      869.241
12/12/2013  05:14:00      -23.764      -16.765       -7.692       14.119        9.295        8.195      199.350       86.391       67.154        0.063        0.018       29.083        8.782        0.091      325.197      -10.717      869.236
12/12/2013  05:15:00      -20.718      -10.409        2.251        8.270        9.721        5.095       68.387       94.502       25.959        0.037        0.009       23.186        2.158        0.009      325.228      -10.664      869.252
12/12/2013  05:16:00      -32.471       -9.436       -2.937        9.218        9.989        7.107       84.972       99.780       50.509        0.069        0.012       33.814        7.165        0.045      325.229      -10.665      869.248
12/12/2013  05:17:00      -23.765       -6.713       -4.815       11.917        6.417        5.192      142.019       41.182       26.956        0.042        0.011       24.695        5.797        0.055      325.112      -10.855      869.237
12/12/2013  05:18:00        0.804      -10.729        1.773        9.419        6.390        7.298       88.720       40.829       53.256        0.015        0.009       10.759        5.093        0.224      325.160      -10.776      869.229
12/12/2013  05:19:00      -10.880        6.114       -1.570        8.481        9.627        5.032       71.919       92.673       25.320        0.017        0.009       12.480        3.358        0.072      325.236      -10.653      869.226
12/12/2013  05:20:00       -4.998        8.023        6.947        6.876        8.356        5.531       47.284       69.822       30.594        0.014        0.007        9.452        4.517        0.228      325.187      -10.732      869.228
12/12/2013  05:21:00       12.384      -20.302        4.058        9.085       13.006        8.519       82.545      169.168       72.578        0.045        0.016       23.780        5.344        0.051      325.274      -10.593      869.227
12/12/2013  05:22:00        4.342       -0.066       10.876        6.877       11.943        8.030       47.293      142.640       64.480        0.020        0.013        4.343        5.609        1.668      325.400      -10.388      869.232
12/12/2013  05:23:00       13.477        5.322        8.349       11.501        7.849        6.778      132.277       61.606       45.939        0.026        0.012       14.490        4.731        0.107      325.379      -10.421      869.235
12/12/2013  05:24:00       44.190       18.077        7.854       16.733       10.697        6.211      279.991      114.422       38.571        0.139        0.022       47.744        4.320        0.008      325.439      -10.327      869.229
12/12/2013  05:25:00       21.656       10.201       15.679       13.037        8.476       15.037      169.967       71.839      226.111        0.064        0.023       23.939        9.286        0.150      325.408      -10.375      869.224
12/12/2013  05:26:00       15.166        6.133       13.354       18.407       15.715       10.352      338.820      246.954      107.169        0.057        0.035       16.359        5.067        0.096      325.434      -10.334      869.230
12/12/2013  05:27:00       -2.286       -5.068       12.113        6.527        7.962        6.347       42.600       63.393       40.288        0.016        0.007        5.559        4.368        0.617      325.387      -10.409      869.245
12/12/2013  05:28:00        3.896       -9.015       16.057        7.120        9.318        7.485       50.690       86.832       56.023        0.027        0.010        9.821        4.127        0.177      325.168      -10.763      869.241
12/12/2013  05:29:00       29.629       17.855       16.884       23.352       15.525       12.459      545.317      241.016      155.230        0.121        0.047       34.593        6.136        0.031      325.249      -10.631      869.240
12/12/2013  05:30:00       29.269       19.730        9.240       16.300       11.643        9.884      265.683      135.567       97.689        0.092        0.025       35.298        3.813        0.012      325.321      -10.516      869.232
12/12/2013  05:31:00        5.353       18.445        5.699       13.889        8.206        7.044      192.902       67.344       49.622        0.036        0.015       19.206        6.685        0.121      325.288      -10.569      869.243
12/12/2013  05:32:00       -5.631      -16.686        9.213        9.002       13.264        9.727       81.037      175.940       94.616        0.037        0.018       17.611        4.064        0.053      325.055      -10.944      869.248
12/12/2013  05:33:00      -13.934        5.842       10.729       13.629        7.176        8.698      185.753       51.494       75.662        0.033        0.016       15.109        6.254        0.171      325.148      -10.796      869.243
12/12/2013  05:34:00      -35.184        3.733       -3.974        9.886        4.876       11.608       97.733       23.771      134.746        0.076        0.013       35.382        8.786        0.062      324.993      -11.046      869.226
12/12/2013  05:35:00      -26.214       -0.586       -4.459       10.184        7.823        8.418      103.708       61.194       70.855        0.047        0.012       26.221        6.365        0.059      325.007      -11.022      869.227
12/12/2013  05:36:00      -20.301       -9.022       -0.658       13.786       10.442       11.614      190.054      109.044      134.886        0.046        0.022       22.216        7.658        0.119      325.076      -10.912      869.225
12/12/2013  05:37:00      -33.832       -5.147       -9.956        6.410        8.036        6.953       41.095       64.574       48.344        0.071        0.008       34.221        3.153        0.008      324.849      -11.278      869.214
12/12/2013  05:38:00      -52.597       -0.939      -10.665        8.740        8.819        9.079       76.381       77.781       82.433        0.156        0.012       52.606        4.330        0.007      324.748      -11.439      869.204
12/12/2013  05:39:00      -48.540       -4.785       -9.296       11.810        7.386        7.780      139.486       54.560       60.530        0.136        0.013       48.775        5.410        0.012      324.721      -11.482      869.215
12/12/2013  05:40:00      -46.940       -9.609       -6.579        7.164        9.773        6.542       51.320       95.506       42.796        0.126        0.009       47.914        2.646        0.003      324.637      -11.619      869.227
12/12/2013  05:41:00      -53.987       -7.105       -8.053       10.075        7.356        5.806      101.500       54.109       33.709        0.161        0.009       54.452        3.724        0.005      324.729      -11.470      869.224
12/12/2013  05:42:00      -41.784       -1.584       -5.294        7.295        7.864        6.358       53.212       61.845       40.419        0.097        0.008       41.814        3.541        0.007      324.845      -11.284      869.208
12/12/2013  05:43:00      -26.864       -6.123       -4.902       12.513        6.152        4.789      156.574       37.849       22.938        0.050        0.011       27.553        3.672        0.018      324.958      -11.102      869.193
12/12/2013  05:44:00      -26.795      -14.626       -7.580       17.128        9.887        6.643      293.364       97.755       44.129        0.071        0.022       30.527        6.483        0.045      324.898      -11.198      869.194
12/12/2013  05:45:00      -59.332      -21.493       -9.215        8.187       10.307        9.044       67.023      106.234       81.799        0.216        0.013       63.105        5.389        0.007      324.778      -11.393      869.197
12/12/2013  05:46:00      -41.748       -5.836       -5.988        8.110        9.151        7.538       65.773       83.741       56.827        0.101        0.010       42.154        4.649        0.012      324.747      -11.441      869.192
12/12/2013  05:47:00      -27.202       -1.728       -1.871        6.979        5.707        4.722       48.702       32.572       22.293        0.042        0.005       27.257        2.317        0.007      324.951      -11.113      869.179
12/12/2013  05:48:00      -29.060       -5.892       -3.588        7.271        8.350        6.270       52.863       69.726       39.316        0.053        0.008       29.651        3.881        0.017      324.999      -11.035      869.188
12/12/2013  05:49:00      -44.911      -17.590       -7.503       18.121       10.560       11.060      328.361      111.506      122.325        0.147        0.028       48.233        7.771        0.026      324.852      -11.273      869.203
12/12/2013  05:50:00      -73.518       -6.323       -9.820       14.307       11.214        8.468      204.686      125.749       71.706        0.297        0.020       73.789        5.393        0.005      324.697      -11.524      869.208
12/12/2013  05:51:00      -34.349      -13.835       -7.332       14.019        7.256        5.900      196.544       52.643       34.812        0.085        0.014       37.031        3.077        0.007      324.785      -11.379      869.196
12/12/2013  05:52:00      -48.200      -16.585       -7.782        8.519       13.015        7.182       72.569      169.399       51.588        0.148        0.015       50.974        6.872        0.018      324.843      -11.288      869.188
12/12/2013  05:53:00      -67.406       -8.297      -11.853       11.353        8.899        8.056      128.883       79.193       64.903        0.251        0.014       67.915        4.217        0.004      324.667      -11.571      869.190
12/12/2013  05:54:00      -51.902       -3.896      -10.847       16.794       10.822        9.072      282.044      117.121       82.306        0.165        0.024       52.048        7.652        0.022      324.637      -11.620      869.177
12/12/2013  05:55:00      -34.366      -12.026      -11.730       10.869        8.394        6.493      118.143       70.459       42.160        0.085        0.012       36.409        5.734        0.025      324.790      -11.374      869.163
12/12/2013  05:56:00      -11.577        0.252        0.335       22.637       13.778       16.596      512.440      189.826      275.416        0.056        0.049       11.580       10.194        0.775      325.040      -10.968      869.163
12/12/2013  05:57:00      -37.066      -10.707        0.820        9.658        8.668        8.056       93.280       75.139       64.903        0.086        0.012       38.581        7.154        0.034      324.916      -11.169      869.158
12/12/2013  05:58:00        1.742       -2.602       -0.281       29.895        9.114        6.809      893.706       83.059       46.366        0.052        0.051        3.131        8.008        6.539      324.988      -11.054      869.153
12/12/2013  05:59:00        3.534       -1.813        2.559       29.084       18.652       12.999      845.876      347.883      168.962        0.069        0.068        3.972       14.457       13.251      325.047      -10.958      869.163
12/12/2013  06:00:00      -94.604       -3.054      -13.906       26.872       18.278       11.982      722.110      334.070      143.574        0.518        0.060       94.653        5.342        0.003      324.591      -11.694      869.173
12/12/2013  06:01:00     -100.406      -12.139      -14.335       16.622       20.282       11.509      276.277      411.353      132.453        0.563        0.041      101.137        5.864        0.003      324.518      -11.810      869.182
12/12/2013  06:02:00      -71.211      -20.882       -6.263       15.699       11.229       10.066      246.456      126.100      101.322        0.301        0.024       74.209        7.616        0.011      324.536      -11.783      869.188
12/12/2013  06:03:00     -108.408       -3.920      -13.276       11.181       17.281       11.564      125.014      298.622      133.723        0.625        0.028      108.479        4.139        0.001      324.507      -11.828      869.196
12/12/2013  06:04:00      -82.895       -7.072      -12.003       16.434       15.820       14.793      270.086      250.266      218.829        0.390        0.037       83.197       11.043        0.018      324.473      -11.885      869.184
12/12/2013  06:05:00      -76.274       -4.838      -13.072       16.588       14.034       10.671      275.166      196.961      113.875        0.330        0.029       76.427        8.692        0.013      324.485      -11.863      869.179
12/12/2013  06:06:00      -34.790      -24.180        3.682       21.765       21.560       19.546      473.731      464.844      382.042        0.156        0.066       42.368       13.934        0.108      324.797      -11.362      869.195
12/12/2013  06:07:00       -8.744      -17.169       -1.132       14.426       11.603       11.396      208.124      134.630      129.876        0.042        0.024       19.267       10.003        0.270      324.900      -11.194      869.211
12/12/2013  06:08:00      -10.749      -16.118       -8.774       12.367       15.155       13.386      152.939      229.677      179.190        0.051        0.028       19.374        9.139        0.223      324.852      -11.272      869.214
12/12/2013  06:09:00      -55.163      -19.084       -5.970       23.678       16.768       12.056      560.653      281.171      145.359        0.221        0.049       58.370        3.979        0.005      324.729      -11.471      869.215
12/12/2013  06:10:00      -91.445        0.069      -14.117       21.491       14.823       12.139      461.844      219.711      147.346        0.469        0.041       91.445       11.936        0.017      324.655      -11.591      869.206
12/12/2013  06:11:00      -88.786        4.569      -11.702       19.452       12.544        9.872      378.376      157.343       97.450        0.434        0.032       88.903        3.003        0.001      324.622      -11.643      869.196
12/12/2013  06:12:00      -87.062       -6.028      -14.547       15.803       14.757       11.670      249.726      217.783      136.193        0.422        0.030       87.271       10.313        0.014      324.617      -11.650      869.206
12/12/2013  06:13:00      -95.253       -7.106      -13.871       18.327       13.592       13.575      335.892      184.740      184.282        0.501        0.035       95.517        3.530        0.001      324.666      -11.573      869.223
12/12/2013  06:14:00     -103.569       -1.281      -11.873       20.038       16.153       13.390      401.502      260.906      179.293        0.586        0.042      103.577       10.453        0.010      324.561      -11.742      869.222
12/12/2013  06:15:00     -108.287      -17.664      -14.060       15.882       13.822       11.187      252.234      191.037      125.157        0.640        0.028      109.718        4.711        0.002      324.594      -11.688      869.227
12/12/2013  06:16:00     -105.252      -14.108       -8.708       22.593       24.944       18.325      510.422      622.210      335.797        0.641        0.073      106.193       13.063        0.015      324.591      -11.694      869.239
12/12/2013  06:17:00      -87.517        2.519       -6.892       31.860       20.654       15.847     1015.033      426.571      251.118        0.470        0.085       87.554       11.676        0.018      324.559      -11.745      869.229
12/12/2013  06:18:00      -75.150      -17.366      -10.416       21.897       19.603       14.794      479.465      384.261      218.866        0.357        0.054       77.130       11.189        0.021      324.579      -11.713      869.216
12/12/2013  06:19:00      -60.374      -22.513       -9.175       21.159       22.612       15.188      447.694      511.321      230.689        0.271        0.059       64.434       10.238        0.025      324.596      -11.684      869.210
12/12/2013  06:20:00      -64.108       -9.808       -8.790       13.273       17.260       13.122      176.161      297.915      172.179        0.246        0.032       64.854       10.345        0.025      324.626      -11.638      869.197
12/12/2013  06:21:00     -103.569      -23.773       -7.099       19.498       22.224       14.024      380.168      493.893      196.672        0.621        0.054      106.262        9.055        0.007      324.635      -11.625      869.188
12/12/2013  06:22:00     -109.707      -11.722      -10.084       37.347       31.291       16.828     1394.797      979.133      283.176        0.747        0.133      110.331       11.755        0.011      324.563      -11.737      869.194
12/12/2013  06:23:00     -114.388      -11.917       -9.773       23.251       24.150       14.871      540.588      583.234      221.132        0.733        0.067      115.007       11.102        0.009      324.555      -11.752      869.205
12/12/2013  06:24:00      -91.284       -4.206       -4.834       37.621       20.887       18.633     1415.352      436.259      347.170        0.529        0.110       91.381       20.017        0.048      324.594      -11.687      869.207
12/12/2013  06:25:00      -91.170       -6.434       -7.249       32.788       19.655       15.752     1075.037      386.308      248.128        0.506        0.085       91.396       11.830        0.017      324.620      -11.646      869.200
12/12/2013  06:26:00     -112.650      -10.771      -13.939       18.330       16.124       14.102      335.986      259.999      198.860        0.690        0.040      113.163       10.035        0.008      324.656      -11.589      869.202
12/12/2013  06:27:00     -121.083      -11.713      -11.994       19.591       16.690       15.946      383.793      278.562      254.289        0.793        0.046      121.648        9.487        0.006      324.645      -11.605      869.214
12/12/2013  06:28:00     -111.086      -15.982      -16.178       18.790       15.143       12.725      353.050      229.315      161.931        0.680        0.037      112.229        5.324        0.002      324.675      -11.558      869.225
12/12/2013  06:29:00      -76.289      -52.494       -7.309       17.737       24.702       13.300      314.594      610.183      176.888        0.487        0.055       92.605       10.860        0.014      324.710      -11.502      869.254
12/12/2013  06:30:00      -82.894      -24.306       -5.215       36.173       19.491       12.919     1308.483      379.913      166.911        0.467        0.093       86.384       12.404        0.021      324.728      -11.473      869.281
12/12/2013  06:31:00      -69.116      -23.195       -4.954       19.555       16.465       13.566      382.388      271.081      184.028        0.309        0.042       72.904       13.327        0.033      324.832      -11.305      869.285
12/12/2013  06:32:00     -102.011       -4.845      -14.143       27.587       14.231       11.330      761.063      202.518      128.374        0.586        0.055      102.126       10.309        0.010      324.842      -11.290      869.267
12/12/2013  06:33:00     -120.741       -2.024      -17.598       18.297        7.151       13.207      334.768       51.130      174.414        0.773        0.028      120.758       13.851        0.013      324.820      -11.325      869.270
12/12/2013  06:34:00     -108.373       -0.387      -13.786       18.270       12.690       12.318      333.799      161.034      151.726        0.629        0.032      108.374        8.864        0.007      324.870      -11.243      869.294
12/12/2013  06:35:00      -68.202       -6.260       -5.866       28.236       12.921       13.537      797.249      166.944      183.257        0.294        0.057       68.489       13.712        0.040      324.866      -11.250      869.303
12/12/2013  06:36:00      -52.709      -26.619        1.913       16.199       15.906       15.418      262.406      253.006      237.704        0.212        0.038       59.050        5.595        0.009      324.933      -11.142      869.314
12/12/2013  06:37:00      -89.974      -20.333       -7.707       20.738       16.893       10.545      430.055      285.357      111.205        0.470        0.041       92.243        8.045        0.008      324.851      -11.274      869.323
12/12/2013  06:38:00     -119.529       -9.423      -18.703       21.724       17.046       11.896      471.911      290.559      141.519        0.781        0.045      119.900        8.825        0.005      324.817      -11.328      869.345
12/12/2013  06:39:00     -128.301      -12.850      -14.494       22.549       16.245       13.451      508.441      263.897      180.926        0.889        0.048      128.943        9.904        0.006      324.788      -11.376      869.359
12/12/2013  06:40:00      -99.304      -13.422       -8.574       19.046       25.014       17.050      362.731      625.716      290.707        0.570        0.064      100.207       11.421        0.013      324.777      -11.393      869.357
12/12/2013  06:41:00      -99.020      -10.710       -6.287       26.452       20.982       19.824      699.732      440.234      392.983        0.575        0.077       99.598       17.580        0.031      324.677      -11.555      869.354
12/12/2013  06:42:00     -106.109        3.210       -6.047       31.038       22.132       15.798      963.386      489.805      249.579        0.650        0.085      106.157       13.976        0.017      324.678      -11.554      869.354
12/12/2013  06:43:00      -54.077      -20.295       -4.203       20.525       18.350       12.121      421.284      336.707      146.912        0.213        0.045       57.760       10.372        0.032      324.724      -11.480      869.353
12/12/2013  06:44:00      -31.757      -16.139       -1.990       21.830       15.284        9.620      476.551      233.607       92.538        0.104        0.040       35.623        9.770        0.075      324.807      -11.344      869.352
12/12/2013  06:45:00      -45.956      -20.503       -5.217       15.797       14.996       11.871      249.540      224.874      140.920        0.159        0.031       50.322        7.765        0.024      324.888      -11.214      869.340
12/12/2013  06:46:00      -47.313      -19.998       -2.024       19.287       13.272       10.744      371.983      176.143      115.427        0.165        0.033       51.366        5.493        0.011      324.910      -11.178      869.334
12/12/2013  06:47:00      -31.783      -21.052       -5.586       17.997       12.650       11.982      323.891      160.024      143.574        0.106        0.031       38.122        6.739        0.031      324.859      -11.261      869.340
12/12/2013  06:48:00      -37.600      -26.099      -10.419       13.373       11.274        8.456      178.830      127.113       71.502        0.129        0.019       45.770        6.762        0.022      324.815      -11.332      869.355
12/12/2013  06:49:00      -56.651       -2.887       -1.109       19.792       16.229        9.234      391.740      263.380       85.262        0.198        0.037       56.725        7.384        0.017      324.737      -11.458      869.364
12/12/2013  06:50:00      -73.376       -6.570       -7.297       15.527       13.356        9.991      241.096      178.380       99.823        0.300        0.026       73.670        8.764        0.014      324.780      -11.390      869.360
12/12/2013  06:51:00      -71.041      -23.084       -9.447       13.979        9.347        9.161      195.407       87.367       83.917        0.302        0.018       74.697        8.016        0.012      324.721      -11.482      869.374
12/12/2013  06:52:00      -35.909      -21.861       -4.940       29.140       16.439       14.875      849.163      270.227      221.279        0.157        0.067       42.040       12.124        0.083      324.758      -11.425      869.408
12/12/2013  06:53:00      -56.494        0.004       -5.262       17.745       12.051       11.056      314.884      145.225      122.238        0.190        0.029       56.494        5.281        0.009      324.729      -11.472      869.414
12/12/2013  06:54:00      -77.288       -3.003       -8.839       12.806       12.003        8.291      163.998      144.065       68.738        0.322        0.019       77.347        4.793        0.004      324.733      -11.466      869.405
12/12/2013  06:55:00      -89.670      -23.151      -10.974       13.436       14.954       10.394      180.539      223.625      108.038        0.460        0.026       92.610        7.696        0.007      324.677      -11.554      869.421
12/12/2013  06:56:00      -93.375      -10.046      -10.096       23.867       17.033       14.127      569.615      290.111      199.574        0.499        0.053       93.914       11.489        0.015      324.550      -11.759      869.438
12/12/2013  06:57:00      -65.400       -5.231       -6.744       29.286       16.452       12.253      857.657      270.663      150.133        0.281        0.064       65.609        8.742        0.018      324.587      -11.699      869.437
12/12/2013  06:58:00      -93.032       -5.994      -12.838       22.928       16.397       15.007      525.681      268.850      225.224        0.494        0.051       93.225       13.550        0.021      324.545      -11.767      869.441
12/12/2013  06:59:00     -108.367      -16.262       -9.811       22.902       16.271       15.952      524.503      264.760      254.478        0.657        0.052      109.580       11.027        0.010      324.588      -11.698      869.448
12/12/2013  07:00:00      -95.767        2.974      -11.962       18.925       18.399       14.999      358.158      338.512      224.984        0.512        0.046       95.814        7.314        0.006      324.629      -11.633      869.450
12/12/2013  07:01:00     -108.876        2.919      -14.988       15.733       13.299       11.829      247.516      176.862      139.927        0.633        0.028      108.915        6.522        0.004      324.557      -11.747      869.442
12/12/2013  07:02:00     -114.548       -1.501      -12.334       30.766       15.808       16.484      946.529      249.903      271.727        0.737        0.073      114.558       17.286        0.023      324.535      -11.782      869.432
12/12/2013  07:03:00      -28.368      -11.040        2.975       23.828       22.106       14.075      567.752      488.683      198.099        0.109        0.063       30.441        9.251        0.092      324.611      -11.661      869.411
12/12/2013  07:04:00      -33.451       -3.434       -3.346       21.823       22.997       14.122      476.233      528.842      199.425        0.117        0.060       33.627        9.377        0.078      324.643      -11.610      869.409
12/12/2013  07:05:00      -63.473      -16.934       -4.105       16.714       17.315       11.457      279.360      299.805      131.263        0.252        0.036       65.693        4.820        0.005      324.628      -11.634      869.401
12/12/2013  07:06:00      -78.423      -17.126       -9.063       15.364       15.249       10.196      236.052      232.529      103.957        0.355        0.029       80.271        5.942        0.005      324.680      -11.551      869.396
12/12/2013  07:07:00      -90.358       -3.053       -7.391       18.461       15.063       11.382      340.805      226.881      129.548        0.446        0.035       90.409        9.438        0.011      324.665      -11.574      869.380
12/12/2013  07:08:00      -66.755      -15.652       -6.227       15.421       15.271       13.368      237.820      233.195      178.701        0.269        0.032       68.566        8.371        0.015      324.703      -11.512      869.374
12/12/2013  07:09:00      -67.057      -15.203       -5.181       16.612       17.225       11.944      275.943      296.712      142.664        0.273        0.036       68.759       10.138        0.022      324.793      -11.367      869.377
12/12/2013  07:10:00      -49.664      -26.101       -3.576       17.084       16.536        9.876      291.863      273.429       97.538        0.191        0.033       56.105        6.023        0.012      324.811      -11.338      869.376
12/12/2013  07:11:00      -40.131      -25.220       -2.263       21.413       14.205       12.342      458.509      201.783      152.313        0.153        0.041       47.398        9.785        0.043      324.791      -11.371      869.373
12/12/2013  07:12:00       -3.816      -14.549        5.742        9.085        9.792       11.374       82.530       95.890      129.371        0.028        0.015       15.041        7.945        0.279      324.962      -11.094      869.355
12/12/2013  07:13:00      -41.728       -3.905       -3.450       14.674       13.458        7.680      215.326      181.122       58.976        0.111        0.023       41.910        5.352        0.016      324.864      -11.254      869.341
12/12/2013  07:14:00      -47.669       -5.577       -1.113       21.469       13.915       12.419      460.900      193.619      154.223        0.156        0.040       47.994        6.281        0.017      324.794      -11.365      869.323
12/12/2013  07:15:00      -37.887       -3.477       -7.945       22.424       15.045       11.009      502.817      226.338      121.207        0.118        0.043       38.046        4.324        0.013      324.710      -11.503      869.309
12/12/2013  07:16:00      -78.625       -9.382       -2.190       28.605       14.615       14.474      818.222      213.587      209.505        0.376        0.062       79.183       16.564        0.044      324.640      -11.615      869.322
12/12/2013  07:17:00      -62.724       -6.204       -2.981       20.170       12.561       12.590      406.809      157.779      158.496        0.235        0.036       63.030       10.546        0.028      324.627      -11.635      869.344
12/12/2013  07:18:00      -80.815       10.739       -8.354       21.603       12.532       12.871      466.691      157.049      165.669        0.375        0.039       81.525        9.904        0.015      324.661      -11.581      869.362
12/12/2013  07:19:00      -76.357       14.871       -7.404       19.867       17.474       12.908      394.708      305.342      166.629        0.349        0.043       77.792        9.794        0.016      324.631      -11.629      869.356
12/12/2013  07:20:00      -77.903       -1.425       -2.068       25.451       14.131       13.698      647.741      199.671      187.643        0.355        0.052       77.916       14.504        0.035      324.631      -11.628      869.352
12/12/2013  07:21:00      -47.216       -0.119        0.430       21.556       15.001       12.552      464.648      225.022      157.550        0.154        0.042       47.217       12.847        0.074      324.580      -11.709      869.358
12/12/2013  07:22:00      -40.368        3.850       -5.247       13.077        8.809        7.736      171.010       77.605       59.843        0.099        0.015       40.551        6.415        0.025      324.689      -11.534      869.354
12/12/2013  07:23:00      -44.009       -3.611       -5.747       10.578       17.371       10.840      111.885      301.759      117.511        0.126        0.027       44.157        8.081        0.033      324.775      -11.398      869.347
12/12/2013  07:24:00      -51.223      -14.865       -9.227       14.909        8.743        8.750      222.291       76.439       76.561        0.165        0.019       53.336        7.527        0.020      324.756      -11.429      869.352
12/12/2013  07:25:00      -39.989      -13.695       -6.747       12.242       12.599       11.284      149.875      158.738      127.333        0.113        0.022       42.269        7.541        0.032      324.842      -11.290      869.357
12/12/2013  07:26:00      -37.658       -4.251       -3.936       12.278        8.487        6.898      150.761       72.037       47.589        0.086        0.014       37.897        4.706        0.015      324.800      -11.357      869.355
12/12/2013  07:27:00      -28.277        4.293       -8.116       14.399        7.804        7.852      207.338       60.899       61.658        0.061        0.016       28.601        7.152        0.063      324.896      -11.202      869.347
12/12/2013  07:28:00      -46.478       -3.413       -7.705       11.174       11.116        9.183      124.860      123.557       84.335        0.128        0.017       46.604        6.323        0.018      325.061      -10.934      869.359
12/12/2013  07:29:00      -43.837      -22.633       -9.591       13.768        9.798        7.239      189.563       95.995       52.410        0.143        0.017       49.335        4.690        0.009      325.058      -10.941      869.360
12/12/2013  07:30:00      -51.073      -14.578      -16.245        7.769        7.928        8.909       60.355       62.859       79.379        0.164        0.010       53.113        4.804        0.008      324.926      -11.153      869.342
12/12/2013  07:31:00      -45.993       -9.054       -7.300        8.723        8.155        8.464       76.083       66.508       71.640        0.123        0.011       46.876        2.870        0.004      324.952      -11.111      869.336
12/12/2013  07:32:00      -47.557      -11.109       -6.487       10.516        6.223        6.669      110.596       38.730       44.480        0.131        0.010       48.837        5.342        0.012      324.905      -11.186      869.346
12/12/2013  07:33:00      -58.617       -8.532       -4.687       17.721       14.751       10.370      314.017      217.604      107.530        0.208        0.032       59.235        8.460        0.020      324.878      -11.230      869.364
12/12/2013  07:34:00      -71.082      -13.142      -10.164       22.426       18.446       12.055      502.921      340.254      145.317        0.316        0.049       72.286        9.369        0.017      324.811      -11.339      869.386
12/12/2013  07:35:00      -49.999       -5.438       -0.747       27.396       13.900       14.169      750.558      193.199      200.756        0.184        0.057       50.294        8.591        0.029      324.764      -11.415      869.402
12/12/2013  07:36:00      -87.865      -11.781      -10.113       17.051       14.201        9.757      290.721      201.682       95.192        0.427        0.029       88.651        7.556        0.007      324.808      -11.344      869.402
12/12/2013  07:37:00      -94.427      -10.993      -14.834       13.335       14.763       10.988      177.822      217.943      120.735        0.489        0.026       95.065        6.585        0.005      324.834      -11.301      869.403
12/12/2013  07:38:00      -61.156       -1.210       -6.342       20.458       14.368       13.668      418.511      206.445      186.806        0.230        0.041       61.168       13.250        0.047      324.852      -11.272      869.379
12/12/2013  07:39:00      -44.610       -7.151       -6.535        9.861        9.036        9.375       97.247       81.644       87.897        0.118        0.013       45.180        6.056        0.018      325.025      -10.996      869.366
12/12/2013  07:40:00      -71.088      -12.617      -10.506       17.793       13.991       12.326      316.586      195.742      151.923        0.299        0.033       72.199        9.219        0.016      324.917      -11.167      869.381
12/12/2013  07:41:00      -73.613      -15.520      -10.987       13.373       14.065       10.380      178.850      197.824      107.745        0.313        0.024       75.231        7.086        0.009      324.879      -11.230      869.372
12/12/2013  07:42:00      -60.991       -6.274       -3.574       14.831       12.120       10.319      219.956      146.901      106.479        0.212        0.024       61.313        9.309        0.023      324.980      -11.067      869.361
12/12/2013  07:43:00      -63.906       -5.173       -7.473       12.277       10.032        7.441      150.733      100.646       55.367        0.224        0.015       64.115        5.804        0.008      324.992      -11.046      869.340
12/12/2013  07:44:00      -52.107       -6.029       -6.173       12.235        8.599        8.197      149.699       73.945       67.197        0.154        0.015       52.455        7.075        0.018      325.087      -10.894      869.345
12/12/2013  07:45:00      -78.974       -5.819       -5.930       15.072        9.225        6.609      227.180       85.103       43.683        0.333        0.018       79.188        5.382        0.005      324.980      -11.066      869.360
12/12/2013  07:46:00      -53.358      -10.310       -2.276       13.679       14.441       10.233      187.127      208.539      104.721        0.173        0.025       54.345        7.030        0.017      325.046      -10.961      869.345
12/12/2013  07:47:00      -67.926       -8.939       -4.662       20.088       12.870        9.276      403.528      165.646       86.046        0.269        0.033       68.512        9.102        0.018      325.033      -10.981      869.337
12/12/2013  07:48:00      -69.545       -6.026       -7.177       15.436        8.081        7.430      238.267       65.294       55.208        0.264        0.018       69.805        6.125        0.008      325.040      -10.969      869.335
12/12/2013  07:49:00      -47.503      -12.084       -5.376       11.755        9.637        7.618      138.174       92.865       58.039        0.136        0.014       49.015        6.084        0.015      325.156      -10.782      869.326
12/12/2013  07:50:00      -55.517       -0.333       -4.943       30.282       23.431       13.659      916.977      549.011      186.575        0.238        0.083       55.518       13.435        0.059      325.134      -10.818      869.318
12/12/2013  07:51:00      -35.233      -24.156        1.688       22.808       32.291       14.099      520.219     1042.740      198.795        0.179        0.088       42.719       10.753        0.063      325.185      -10.735      869.331
12/12/2013  07:52:00      -34.793       -5.524       -5.639       24.801       14.864       13.374      615.100      220.942      178.853        0.114        0.051       35.229       14.265        0.164      325.231      -10.661      869.349
12/12/2013  07:53:00      -37.621       -0.580       -5.639       24.377       14.029       12.046      594.249      196.816      145.099        0.119        0.047       37.625       12.423        0.109      325.282      -10.579      869.341
12/12/2013  07:54:00      -60.620       -6.358       -7.774       24.699       23.298       13.052      610.023      542.814      170.344        0.255        0.066       60.952       10.249        0.028      325.289      -10.567      869.333
12/12/2013  07:55:00      -84.627      -14.663       -8.940       26.111       19.904       14.064      681.795      396.184      197.804        0.437        0.064       85.888       13.014        0.023      325.249      -10.632      869.330
12/12/2013  07:56:00      -76.104        1.212       -7.790       27.753       23.315       15.331      770.246      543.591      235.044        0.370        0.077       76.113       13.116        0.030      325.290      -10.566      869.326
12/12/2013  07:57:00      -82.479        2.031       -9.493       31.642       20.842       17.881     1001.226      434.396      319.732        0.433        0.088       82.504       17.000        0.042      325.341      -10.483      869.331
12/12/2013  07:58:00      -49.564        8.979       -2.677       23.930       24.516       14.471      572.648      601.045      209.400        0.196        0.069       50.371        9.295        0.034      325.380      -10.421      869.348
12/12/2013  07:59:00      -70.675       19.431       -7.497       30.378       19.644       17.022      922.844      385.876      289.738        0.351        0.080       73.297       18.659        0.065      325.494      -10.237      869.358
12/12/2013  08:00:00      -93.596       14.463       -9.128       28.561       23.348       20.539      815.718      545.139      421.836        0.542        0.089       94.707       19.405        0.042      325.555      -10.138      869.342
12/12/2013  08:01:00     -104.108       11.188      -10.733       29.382       19.128       13.177      863.306      365.864      173.631        0.624        0.070      104.708       14.151        0.018      325.579      -10.099      869.315
12/12/2013  08:02:00     -109.227       -0.995      -12.663       28.414       18.334       12.994      807.355      336.144      168.853        0.670        0.066      109.231       12.123        0.012      325.564      -10.123      869.303
12/12/2013  08:03:00     -103.985      -30.724       -6.082       22.659       18.244       16.583      513.410      332.835      275.003        0.646        0.056      108.429       12.490        0.013      325.565      -10.121      869.299
12/12/2013  08:04:00     -111.225       -6.478       -9.803       25.856       18.029       15.852      668.541      325.058      251.276        0.688        0.062      111.414       14.019        0.016      325.582      -10.095      869.300
12/12/2013  08:05:00     -101.008       -5.399       -8.616       21.347       12.694       10.459      455.707      161.139      109.383        0.552        0.036      101.153       11.112        0.012      325.610      -10.049      869.313
12/12/2013  08:06:00     -110.809        0.939      -11.699       17.012       12.242       11.876      289.400      149.863      141.048        0.650        0.029      110.813        8.039        0.005      325.686       -9.926      869.312
12/12/2013  08:07:00     -105.959      -12.276      -13.268       17.366       17.213       12.392      301.563      296.291      153.551        0.615        0.038      106.668        8.252        0.006      325.736       -9.846      869.325
12/12/2013  08:08:00      -55.799      -13.277        0.750       26.609       19.208       13.661      708.021      368.937      186.628        0.228        0.063       57.357       13.447        0.055      325.809       -9.729      869.325
12/12/2013  08:09:00     -109.869        6.810      -13.281       18.695       16.806       10.949      349.512      282.453      119.884        0.652        0.038      110.080        8.678        0.006      325.738       -9.843      869.317
12/12/2013  08:10:00      -88.924       15.657       -9.184       18.275       16.684       11.777      333.968      278.369      138.687        0.449        0.038       90.292       10.814        0.014      325.787       -9.763      869.307
12/12/2013  08:11:00      -70.596        5.148       -5.371       17.457       21.298       14.348      304.730      453.604      205.859        0.300        0.048       70.783        8.432        0.014      325.883       -9.608      869.301
12/12/2013  08:12:00     -102.089       -3.680       -7.571       16.248       17.161       16.893      263.987      294.486      285.374        0.567        0.042      102.155       11.893        0.014      325.876       -9.619      869.301
12/12/2013  08:13:00      -81.326       -6.491       -7.675       24.576       12.193       11.494      603.973      148.671      132.103        0.380        0.044       81.584       12.678        0.024      325.950       -9.500      869.293
12/12/2013  08:14:00      -55.364       13.387      -11.073       11.567       20.539       10.604      133.796      421.833      112.448        0.202        0.033       56.959        9.327        0.027      326.042       -9.352      869.290
12/12/2013  08:15:00      -79.480      -17.339       -6.443       25.216       26.220       15.411      635.856      687.496      237.504        0.411        0.078       81.350       11.144        0.019      326.056       -9.328      869.285
12/12/2013  08:16:00      -89.049      -28.239       -5.859       19.627       30.390       10.326      385.215      923.545      106.626        0.509        0.071       93.419        8.317        0.008      326.066       -9.312      869.280
12/12/2013  08:17:00     -119.366      -16.462      -19.794       18.102       20.436       15.833      327.674      417.628      250.681        0.795        0.050      120.496       11.665        0.009      326.082       -9.286      869.284
12/12/2013  08:18:00     -120.272       -1.679      -14.884       13.304       19.684       13.544      177.007      387.458      183.436        0.772        0.037      120.284        5.316        0.002      326.053       -9.333      869.285
12/12/2013  08:19:00      -94.458        4.868      -14.825       10.947        8.987        6.944      119.838       80.773       48.219        0.471        0.012       94.584        2.505        0.001      326.065       -9.313      869.280
12/12/2013  08:20:00      -87.906        3.208       -5.992       15.828       11.433       10.311      250.515      130.709      106.325        0.413        0.024       87.964        7.676        0.008      326.124       -9.217      869.267
12/12/2013  08:21:00      -90.823        1.863       -9.294       18.889       12.343       13.349      356.809      152.341      178.198        0.451        0.034       90.842        8.972        0.010      326.202       -9.092      869.272
12/12/2013  08:22:00     -103.191      -21.651       -7.357       16.627       22.292       14.929      276.466      496.946      222.882        0.608        0.050      105.438        8.204        0.006      326.217       -9.067      869.304
12/12/2013  08:23:00      -75.734      -14.461       -2.513       25.524       18.589       14.615      651.482      345.553      213.601        0.358        0.061       77.102       11.967        0.024      326.337       -8.873      869.326
12/12/2013  08:24:00      -53.391      -27.363       -5.721       21.357       13.805        9.225      456.105      190.574       85.109        0.218        0.037       59.994        4.571        0.006      326.314       -8.911      869.351
12/12/2013  08:25:00      -58.719      -22.967       -3.371       24.357       16.942       12.899      593.288      287.035      166.377        0.252        0.052       63.051       15.168        0.058      326.354       -8.844      869.345
12/12/2013  08:26:00      -57.063        5.498      -10.905       20.430       20.036       11.474      417.404      401.448      131.652        0.218        0.048       57.327        4.419        0.006      326.381       -8.802      869.343
12/12/2013  08:27:00      -74.603       -5.724       -6.768        6.593       11.360        8.697       43.466      129.047       75.631        0.295        0.012       74.822        3.758        0.003      326.374       -8.816      869.346
12/12/2013  08:28:00      -42.909       -1.012       -5.935       14.080       11.350        6.177      198.248      128.818       38.158        0.112        0.018       42.921        4.434        0.011      326.437       -8.713      869.354
12/12/2013  08:29:00      -34.782       -2.904       -4.674       12.858       13.238        8.514      165.329      175.246       72.492        0.083        0.021       34.903        4.522        0.017      326.475       -8.650      869.372
12/12/2013  08:30:00       -8.509       -8.052        2.247       13.298        8.394       11.669      176.827       70.459      136.161        0.026        0.019       11.715        8.033        0.470      326.836       -8.065      869.380
12/12/2013  08:31:00      -53.859      -12.783       -2.863       14.382        8.699        7.330      206.835       75.672       53.728        0.170        0.017       55.355        4.382        0.006      326.503       -8.605      869.378
12/12/2013  08:32:00      -61.361      -32.142       -7.991       15.414       18.702        8.774      237.604      349.763       76.989        0.276        0.033       69.270        4.090        0.003      326.511       -8.590      869.401
12/12/2013  08:33:00      -31.874      -27.892        0.546       39.575       17.257       16.237     1566.201      297.811      263.639        0.196        0.106       42.354       17.784        0.176      326.621       -8.414      869.417
12/12/2013  08:34:00      -43.711      -38.706        1.776       20.448       14.900       11.707      418.119      222.021      137.049        0.209        0.039       58.384       10.424        0.032      326.644       -8.375      869.414
12/12/2013  08:35:00      -18.525       -4.954        0.259       11.303        9.894        7.372      127.768       97.901       54.350        0.032        0.014       19.176        5.701        0.088      326.827       -8.080      869.426
12/12/2013  08:36:00       -9.053        7.124        6.297       11.913       16.025        9.624      141.928      256.808       92.620        0.033        0.025       11.519        4.739        0.169      327.131       -7.586      869.417
12/12/2013  08:37:00      -10.908       18.011       15.983       12.979       13.629       15.143      168.466      185.741      229.303        0.064        0.029       21.056        6.220        0.087      327.169       -7.526      869.415
12/12/2013  08:38:00      -35.944        1.091       14.875       19.569       22.379       17.872      382.954      500.834      319.417        0.136        0.060       35.961       13.204        0.135      326.995       -7.806      869.440
12/12/2013  08:39:00      -21.203       13.111       18.186       14.821       18.824       18.398      219.674      354.332      338.481        0.093        0.046       24.929       16.305        0.428      327.106       -7.627      869.461
12/12/2013  08:40:00       -7.346        7.600       33.897       10.141       16.559       15.610      102.833      274.204      243.676        0.094        0.031       10.570       13.745        1.691      327.383       -7.177      869.461
12/12/2013  08:41:00       -4.228        5.943       35.036        4.370       10.919       11.958       19.093      119.217      142.995        0.078        0.014        7.293        8.788        1.452      327.553       -6.899      869.449
12/12/2013  08:42:00       -0.940       -1.205       22.092        9.433        9.731       14.131       88.986       94.689      199.689        0.044        0.019        1.528        9.819       41.284      327.645       -6.752      869.449
12/12/2013  08:43:00       -3.563        6.518       24.803       12.115       12.391       13.447      146.780      153.527      180.828        0.058        0.024        7.428        8.908        1.438      327.505       -6.977      869.457
12/12/2013  08:44:00        3.232       12.810       21.122       15.997       14.305       13.405      255.905      204.643      179.707        0.063        0.032       13.212        7.117        0.290      327.468       -7.038      869.452
12/12/2013  08:45:00       -2.370       37.167       49.960       13.056       31.370       15.579      170.447      984.058      242.698        0.264        0.070       37.243       11.123        0.089      327.483       -7.015      869.451
12/12/2013  08:46:00       10.411       29.080       16.349       23.422       20.239       26.438      548.568      409.605      698.951        0.144        0.083       30.888       20.499        0.440      327.443       -7.079      869.437
12/12/2013  08:47:00       58.438       55.542        9.111       49.636       30.401       20.795     2463.703      924.206      432.418        0.520        0.191       80.622       14.815        0.034      327.195       -7.481      869.431
12/12/2013  08:48:00       12.949      -21.819       35.282       23.286       31.606       18.029      542.258      998.969      325.037        0.188        0.093       25.372       12.411        0.239      327.400       -7.149      869.442
12/12/2013  08:49:00        6.071       20.356       47.243       15.277       32.031       16.591      233.397     1025.964      275.275        0.211        0.077       21.242        9.727        0.210      327.633       -6.769      869.470
12/12/2013  08:50:00        9.307      -14.556       37.208       22.078       39.672       23.051      487.434     1573.901      531.359        0.214        0.130       17.277       25.670        2.208      327.445       -7.075      869.479
12/12/2013  08:51:00       45.321       70.451       56.806       25.879       33.324       27.058      669.731     1110.518      732.116        0.638        0.126       83.770       18.995        0.051      327.152       -7.550      869.456
12/12/2013  08:52:00       44.918       69.036       70.685       35.992       28.632       24.550     1295.390      819.808      602.701        0.725        0.136       82.362       16.341        0.039      327.225       -7.434      869.434
12/12/2013  08:53:00       51.790       29.644       42.028       34.809       38.710       26.523     1211.646     1498.463      703.482        0.437        0.171       59.674       26.673        0.200      327.193       -7.485      869.435
12/12/2013  08:54:00       30.786        1.497       26.336       36.623       23.405       28.761     1341.263      547.775      827.196        0.218        0.136       30.823       22.610        0.538      327.360       -7.214      869.446
12/12/2013  08:55:00       42.309       57.016       60.671       39.284       45.824       45.675     1543.234     2099.810     2086.185        0.722        0.286       70.999       41.736        0.346      327.199       -7.476      869.442
12/12/2013  08:56:00       28.394       71.409       70.519       45.774       36.687       26.510     2095.225     1345.904      702.786        0.751        0.207       76.847       24.214        0.099      327.155       -7.546      869.440
12/12/2013  08:57:00        9.709       72.747       74.585       18.909       29.600       15.372      357.538      876.142      236.303        0.621        0.073       73.393       17.425        0.056      327.264       -7.369      869.435
12/12/2013  08:58:00        2.269       74.826       95.563       20.965       31.739       19.135      439.517     1007.394      366.159        0.827        0.091       74.861       17.356        0.054      327.233       -7.420      869.409
12/12/2013  08:59:00       15.613       42.234       66.871       34.881       42.846       28.705     1216.714     1835.808      823.998        0.519        0.194       45.028       31.885        0.501      327.373       -7.193      869.418
12/12/2013  09:00:00       41.140       58.731       62.256       39.963       30.230       31.015     1597.045      913.849      961.945        0.624        0.174       71.706       29.169        0.165      327.290       -7.326      869.423
12/12/2013  09:01:00       77.263       59.113       56.187       44.408       31.260       44.693     1972.091      977.205     1997.507        0.878        0.247       97.282       29.357        0.091      327.206       -7.463      869.397
12/12/2013  09:02:00       37.094       73.979       64.244       61.370       34.852       44.610     3766.286     1214.657     1990.075        0.897        0.349       82.758       44.476        0.289      327.243       -7.404      869.362
12/12/2013  09:03:00       58.123       67.389       57.176       55.335       28.969       34.235     3061.935      839.206     1172.053        0.813        0.254       88.992       35.557        0.160      327.262       -7.373      869.363
12/12/2013  09:04:00        9.237       30.861       63.175       34.553       54.727       33.158     1193.926     2995.031     1099.429        0.516        0.264       32.214       22.138        0.472      327.574       -6.866      869.391
12/12/2013  09:05:00       38.896       40.148       52.787       46.390       42.508       29.755     2152.019     1806.907      885.373        0.538        0.242       55.899       29.370        0.276      327.416       -7.122      869.425
12/12/2013  09:06:00       18.974       42.625       68.477       36.876       61.241       37.642     1359.836     3750.400     1416.923        0.670        0.326       46.657       40.496        0.753      327.378       -7.185      869.425
12/12/2013  09:07:00       56.471       86.674       89.083       29.492       41.698       23.517      869.774     1738.744      553.057        1.090        0.158      103.447       23.719        0.053      327.222       -7.438      869.400
12/12/2013  09:08:00       11.764       77.502       87.917       28.659       42.204       29.925      821.353     1781.178      895.499        0.869        0.175       78.390       29.299        0.140      327.317       -7.284      869.363
12/12/2013  09:09:00       45.863       69.718       62.775       55.265       45.050       38.477     3054.236     2029.472     1480.501        0.873        0.328       83.451       40.645        0.237      327.342       -7.243      869.337
12/12/2013  09:10:00      124.280      102.083       -3.806       37.667       35.105       35.728     1418.783     1232.392     1276.501        1.490        0.196      160.830       17.787        0.012      327.182       -7.504      869.341
12/12/2013  09:11:00       85.391       90.561       34.979       40.074       33.196       30.717     1605.897     1101.992      943.524        1.018        0.183      124.470       16.598        0.018      327.214       -7.451      869.380
12/12/2013  09:12:00       26.066       43.637        9.800       22.463       26.951       29.686      504.581      726.339      881.230        0.240        0.106       50.829       17.531        0.119      327.429       -7.103      869.409
12/12/2013  09:13:00       60.289       81.016       21.062       38.043       32.276       37.700     1447.306     1041.729     1421.322        0.728        0.196      100.987       25.542        0.064      327.383       -7.177      869.417
12/12/2013  09:14:00       12.548       71.237       65.177       32.935       33.663       30.910     1084.722     1133.213      955.401        0.633        0.159       72.333       23.954        0.110      327.663       -6.720      869.417
12/12/2013  09:15:00       95.330       61.809       13.278       39.870       23.979       31.995     1589.636      574.977     1023.689        0.814        0.159      113.614       20.357        0.032      327.333       -7.259      869.412
12/12/2013  09:16:00       58.305       65.522       23.284       38.538       27.122       37.241     1485.172      735.592     1386.908        0.592        0.180       87.707       32.384        0.136      327.537       -6.926      869.402
12/12/2013  09:17:00       45.955       75.849       57.187       51.246       36.017       49.158     2626.133     1297.215     2416.529        0.874        0.317       88.685       38.566        0.189      327.607       -6.812      869.400
12/12/2013  09:18:00       13.559       35.295       72.949       39.975       50.941       29.721     1597.993     2594.949      883.331        0.591        0.254       37.810       28.615        0.573      327.785       -6.523      869.403
12/12/2013  09:19:00       65.698       77.046       76.957       50.650       42.138       32.482     2565.378     1775.586     1055.105        1.078        0.270      101.254       26.233        0.067      327.449       -7.070      869.414
12/12/2013  09:20:00       95.496       88.277       22.686       34.096       27.112       32.424     1162.565      735.079     1051.312        1.019        0.147      130.048       23.691        0.033      327.264       -7.368      869.424
12/12/2013  09:21:00       26.465       40.090       14.449       23.326       42.903       30.950      544.095     1840.696      957.900        0.293        0.167       48.038       15.504        0.104      327.521       -6.952      869.411
12/12/2013  09:22:00       -8.633       17.949       50.562       16.517       20.925       12.897      272.826      437.851      166.333        0.191        0.044       19.917       12.717        0.408      328.059       -6.076      869.399
12/12/2013  09:23:00      -10.516      -12.394       18.399       17.760       44.458       23.271      315.426     1976.542      541.534        0.172        0.142       16.254       19.744        1.476      327.920       -6.303      869.420
12/12/2013  09:24:00       23.070       31.264       17.252       28.912       17.560       23.010      835.887      308.345      529.454        0.174        0.084       38.854       12.167        0.098      327.904       -6.329      869.434
12/12/2013  09:25:00       45.180       45.244       16.485       25.378       28.543       29.285      644.051      814.678      857.622        0.334        0.116       63.940       12.470        0.038      327.887       -6.356      869.450
12/12/2013  09:26:00       17.972       54.974        3.566       28.269       39.086       28.280      799.124     1527.677      799.782        0.324        0.156       57.837       25.132        0.189      327.944       -6.264      869.447
12/12/2013  09:27:00       21.840       46.861       58.082       34.830       30.789       28.257     1213.148      947.957      798.477        0.450        0.148       51.700       13.763        0.071      328.031       -6.122      869.432
12/12/2013  09:28:00        7.223       44.356       59.237       24.648       32.409       20.989      607.518     1050.368      440.558        0.381        0.105       44.940       17.636        0.154      327.998       -6.175      869.419
12/12/2013  09:29:00       -7.374       65.577       79.067       16.998       33.866       20.984      288.947     1146.892      440.326        0.624        0.094       65.990       18.203        0.076      328.182       -5.875      869.434
12/12/2013  09:30:00       29.203       33.652       56.789       39.089       43.780       30.237     1527.982     1916.660      914.301        0.478        0.218       44.556       30.410        0.466      327.960       -6.238      869.446
12/12/2013  09:31:00       56.507       70.211       59.142       35.966       31.142       33.762     1293.578      969.798     1139.843        0.751        0.170       90.125       21.066        0.055      327.731       -6.611      869.431
12/12/2013  09:32:00       44.341       75.618       89.821       42.310       49.702       34.270     1790.167     2470.256     1174.416        1.059        0.272       87.660       37.252        0.181      327.618       -6.794      869.434
12/12/2013  09:33:00       74.724       70.444       58.996       48.646       34.469       36.619     2366.389     1188.131     1340.938        0.946        0.245      102.693       29.693        0.084      327.643       -6.753      869.457
12/12/2013  09:34:00        0.513       40.872       73.761       34.203       36.816       25.892     1169.863     1355.400      670.378        0.515        0.160       40.875       21.886        0.287      328.004       -6.166      869.469
12/12/2013  09:35:00       14.343       79.663       98.231       39.143       44.506       32.656     1532.173     1980.764     1066.386        1.039        0.229       80.944       31.139        0.148      327.930       -6.286      869.475
12/12/2013  09:36:00       27.929       65.341       65.582       65.868       38.878       40.301     4338.651     1511.490     1624.209        0.841        0.374       71.060       40.266        0.321      327.962       -6.234      869.488
12/12/2013  09:37:00       87.857       63.561       41.814       42.007       29.839       35.046     1764.547      890.344     1228.213        0.869        0.194      108.438       25.251        0.054      327.927       -6.291      869.495
12/12/2013  09:38:00       97.603       73.740        5.633       30.834       23.854       29.064      950.754      569.013      844.688        0.868        0.118      122.328       22.420        0.034      327.524       -6.947      869.502
12/12/2013  09:39:00       80.889       75.447       -0.254       19.027       16.754       17.491      362.040      280.702      305.942        0.659        0.047      110.613       12.272        0.012      327.583       -6.851      869.504
12/12/2013  09:40:00       60.061       40.501       -0.846       13.446       11.865       13.838      180.797      140.784      191.491        0.288        0.026       72.440        8.877        0.015      327.432       -7.096      869.508
12/12/2013  09:41:00       45.170       17.372       -4.182       32.487       27.864       11.258     1055.405      776.405      126.736        0.216        0.098       48.395       13.466        0.077      327.513       -6.965      869.512
12/12/2013  09:42:00       32.189       15.923        4.684       21.028       27.142       26.486      442.170      736.704      701.485        0.160        0.094       35.912       15.406        0.184      327.727       -6.618      869.504
12/12/2013  09:43:00        4.757       24.655       28.592       29.354       34.555       30.251      861.629     1194.054      915.153        0.221        0.149       25.109       16.065        0.409      328.286       -5.708      869.490
12/12/2013  09:44:00        9.184       -9.292       15.804       21.355       29.254       22.934      456.042      855.767      525.947        0.113        0.092       13.065       16.944        1.682      328.335       -5.627      869.502
12/12/2013  09:45:00        0.950       27.994       49.168       17.814       29.584       23.215      317.336      875.229      538.944        0.247        0.087       28.010       19.418        0.481      328.505       -5.349      869.514
12/12/2013  09:46:00        0.647      -13.946       44.420       17.019       56.167       27.213      289.649     3154.734      740.520        0.318        0.209       13.961       29.628        4.504      328.500       -5.358      869.524
12/12/2013  09:47:00       20.465      -24.404       34.493       37.480       38.100       31.058     1404.722     1451.634      964.597        0.301        0.191       31.849       24.793        0.606      328.579       -5.230      869.540
12/12/2013  09:48:00       53.259      -96.986       -8.775       36.037       53.488       28.204     1298.677     2860.928      795.458        0.864        0.248      110.647       17.136        0.024      328.202       -5.844      869.565
12/12/2013  09:49:00       37.753      -32.245       42.718       48.010       68.324       41.551     2304.951     4668.223     1726.473        0.649        0.435       49.649       49.848        1.008      328.345       -5.610      869.570
12/12/2013  09:50:00       22.728       40.206       53.871       46.027       48.534       39.570     2118.519     2355.519     1565.808        0.554        0.302       46.185       34.265        0.550      328.407       -5.509      869.563
12/12/2013  09:51:00        3.921       34.832       75.349       31.473       41.264       26.932      990.559     1702.734      725.348        0.516        0.171       35.052       24.400        0.485      328.516       -5.332      869.567
12/12/2013  09:52:00       68.298       85.765       47.305       65.097       36.955       47.806     4237.614     1365.652     2285.457        1.107        0.394      109.637       44.611        0.166      328.280       -5.718      869.558
12/12/2013  09:53:00       95.564      110.677      -12.244       49.976       27.846       32.675     2497.645      775.385     1067.656        1.294        0.217      146.226       15.149        0.011      327.977       -6.210      869.561
12/12/2013  09:54:00       41.547       48.100       51.473       41.982       51.253       46.083     1762.502     2626.915     2123.651        0.660        0.326       63.559       37.797        0.354      328.162       -5.909      869.578
12/12/2013  09:55:00       57.712        5.341       38.694       31.016       68.344       33.056      962.006     4670.894     1092.708        0.579        0.336       57.958       42.253        0.531      328.109       -5.995      869.578
12/12/2013  09:56:00       52.047       16.644       61.402       44.141       61.311       36.409     1948.407     3759.079     1325.627        0.689        0.352       54.644       42.793        0.613      328.214       -5.824      869.560
12/12/2013  09:57:00       76.563       66.152       45.478       32.559       30.243       41.884     1060.069      914.657     1754.234        0.802        0.186      101.183       28.894        0.082      328.062       -6.072      869.558
12/12/2013  09:58:00      128.080       92.732       26.980       27.470       21.564       30.728      754.592      464.994      944.195        1.395        0.108      158.125       20.251        0.016      327.910       -6.319      869.571
12/12/2013  09:59:00       58.850       85.959       51.722       49.886       30.762       44.579     2488.596      946.317     1987.290        0.947        0.271      104.175       38.757        0.138      328.340       -5.619      869.546
12/12/2013  10:00:00        9.767       81.001       95.042       36.791       39.050       23.237     1353.583     1524.905      539.950        0.955        0.171       81.588       21.873        0.072      328.597       -5.198      869.515
12/12/2013  10:01:00       69.651       94.538       81.243       48.487       43.276       38.037     2351.000     1872.800     1446.799        1.303        0.284      117.425       34.083        0.084      328.274       -5.726      869.508
12/12/2013  10:02:00       76.825      100.865       73.797       44.507       34.087       35.724     1980.861     1161.950     1276.207        1.297        0.221      126.790       12.458        0.010      328.231       -5.796      869.510
12/12/2013  10:03:00       87.713       73.916       56.174       37.131       31.961       43.928     1378.690     1021.526     1929.680        1.032        0.216      114.705       25.387        0.049      328.227       -5.802      869.515
12/12/2013  10:04:00       83.123       72.721       43.154       36.656       23.776       29.798     1343.646      565.281      887.902        0.843        0.140      110.443       10.732        0.009      328.186       -5.870      869.488
12/12/2013  10:05:00       69.060       61.262       12.698       30.375       19.881       28.391      922.657      395.236      806.041        0.540        0.106       92.317       13.750        0.022      328.183       -5.874      869.460
12/12/2013  10:06:00       47.415       53.135        6.132       20.157       19.204       30.475      406.313      368.792      928.715        0.341        0.085       71.215       15.164        0.045      328.200       -5.846      869.453
12/12/2013  10:07:00       34.669      -14.927       24.379       34.708       37.774       22.553     1204.667     1426.910      508.623        0.258        0.157       37.746       10.519        0.078      328.536       -5.299      869.483
12/12/2013  10:08:00       25.185       87.286       84.279       46.558       64.838       49.754     2167.660     4203.982     2475.431        1.210        0.442       90.847       44.964        0.245      328.472       -5.402      869.496
12/12/2013  10:09:00       79.833      121.654       85.730       65.623       50.747       54.882     4306.347     2575.275     3012.060        1.921        0.495      145.509       41.663        0.082      328.338       -5.624      869.468
12/12/2013  10:10:00       92.020       78.365       53.022       69.159       51.682       51.747     4782.946     2671.032     2677.800        1.377        0.507      120.867       43.860        0.132      328.340       -5.619      869.450
12/12/2013  10:11:00       23.336       58.324       77.295       32.476       36.171       22.089     1054.701     1308.355      487.923        0.639        0.143       62.820       20.550        0.107      328.533       -5.303      869.459
12/12/2013  10:12:00       58.272       24.099       56.923       21.998       26.347       30.936      483.931      694.158      957.040        0.468        0.107       63.058       12.708        0.041      328.518       -5.328      869.481
12/12/2013  10:13:00       22.880       32.553       13.340       19.178       19.758       23.747      367.802      390.369      563.940        0.154        0.066       39.790       13.322        0.112      328.411       -5.503      869.480
12/12/2013  10:14:00       43.432       83.137       85.317       63.511       57.404       44.572     4033.586     3295.256     1986.657        1.269        0.466       93.798       40.715        0.188      328.712       -5.012      869.457
12/12/2013  10:15:00       43.381       48.128       51.623       37.065       29.272       25.595     1373.833      856.854      655.087        0.487        0.144       64.794       19.589        0.091      328.550       -5.278      869.447
12/12/2013  10:16:00       21.871       66.346       78.338       36.765       37.012       32.946     1351.638     1369.851     1085.427        0.741        0.190       69.858       28.551        0.167      328.722       -4.995      869.429
12/12/2013  10:17:00       57.899       67.126       68.473       39.793       31.690       30.863     1583.494     1004.250      952.498        0.804        0.177       88.646       27.210        0.094      328.661       -5.096      869.426
12/12/2013  10:18:00       96.215       75.720        4.212       25.831       29.570       28.824      667.263      874.366      830.822        0.869        0.119      122.437        7.789        0.004      328.356       -5.593      869.423
12/12/2013  10:19:00       28.769      112.349       -0.636       37.697       39.446       29.796     1421.033     1555.973      887.796        0.866        0.193      115.974       27.017        0.054      328.692       -5.045      869.426
12/12/2013  10:20:00       28.830       57.532       11.580       43.258       49.284       25.156     1871.257     2428.870      632.836        0.460        0.247       64.352       25.214        0.154      328.947       -4.630      869.424
12/12/2013  10:21:00       43.928       65.124        7.887       31.933       41.470       25.667     1019.737     1719.730      658.783        0.481        0.170       78.554       21.773        0.077      328.796       -4.874      869.413
12/12/2013  10:22:00       50.400       72.614       -3.140       52.787       42.598       31.951     2786.508     1814.552     1020.879        0.672        0.281       88.391       29.420        0.111      328.832       -4.816      869.398
12/12/2013  10:23:00       78.333       97.034       75.463       50.577       41.096       39.461     2558.011     1688.913     1557.193        1.352        0.290      124.707       28.462        0.052      328.784       -4.895      869.398
12/12/2013  10:24:00      100.020       72.704       50.057       57.624       49.449       50.118     3320.577     2445.242     2511.785        1.303        0.414      123.652       38.661        0.098      328.776       -4.908      869.405
12/12/2013  10:25:00       49.447       69.705       17.022       24.815       39.915       28.595      615.797     1593.246      817.692        0.531        0.151       85.462       18.046        0.045      328.691       -5.046      869.411
12/12/2013  10:26:00       73.459       57.398       14.515       37.968       30.900       37.138     1441.559      954.803     1379.242        0.634        0.189       93.224       26.130        0.079      328.671       -5.080      869.375
12/12/2013  10:27:00       47.959       51.327       58.293       50.260       35.527       27.339     2526.114     1262.149      747.400        0.643        0.227       70.246        7.837        0.012      328.881       -4.738      869.353
12/12/2013  10:28:00       27.509       16.981       54.978       51.173       34.034       36.529     2618.631     1158.317     1334.354        0.459        0.256       32.328       33.020        1.043      328.960       -4.607      869.361
12/12/2013  10:29:00       24.906       47.756       84.100       40.895       40.803       27.044     1672.425     1664.847      731.359        0.702        0.203       53.860       21.465        0.159      328.922       -4.669      869.367
12/12/2013  10:30:00       50.327       73.491       70.522       69.244       47.748       47.227     4794.667     2279.839     2230.388        1.110        0.465       89.072       41.674        0.219      328.927       -4.661      869.367
12/12/2013  10:31:00       91.445       76.511       50.526       46.686       51.177       37.642     2179.552     2619.113     1416.890        1.149        0.311      119.231       30.370        0.065      328.638       -5.134      869.353
12/12/2013  10:32:00       12.012       30.771       34.635       37.372       44.844       34.669     1396.661     2010.986     1201.954        0.345        0.230       33.032       27.522        0.694      329.154       -4.292      869.331
12/12/2013  10:33:00       50.422       76.031       79.224       56.678       51.064       33.372     3212.356     2607.576     1113.718        1.077        0.347       91.231       24.411        0.072      328.951       -4.622      869.334
12/12/2013  10:34:00      118.493      123.817       62.509       57.911       49.606       50.941     3353.668     2460.785     2594.985        2.084        0.420      171.381       36.165        0.045      328.699       -5.034      869.328
12/12/2013  10:35:00       94.901       89.405       81.971       38.282       41.017       42.964     1465.501     1682.389     1845.874        1.436        0.250      130.382       32.371        0.062      328.697       -5.036      869.331
12/12/2013  10:36:00       53.763       46.823       54.965       51.341       44.010       35.207     2635.930     1936.858     1239.540        0.696        0.291       71.294       25.108        0.124      328.832       -4.816      869.330
12/12/2013  10:37:00       66.823       95.766       77.988       43.033       34.607       32.426     1851.882     1197.652     1051.459        1.191        0.205      116.775       16.006        0.019      328.948       -4.628      869.320
12/12/2013  10:38:00       85.476       84.045       67.100       33.212       49.387       44.264     1103.045     2439.063     1959.300        1.219        0.275      119.874       35.985        0.090      328.732       -4.979      869.325
12/12/2013  10:39:00       92.704       49.411       57.654       61.507       62.725       51.313     3783.165     3934.406     2633.004        1.235        0.518      105.050       45.214        0.185      328.889       -4.723      869.317
12/12/2013  10:40:00       78.208       85.415       61.927       62.734       36.215       39.054     3935.497     1311.519     1525.200        1.201        0.339      115.811       36.615        0.100      328.884       -4.733      869.306
12/12/2013  10:41:00       27.452       79.287       98.533       41.249       51.919       28.071     1701.478     2695.549      787.998        1.097        0.259       83.905       32.340        0.149      329.213       -4.195      869.274
12/12/2013  10:42:00       65.079       96.261       89.288       56.020       47.600       29.899     3138.208     2265.740      893.940        1.388        0.315      116.196       26.374        0.052      328.950       -4.624      869.246
12/12/2013  10:43:00       -3.060       39.257       77.506       34.026       56.773       42.063     1157.752     3223.163     1769.258        0.685        0.308       39.376       40.285        1.047      329.359       -3.956      869.226
12/12/2013  10:44:00       20.143       36.005       68.198       43.228       94.418       49.230     1868.666     8914.721     2423.560        0.978        0.660       41.256       49.808        1.458      328.953       -4.618      869.220
12/12/2013  10:45:00       57.824      -35.469       17.227       43.098       50.755       44.090     1857.409     2576.027     1943.922        0.564        0.319       67.836       47.010        0.480      329.183       -4.243      869.218
12/12/2013  10:46:00        3.301       56.978       93.066       31.021       42.924       34.810      962.330     1842.478     1211.708        0.797        0.201       57.074       35.423        0.385      329.363       -3.948      869.192
12/12/2013  10:47:00       38.326       44.351       71.551       42.238       66.204       54.686     1784.077     4382.912     2990.547        0.885        0.458       58.616       54.275        0.857      329.099       -4.380      869.183
12/12/2013  10:48:00      155.316      134.387       71.681       55.066       41.239       48.030     3032.260     1700.693     2306.845        2.718        0.352      205.385       36.035        0.031      328.809       -4.856      869.160
12/12/2013  10:49:00      117.979       94.597       49.583       37.165       35.396       45.758     1381.272     1252.886     2093.831        1.503        0.236      151.221       36.887        0.060      328.730       -4.982      869.176
12/12/2013  10:50:00      108.794      100.578       63.160       38.205       31.071       38.736     1459.657      965.416     1500.481        1.493        0.196      148.162       24.243        0.027      328.873       -4.750      869.181
12/12/2013  10:51:00       63.672       78.385       74.914       28.862       27.552       24.358      833.041      759.106      593.320        0.900        0.109      100.986       12.909        0.016      329.080       -4.410      869.203
12/12/2013  10:52:00       23.780       72.598       86.578       44.206       60.097       29.977     1954.199     3611.628      898.598        0.990        0.323       76.394       28.357        0.138      329.261       -4.116      869.191
12/12/2013  10:53:00       25.843       -4.188       31.393       35.191       65.564       45.037     1238.386     4298.599     2028.295        0.462        0.378       26.180       36.838        1.980      329.327       -4.008      869.158
12/12/2013  10:54:00       48.941     -100.605       12.041       54.030       70.573       46.659     2919.225     4980.549     2177.037        1.137        0.504      111.878       50.115        0.201      329.334       -3.996      869.144
12/12/2013  10:55:00       83.825     -107.958        2.407       59.967       59.174       44.169     3596.026     3501.568     1950.888        1.387        0.452      136.680       38.533        0.079      329.131       -4.330      869.135
12/12/2013  10:56:00        5.513       -3.763       44.663       28.522       37.422       33.491      813.527     1400.429     1121.618        0.269        0.167        6.675       22.341       11.203      329.612       -3.543      869.120
12/12/2013  10:57:00       -2.412       20.599       54.405       22.493       38.980       23.575      505.915     1519.413      555.760        0.299        0.129       20.740       20.375        0.965      329.827       -3.190      869.084
12/12/2013  10:58:00       35.819       44.825       55.224       44.669       38.527       25.187     1995.341     1484.342      634.371        0.523        0.206       57.379       14.961        0.068      329.608       -3.547      869.062
12/12/2013  10:59:00       51.270       61.593       66.260       74.092       60.742       40.867     5489.667     3689.620     1670.086        1.083        0.542       80.139       33.681        0.177      329.377       -3.926      869.046
12/12/2013  11:00:00       60.544       83.293       78.713       57.318       49.479       41.054     3285.366     2448.139     1685.431        1.211        0.371      102.972       39.427        0.147      329.225       -4.174      869.017
12/12/2013  11:01:00       38.695       54.034       41.723       50.631       39.026       39.404     2563.451     1523.027     1552.671        0.590        0.282       66.461       22.937        0.119      329.340       -3.988      869.002
12/12/2013  11:02:00       69.425       49.402       39.104       63.908       45.647       40.284     4084.170     2083.662     1622.808        0.829        0.390       85.208       24.324        0.081      329.465       -3.783      868.988
12/12/2013  11:03:00       96.492       90.902       58.942       55.117       54.764       48.850     3037.921     2999.128     2386.323        1.473        0.421      132.566       29.755        0.050      329.243       -4.147      868.978
12/12/2013  11:04:00       75.134       55.775       74.249       82.977       57.089       51.857     6885.121     3259.185     2689.193        1.355        0.642       93.573       53.855        0.331      329.461       -3.789      868.955
12/12/2013  11:05:00      100.878       68.962       27.527       44.938       47.238       37.843     2019.395     2231.421     1432.085        1.069        0.284      122.197       25.666        0.044      329.086       -4.402      868.918
12/12/2013  11:06:00      125.880       77.341       23.540       49.583       37.574       38.940     2458.500     1411.831     1516.305        1.388        0.269      147.741       20.665        0.020      329.405       -3.881      868.891
12/12/2013  11:07:00       90.989       69.531       66.522       66.257       58.056       52.263     4389.997     3370.497     2731.465        1.401        0.525      114.514       36.328        0.101      329.479       -3.759      868.879
12/12/2013  11:08:00       64.276      127.917      107.893       84.208       48.810       54.855     7090.968     2382.392     3009.056        2.231        0.624      143.158       50.317        0.124      329.288       -4.072      868.877
12/12/2013  11:09:00       42.963       21.778       34.444       37.325       36.608       37.018     1393.172     1340.141     1370.356        0.380        0.205       48.167       17.291        0.129      329.346       -3.978      868.891
12/12/2013  11:10:00       78.775       95.065       88.839       76.074       49.686       43.379     5787.293     2468.696     1881.772        1.663        0.507      123.462       40.356        0.107      329.452       -3.804      868.874
12/12/2013  11:11:00       76.452       40.132       66.773       57.236       62.667       33.340     3275.912     3927.197     1111.529        1.011        0.416       86.345       32.956        0.146      329.369       -3.939      868.842
12/12/2013  11:12:00       22.372       56.207       74.669       35.971       70.020       42.797     1293.893     4902.778     1831.543        0.863        0.401       60.495       47.973        0.629      329.669       -3.449      868.810
12/12/2013  11:13:00        6.423       27.445       42.618       41.353       36.444       35.473     1710.036     1328.157     1258.340        0.345        0.215       28.186       22.241        0.623      329.749       -3.320      868.831
12/12/2013  11:14:00       15.863       19.636       41.847       43.095       43.606       33.662     1857.157     1901.455     1133.116        0.364        0.245       25.243       34.651        1.884      329.787       -3.256      868.845
12/12/2013  11:15:00       46.989       44.314       56.146       49.683       77.852       34.968     2468.354     6060.919     1222.732        0.854        0.488       64.589       25.841        0.160      329.686       -3.421      868.791
12/12/2013  11:16:00       45.596      105.020      106.615       54.900       57.538       44.553     3014.037     3310.643     1984.985        1.639        0.415      114.491       36.214        0.100      329.576       -3.602      868.729
12/12/2013  11:17:00       95.079       74.080       24.834       54.557       47.883       39.376     2976.487     2292.803     1550.471        1.098        0.341      120.532       23.060        0.037      329.551       -3.643      868.721
12/12/2013  11:18:00       11.483      -58.866       -4.520       61.796       93.398       32.362     3818.732     8723.176     1047.297        0.860        0.679       59.975       41.752        0.485      329.512       -3.706      868.737
12/12/2013  11:19:00       65.683      -92.154      -11.004       30.796       50.312       21.871      948.401     2531.348      478.339        0.844        0.198      113.166       19.235        0.029      329.284       -4.078      868.743
12/12/2013  11:20:00       15.792      -22.482       19.867       23.270       50.769       27.105      541.472     2577.541      734.672        0.250        0.193       27.474       24.146        0.772      329.731       -3.347      868.696
12/12/2013  11:21:00       88.814       71.253       48.284       62.467       39.411       34.706     3902.148     1553.264     1204.531        1.098        0.333      113.864       15.088        0.018      329.672       -3.443      868.649
12/12/2013  11:22:00       34.410        7.535       45.660       53.849       64.638       44.240     2899.668     4178.091     1957.166        0.618        0.452       35.225       32.040        0.827      329.953       -2.983      868.636
12/12/2013  11:23:00       57.975      -95.621       12.860       52.351       89.051       57.588     2740.607     7930.032     3316.369        1.333        0.699      111.823       69.857        0.390      329.531       -3.674      868.629
12/12/2013  11:24:00      109.042      -70.699      -11.031       39.480       44.977       29.603     1558.643     2022.895      876.313        1.073        0.223      129.956       31.889        0.060      329.322       -4.015      868.609
12/12/2013  11:25:00       73.858      -55.223       15.097       48.317       69.216       38.134     2334.484     4790.873     1454.164        0.865        0.429       92.220       47.811        0.269      329.609       -3.547      868.575
12/12/2013  11:26:00       54.176       38.063       61.285       45.643       46.743       35.756     2083.283     2184.883     1278.524        0.684        0.277       66.210       28.059        0.180      329.729       -3.350      868.537
12/12/2013  11:27:00       51.992      -38.783       33.327       51.290       68.836       50.895     2630.680     4738.463     2590.277        0.764        0.498       64.863       54.866        0.715      329.690       -3.413      868.514
12/12/2013  11:28:00       18.975      -43.147        8.337       29.576       59.582       41.105      874.732     3550.030     1689.627        0.420        0.306       47.135       39.942        0.718      329.538       -3.663      868.484
12/12/2013  11:29:00       26.175       24.525       47.627       36.059       25.711       17.981     1300.250      661.066      323.332        0.292        0.114       35.869       16.084        0.201      329.821       -3.199      868.482
12/12/2013  11:30:00       38.256       35.404       20.019       58.085       51.852       28.163     3373.897     2688.659      793.159        0.499        0.343       52.125       12.985        0.062      329.752       -3.312      868.460
12/12/2013  11:31:00       79.106       88.203       51.296       57.967       47.651       54.168     3360.137     2270.638     2934.205        1.262        0.428      118.480       31.046        0.069      329.816       -3.208      868.403
12/12/2013  11:32:00       76.223       65.241       -1.516       60.454       47.052       35.771     3654.660     2213.921     1279.540        0.861        0.357      100.332       18.118        0.033      329.578       -3.598      868.380
12/12/2013  11:33:00       61.988       36.585        4.488       36.509       31.629       29.983     1332.927     1000.364      898.961        0.422        0.162       71.979       21.328        0.088      329.719       -3.368      868.337
12/12/2013  11:34:00       61.389       46.252       42.234       60.878       49.620       38.853     3706.161     2462.155     1509.592        0.768        0.384       76.862       31.954        0.173      329.953       -2.983      868.294
12/12/2013  11:35:00       64.684       75.499       44.173       57.117       41.923       36.344     3262.392     1757.559     1320.880        0.909        0.317       99.419       33.094        0.111      329.878       -3.106      868.281
12/12/2013  11:36:00       19.189       74.419       71.710       43.375       41.182       32.167     1881.365     1695.978     1034.736        0.783        0.231       76.853       13.991        0.033      330.053       -2.819      868.278
12/12/2013  11:37:00       20.243       96.500      107.154       68.659       54.853       40.721     4714.012     3008.882     1658.187        1.529        0.469       98.600       41.314        0.176      329.851       -3.151      868.285
12/12/2013  11:38:00       73.736      104.721       98.385       61.585       63.496       56.039     3792.746     4031.784     3140.417        1.852        0.548      128.076       46.491        0.132      329.659       -3.466      868.268
12/12/2013  11:39:00       66.393       88.708      102.915       62.048       49.904       35.811     3849.946     2490.377     1282.447        1.524        0.381      110.802       30.059        0.074      329.645       -3.489      868.250
12/12/2013  11:40:00       64.825      122.964      106.102       37.750       41.516       36.167     1425.042     1723.575     1308.033        1.752        0.223      139.005       22.283        0.026      329.593       -3.573      868.198
12/12/2013  11:41:00       51.609       51.020       40.981       43.299       38.750       30.238     1874.810     1501.562      914.318        0.562        0.215       72.571       18.637        0.066      329.708       -3.386      868.187
12/12/2013  11:42:00       89.540       58.417       38.799       45.950       31.845       32.883     2111.441     1014.126     1081.309        0.857        0.210      106.911       26.448        0.061      329.856       -3.144      868.173
12/12/2013  11:43:00      114.906       90.573       17.603       44.708       36.639       41.197     1998.848     1342.420     1697.163        1.338        0.252      146.311       23.151        0.025      329.595       -3.569      868.145
12/12/2013  11:44:00       47.877       51.532       56.119       47.312       72.635       55.560     2238.443     5275.844     3086.925        0.935        0.530       70.340       45.514        0.419      329.950       -2.990      868.114
12/12/2013  11:45:00       99.955       95.836       67.055       60.815       39.404       36.456     3698.504     1552.675     1329.075        1.512        0.329      138.476       29.142        0.044      329.887       -3.093      868.091
12/12/2013  11:46:00       51.944       62.938       32.774       50.672       47.692       46.204     2567.640     2274.498     2134.817        0.735        0.349       81.605       29.766        0.133      330.098       -2.748      868.087
12/12/2013  11:47:00       93.362       91.258       21.156       72.968       58.679       56.332     5324.361     3443.232     3173.322        1.471        0.597      130.554       49.738        0.145      329.794       -3.246      868.056
12/12/2013  11:48:00       89.101       92.427        3.288       39.139       27.474       33.913     1531.882      754.800     1150.111        0.996        0.172      128.381       22.380        0.030      329.679       -3.433      868.039
12/12/2013  11:49:00       41.622       51.840       12.008       35.509       26.782       33.398     1260.855      717.267     1115.433        0.383        0.155       66.482       26.552        0.160      329.886       -3.094      868.012
12/12/2013  11:50:00       56.435       48.767       33.819       43.635       40.748       32.352     1904.005     1660.436     1046.640        0.566        0.231       74.587        9.228        0.015      329.976       -2.946      868.004
12/12/2013  11:51:00       52.484       62.391       96.065       63.110       46.246       39.888     3982.908     2138.712     1591.066        1.179        0.386       81.531       38.698        0.225      329.972       -2.953      867.998
12/12/2013  11:52:00      102.438       95.785       93.682       45.818       49.524       39.630     2099.293     2452.594     1570.521        1.728        0.306      140.244       33.787        0.058      329.755       -3.308      867.964
12/12/2013  11:53:00       56.773       92.122       93.843       51.178       43.816       39.935     2619.219     1919.832     1594.798        1.332        0.307      108.211       20.068        0.034      329.928       -3.025      867.931
12/12/2013  11:54:00       53.463       34.286       40.565       43.325       44.132       30.497     1877.019     1947.607      930.045        0.522        0.238       63.512       30.801        0.235      329.789       -3.254      867.920
12/12/2013  11:55:00       96.955       66.508        6.454       60.960       37.470       41.321     3716.140     1404.021     1707.393        1.035        0.341      117.574       24.487        0.043      329.810       -3.218      867.938
12/12/2013  11:56:00       94.609       86.354       13.692       44.608       41.494       45.165     1989.837     1721.764     2039.918        1.117        0.288      128.093       34.255        0.072      329.826       -3.193      867.935
12/12/2013  11:57:00       67.177       95.563        0.263       34.587       39.276       38.717     1196.277     1542.631     1498.972        0.894        0.212      116.812       24.552        0.044      329.970       -2.957      867.917
12/12/2013  11:58:00       12.428       47.201       23.131       51.524       49.447       33.910     2654.755     2444.976     1149.904        0.458        0.312       48.810       21.480        0.194      330.290       -2.432      867.879
12/12/2013  11:59:00       -4.749       15.444       55.483       27.746       55.904       37.122      769.854     3125.241     1378.014        0.431        0.264       16.157       18.546        1.318      330.421       -2.216      867.864
12/12/2013  12:00:00       60.573       79.962       57.090       49.885       38.723       60.689     2488.544     1499.451     3683.105        1.050        0.384      100.315       32.882        0.107      330.046       -2.831      867.871
12/12/2013  12:01:00       70.539       36.545       49.951       43.113       43.865       46.371     1858.723     1924.113     2150.251        0.737        0.297       79.443       39.931        0.253      329.996       -2.913      867.865
12/12/2013  12:02:00       56.269       77.166       76.470       50.218       60.496       44.716     2521.803     3659.720     1999.539        1.157        0.409       95.503       43.853        0.211      329.961       -2.972      867.857
12/12/2013  12:03:00      113.566       83.254       39.972       32.785       31.153       39.257     1074.854      970.499     1541.095        1.251        0.179      140.813       27.516        0.038      329.876       -3.109      867.835
12/12/2013  12:04:00       90.648       44.518        7.026       35.684       31.594       31.436     1273.375      998.165      988.201        0.675        0.163      100.990       19.832        0.039      329.908       -3.058      867.837
12/12/2013  12:05:00       51.060      -18.863       14.890       24.589       26.006       22.406      604.598      676.331      502.038        0.248        0.089       54.433       20.123        0.137      329.853       -3.148      867.842
12/12/2013  12:06:00       38.960       13.671       22.200       30.252       35.880       33.667      915.202     1287.344     1133.439        0.277        0.167       41.289       27.358        0.439      330.161       -2.645      867.817
12/12/2013  12:07:00       22.805       32.230       37.608       21.244       34.201       23.229      451.315     1169.741      539.567        0.257        0.108       39.482       13.714        0.121      330.253       -2.493      867.773
12/12/2013  12:08:00        8.867        1.407       23.713       20.443       24.005       16.190      417.912      576.229      262.102        0.095        0.063        8.978       17.126        3.639      330.604       -1.917      867.754
12/12/2013  12:09:00       12.967      -16.113        3.369       29.332       35.795       30.149      860.348     1281.316      908.971        0.174        0.153       20.682       25.238        1.489      330.601       -1.921      867.757
12/12/2013  12:10:00       43.956       70.689       68.962       45.240       25.491       29.603     2046.667      649.807      876.316        0.763        0.179       83.241       21.773        0.068      330.180       -2.611      867.735
12/12/2013  12:11:00       88.197       80.662       54.066       35.796       24.414       34.418     1281.325      596.056     1184.595        1.013        0.153      119.520       17.708        0.022      329.989       -2.925      867.704
12/12/2013  12:12:00       76.596       59.207       61.551       51.122       37.002       42.081     2613.408     1369.133     1770.769        0.946        0.288       96.811       38.037        0.154      330.039       -2.843      867.670
12/12/2013  12:13:00       26.942       77.706       89.064       36.796       35.523       23.374     1353.954     1261.904      546.335        0.893        0.158       82.244       24.150        0.086      330.161       -2.643      867.645
12/12/2013  12:14:00       59.784       78.200       81.280       59.020       48.575       43.972     3483.375     2359.482     1933.558        1.203        0.389       98.435       40.836        0.172      330.202       -2.577      867.631
12/12/2013  12:15:00       86.180      103.312      100.251       73.606       47.805       59.502     5417.802     2285.274     3540.462        1.969        0.562      134.537       56.396        0.176      330.162       -2.642      867.597
12/12/2013  12:16:00       25.465       45.900       52.381       53.448       56.229       34.811     2856.715     3161.658     1211.773        0.636        0.362       52.490       27.868        0.282      330.298       -2.418      867.544
12/12/2013  12:17:00       73.425       69.096        1.639       61.354       35.965       38.087     3764.299     1293.507     1450.592        0.834        0.325      100.825       18.762        0.035      330.185       -2.606      867.489
12/12/2013  12:18:00      119.457       86.191        1.166       32.920       30.086       24.777     1083.704      905.143      613.894        1.215        0.130      147.305       18.769        0.016      330.044       -2.835      867.459
12/12/2013  12:19:00       29.585       40.669        8.849       44.200       45.829       28.154     1953.641     2100.265      792.631        0.373        0.242       50.292        4.712        0.009      330.323       -2.378      867.437
12/12/2013  12:20:00       86.107        9.882       35.072       54.718       30.183       33.496     2994.080      911.035     1121.963        0.688        0.251       86.672       24.736        0.081      330.240       -2.513      867.417
12/12/2013  12:21:00       46.036       46.867       64.456       54.701       43.336       34.087     2992.203     1877.973     1161.954        0.725        0.302       65.694       27.500        0.175      330.411       -2.234      867.378
12/12/2013  12:22:00      111.780      106.448       72.916       84.279       39.028       54.110     7102.941     1523.204     2927.880        2.035        0.578      154.357       56.085        0.132      330.245       -2.506      867.344
12/12/2013  12:23:00       99.170       61.127       29.259       56.472       47.818       52.018     3189.040     2286.566     2705.884        1.130        0.409      116.496       42.666        0.134      330.211       -2.562      867.342
12/12/2013  12:24:00       45.223       51.741       54.237       39.464       34.051       27.761     1557.417     1159.484      770.653        0.558        0.174       68.719       25.071        0.133      330.445       -2.176      867.344
12/12/2013  12:25:00       92.298       71.272       68.434       52.847       54.887       49.580     2792.757     3012.538     2458.218        1.327        0.413      116.613       42.486        0.133      330.389       -2.269      867.343
12/12/2013  12:26:00       61.337       65.872       51.972       52.989       36.148       41.002     2807.855     1306.656     1681.150        0.830        0.290       90.008       27.665        0.094      330.307       -2.404      867.308
12/12/2013  12:27:00      122.882      110.205       58.028      108.650       52.082       80.398    11804.852     2712.497     6463.842        2.579        1.049      165.061       85.734        0.270      330.302       -2.414      867.276
12/12/2013  12:28:00       45.387       49.725        4.458       49.606       49.636       28.727     2460.779     2463.762      825.242        0.515        0.287       67.324       25.159        0.140      330.438       -2.190      867.258
12/12/2013  12:29:00      -10.355      -21.560       10.287       22.369       22.929       19.926      500.385      525.739      397.037        0.105        0.071       23.917       17.974        0.565      330.765       -1.653      867.217
12/12/2013  12:30:00       21.998       31.872        0.096       33.420       24.186       21.220     1116.913      584.940      450.272        0.183        0.108       38.726       11.657        0.091      330.654       -1.834      867.189
12/12/2013  12:31:00       75.089       41.608       24.962       55.874       33.378       34.278     3121.856     1114.069     1175.008        0.670        0.271       85.846       21.066        0.060      330.695       -1.767      867.170
12/12/2013  12:32:00       89.537       75.465        8.579       33.939       25.760       32.457     1151.835      663.598     1053.477        0.833        0.143      117.098       18.699        0.025      330.330       -2.367      867.171
12/12/2013  12:33:00       56.521       43.703       -4.962       48.488       30.923       25.029     2351.056      956.211      626.446        0.453        0.197       71.446       18.658        0.068      330.299       -2.418      867.160
12/12/2013  12:34:00       -5.468       39.266       59.628       16.732       32.341       33.817      279.949     1045.928     1143.573        0.380        0.123       39.645       30.128        0.578      330.787       -1.616      867.131
12/12/2013  12:35:00       33.187       50.558       56.665       29.978       25.133       17.901      898.686      631.660      320.448        0.436        0.093       60.477        9.679        0.026      330.809       -1.581      867.125
12/12/2013  12:36:00        7.647       34.701       30.256       27.753       33.035       21.897      770.201     1091.343      479.472        0.226        0.117       35.534       16.428        0.214      331.051       -1.183      867.108
12/12/2013  12:37:00       23.390       17.525       21.502       31.396       34.405       23.276      985.713     1183.673      541.795        0.201        0.136       29.227       23.431        0.643      331.091       -1.117      867.100
12/12/2013  12:38:00       39.483       35.791       37.525       57.994       37.575       30.970     3363.256     1411.879      959.115        0.499        0.287       53.291       30.592        0.330      330.948       -1.351      867.082
12/12/2013  12:39:00       31.596       38.164       -7.363       40.126       27.792       22.854     1610.080      772.383      522.287        0.271        0.145       49.546       15.932        0.103      330.609       -1.907      867.058
12/12/2013  12:40:00       22.698        2.067        3.921       30.012       37.164       23.881      900.731     1381.177      570.317        0.169        0.143       22.792       22.193        0.948      330.787       -1.617      867.042
12/12/2013  12:41:00       27.621       -8.280       39.727       26.931       81.786       32.488      725.254     6689.006     1055.440        0.544        0.423       28.835       46.584        2.610      330.813       -1.574      867.017
12/12/2013  12:42:00        3.574       42.172       68.729       31.640       52.855       39.478     1001.087     2793.665     1558.487        0.593        0.268       42.323       33.797        0.638      331.110       -1.085      866.987
12/12/2013  12:43:00       11.934       73.099       92.836       37.196       60.069       42.525     1383.518     3608.284     1808.410        1.045        0.340       74.067       40.234        0.295      330.984       -1.294      866.949
12/12/2013  12:44:00       55.930      101.829      101.058       34.623       35.858       28.512     1198.758     1285.811      812.939        1.350        0.165      116.178       19.165        0.027      330.726       -1.715      866.955
12/12/2013  12:45:00       92.535       43.290       62.530       39.077       45.482       34.296     1527.012     2068.598     1176.192        0.956        0.239      102.160       31.589        0.096      330.697       -1.763      866.979
12/12/2013  12:46:00      137.538       90.805       18.497       27.574       33.831       30.427      760.330     1144.519      925.809        1.517        0.142      164.810       15.158        0.008      330.427       -2.208      866.970
12/12/2013  12:47:00       30.257       30.819       51.982       51.602       55.023       44.060     2662.750     3027.484     1941.278        0.610        0.382       43.189       48.099        1.240      330.851       -1.511      866.956
12/12/2013  12:48:00       27.986       64.941       18.497       41.793       41.774       34.127     1746.632     1745.060     1164.661        0.500        0.233       70.714       24.030        0.115      330.971       -1.315      866.938
12/12/2013  12:49:00       25.224      120.363       -2.776       40.095       49.540       41.172     1607.577     2454.189     1695.100        1.044        0.288      122.978       37.212        0.092      330.800       -1.596      866.932
12/12/2013  12:50:00       63.549       97.262       -2.854       43.673       50.584       33.755     1907.290     2558.723     1139.403        0.955        0.280      116.182       29.519        0.065      330.680       -1.791      866.930
12/12/2013  12:51:00       58.118       52.802       12.298       38.806       36.076       32.816     1505.876     1301.481     1076.914        0.510        0.194       78.522       28.077        0.128      330.746       -1.685      866.941
12/12/2013  12:52:00      -17.604       71.410       -4.484       35.707       32.422       20.059     1274.991     1051.197      402.356        0.408        0.136       73.548       20.661        0.079      330.781       -1.626      866.961
12/12/2013  12:53:00       18.063       10.840       -0.204       29.596       36.214       25.088      875.952     1311.421      629.424        0.163        0.141       21.066       26.378        1.568      330.821       -1.560      866.968
12/12/2013  12:54:00      -30.752       50.059       -8.870       31.692       53.872       20.216     1004.394     2902.225      408.681        0.392        0.216       58.751       25.631        0.190      331.014       -1.243      866.959
12/12/2013  12:55:00      -35.273       52.166       -7.821       22.602       30.210       24.443      510.844      912.657      597.474        0.302        0.101       62.972       14.069        0.050      330.979       -1.302      866.940
12/12/2013  12:56:00      -29.655       -2.716        2.182       20.942       23.475       14.725      438.577      551.093      216.830        0.105        0.060       29.779        6.108        0.042      331.267       -0.828      866.930
12/12/2013  12:57:00      -21.891      -20.820        2.565       28.147       28.398       19.784      792.255      806.459      391.412        0.145        0.100       30.211       13.751        0.207      331.239       -0.874      866.931
12/12/2013  12:58:00      -14.911      -50.450       22.134       28.386       59.220       42.488      805.763     3506.954     1805.253        0.469        0.306       52.608       45.312        0.742      331.366       -0.665      866.908
12/12/2013  12:59:00       33.228       45.669       69.559       41.569       45.033       28.870     1728.008     2028.009      833.450        0.631        0.229       56.478       28.440        0.254      331.253       -0.849      866.902
12/12/2013  13:00:00       89.723       51.787       34.316       49.059       35.578       34.270     2406.795     1265.765     1174.407        0.838        0.242      103.596       22.131        0.046      330.942       -1.362      866.874
12/12/2013  13:01:00       95.200       44.607       16.945       69.753       47.350       34.559     4865.423     2242.060     1194.341        0.982        0.415      105.133       27.311        0.067      330.983       -1.295      866.848
12/12/2013  13:02:00      112.331       81.198        5.679       34.214       36.310       31.545     1170.576     1318.396      995.100        1.136        0.174      138.605        9.585        0.005      331.053       -1.178      866.836
12/12/2013  13:03:00       74.695       96.043       42.323       60.247       37.643       49.688     3629.665     1416.974     2468.852        1.205        0.376      121.670       40.843        0.113      331.160       -1.003      866.823
12/12/2013  13:04:00      129.724       86.915       11.604       61.219       32.482       34.284     3747.757     1055.093     1175.366        1.525        0.299      156.149       17.337        0.012      331.017       -1.240      866.814
12/12/2013  13:05:00       52.086       58.614        4.567       47.239       48.218       32.317     2231.491     2324.969     1044.419        0.588        0.280       78.413       25.503        0.106      331.007       -1.255      866.805
12/12/2013  13:06:00       39.526      104.099       -3.400       34.843       42.634       35.320     1214.048     1817.683     1247.487        0.834        0.214      111.350       28.479        0.065      331.138       -1.039      866.783
12/12/2013  13:07:00      -39.384       74.238      -23.122       41.621       39.801       20.351     1732.306     1584.132      414.146        0.566        0.187       84.038       15.508        0.034      330.929       -1.384      866.775
12/12/2013  13:08:00       22.946       49.023        7.091       61.282       39.274       38.865     3755.543     1542.460     1510.463        0.489        0.340       54.127       25.366        0.220      331.240       -0.871      866.759
12/12/2013  13:09:00       65.574       54.256       13.064       60.846       42.951       39.025     3702.265     1844.780     1522.924        0.724        0.353       85.110       23.749        0.078      331.161       -1.002      866.743
12/12/2013  13:10:00      115.054       79.098       16.712       44.125       42.813       43.216     1947.013     1832.917     1867.641        1.271        0.282      139.621       25.299        0.033      331.154       -1.015      866.751
12/12/2013  13:11:00       86.249       75.848        6.410       38.958       38.138       26.906     1517.695     1454.494      723.956        0.846        0.185      114.856       24.746        0.046      331.120       -1.070      866.769
12/12/2013  13:12:00      110.851       70.552       18.930       28.465       21.204       30.301      810.244      449.616      918.155        0.990        0.109      131.398       11.787        0.008      331.208       -0.926      866.756
12/12/2013  13:13:00      105.546       91.047       38.929       64.844       45.545       49.259     4204.693     2074.335     2426.495        1.482        0.435      139.390       48.398        0.121      331.340       -0.708      866.745
12/12/2013  13:14:00       46.415       57.110       15.587       50.235       42.602       40.242     2523.510     1814.906     1619.436        0.581        0.298       73.593       17.360        0.056      331.507       -0.434      866.735
12/12/2013  13:15:00       37.305       75.982        5.088       48.115       30.229       34.404     2315.067      913.787     1183.635        0.580        0.221       84.646       23.928        0.080      331.337       -0.713      866.736
12/12/2013  13:16:00        2.759       45.424        2.189       18.802       24.874       22.338      353.506      618.719      499.006        0.177        0.074       45.508       18.532        0.166      331.335       -0.716      866.729
12/12/2013  13:17:00       34.639       30.076       15.237       25.189       33.166       25.553      634.471     1099.959      652.957        0.236        0.119       45.874       16.812        0.134      331.369       -0.659      866.711
12/12/2013  13:18:00        9.466      -22.868        2.001       30.108       33.810       19.652      906.519     1143.116      386.195        0.153        0.122       24.750       18.747        0.574      331.443       -0.538      866.687
12/12/2013  13:19:00       66.604     -110.189       27.260       46.127       93.746       41.576     2127.742     8788.222     1728.535        1.498        0.632      128.754       52.182        0.164      331.404       -0.602      866.675
12/12/2013  13:20:00       48.898      -36.006       17.363       57.104       76.806       48.464     3260.839     5899.218     2348.766        0.775        0.575       60.724       53.943        0.789      331.387       -0.631      866.683
12/12/2013  13:21:00       89.201     -119.296       -0.667       60.703       84.107       36.940     3684.855     7074.036     1364.588        1.715        0.606      148.958       48.711        0.107      331.374       -0.653      866.665
12/12/2013  13:22:00       -0.798        7.882       29.820       27.269       26.511       19.134      743.607      702.814      366.103        0.138        0.091        7.922       11.066        1.951      331.935        0.272      866.661
12/12/2013  13:23:00       10.938      -30.568       25.233       35.354       32.343       27.884     1249.917     1046.076      777.501        0.238        0.154       32.466       17.447        0.289      331.849        0.130      866.650
12/12/2013  13:24:00        8.719      -40.018       23.658       31.185       30.184       22.029      972.532      911.065      485.294        0.230        0.118       40.957       15.276        0.139      331.823        0.087      866.643
12/12/2013  13:25:00       24.483      -41.536       16.681       37.696       52.793       38.998     1420.980     2787.149     1520.830        0.416        0.286       48.215       26.708        0.307      331.645       -0.205      866.640
12/12/2013  13:26:00       48.207       -9.685       39.243       39.944       99.377       43.179     1595.529     9875.692     1864.383        0.864        0.667       49.170       53.433        1.181      331.633       -0.227      866.615
12/12/2013  13:27:00       89.456       64.441       50.944       44.961       38.643       42.072     2021.515     1493.250     1770.023        1.002        0.264      110.250       29.203        0.070      331.350       -0.690      866.597
12/12/2013  13:28:00       35.618      -61.945       13.044       29.974       54.535       32.963      898.422     2974.080     1086.563        0.512        0.248       71.455       26.011        0.133      331.546       -0.369      866.583
12/12/2013  13:29:00       93.894       41.086       64.712       65.907       49.438       48.625     4343.793     2444.105     2364.416        1.192        0.458      102.490       37.289        0.132      331.479       -0.480      866.568
12/12/2013  13:30:00      117.155       76.521       75.184       58.324       55.691       51.938     3401.721     3101.485     2697.538        1.722        0.460      139.931       19.986        0.020      331.297       -0.779      866.554
12/12/2013  13:31:00       39.493      -69.108       16.696       34.195       62.799       33.077     1169.305     3943.726     1094.103        0.641        0.310       79.596       31.860        0.160      331.500       -0.446      866.558
12/12/2013  13:32:00       49.751       16.575       44.622       51.297       71.610       50.290     2631.334     5127.933     2529.101        0.751        0.514       52.440       36.772        0.492      331.643       -0.210      866.536
12/12/2013  13:33:00       99.329      -94.232       14.058       60.259       87.430       57.121     3631.160     7644.048     3262.772        1.674        0.727      136.915       65.666        0.230      331.487       -0.467      866.515
12/12/2013  13:34:00       93.307     -100.815       -3.031       39.774       39.273       25.443     1581.976     1542.384      647.353        1.132        0.189      137.368       21.968        0.026      331.543       -0.374      866.499
12/12/2013  13:35:00       63.099      -64.367        3.330       51.172       77.830       38.852     2618.526     6057.520     1509.483        0.916        0.509       90.137       45.460        0.254      331.727       -0.071      866.507
12/12/2013  13:36:00       53.419       58.050       72.342       41.163       37.220       26.615     1694.359     1385.329      708.363        0.762        0.189       78.888       16.450        0.043      331.799        0.047      866.535
12/12/2013  13:37:00       80.783       25.295       30.089       41.112       46.158       42.412     1690.188     2130.532     1798.807        0.684        0.281       84.651       36.527        0.186      331.380       -0.643      866.542
12/12/2013  13:38:00       47.878       35.123       30.081       38.822       27.240       23.698     1507.159      742.039      561.580        0.362        0.141       59.380       22.810        0.148      331.638       -0.218      866.532
12/12/2013  13:39:00       71.957     -114.765       -9.698       50.171       87.410       43.856     2517.177     7640.585     1923.322        1.526        0.604      135.458       51.424        0.144      331.640       -0.215      866.532
12/12/2013  13:40:00       60.900      -78.640       27.512       53.796      106.132       48.400     2894.061    11264.056     2342.535        1.357        0.825       99.464       66.926        0.453      331.690       -0.133      866.517
12/12/2013  13:41:00       48.854      -64.181       23.421       47.507       73.703       45.802     2256.956     5432.061     2097.850        0.842        0.489       80.660       45.666        0.321      331.843        0.119      866.519
12/12/2013  13:42:00       55.585       13.508       61.021       61.452       63.903       42.920     3776.335     4083.568     1842.104        0.835        0.485       57.203       43.103        0.568      331.705       -0.107      866.527
12/12/2013  13:43:00       55.603       99.892       97.391       55.715       58.614       43.873     3104.119     3435.582     1924.853        1.551        0.423      114.325       39.329        0.118      331.672       -0.162      866.499
12/12/2013  13:44:00       55.553       42.869       31.235       32.760       25.124       17.095     1073.211      631.215      292.256        0.395        0.100       70.170        7.602        0.012      331.487       -0.465      866.486
12/12/2013  13:45:00      100.902       58.722       33.095       47.988       35.346       30.136     2302.892     1249.328      908.150        0.959        0.223      116.746       19.615        0.028      331.571       -0.327      866.478
12/12/2013  13:46:00       52.950       18.839       28.075       40.376       48.334       33.738     1630.184     2336.205     1138.231        0.452        0.255       56.201       28.434        0.256      331.680       -0.148      866.461
12/12/2013  13:47:00       80.024       68.540       66.807       88.841       66.243       46.823     7892.777     4388.085     2192.419        1.502        0.724      105.364       40.314        0.146      331.822        0.083      866.447
12/12/2013  13:48:00       63.311       80.089       64.074       59.846       41.329       48.941     3581.484     1708.111     2395.219        1.110        0.384      102.091       42.572        0.174      331.639       -0.215      866.460
12/12/2013  13:49:00       93.936       75.060       46.458       56.265       44.359       49.303     3165.760     1967.686     2430.759        1.209        0.378      120.241       43.727        0.132      331.628       -0.234      866.449
12/12/2013  13:50:00       96.034       47.342       17.701       41.217       35.269       33.669     1698.814     1243.914     1133.633        0.793        0.204      107.069       17.497        0.027      331.606       -0.271      866.431
12/12/2013  13:51:00       41.221       76.632       58.058       68.264       49.612       57.955     4660.015     2461.332     3358.797        1.071        0.524       87.015       57.070        0.430      331.728       -0.070      866.425
12/12/2013  13:52:00       77.881       79.124       78.521       98.055       52.167       55.421     9614.748     2721.347     3071.444        1.695        0.770      111.023       58.975        0.282      331.747       -0.039      866.423
12/12/2013  13:53:00       76.327       21.769       20.934       47.258       28.850       33.944     2233.339      832.338     1152.225        0.548        0.211       79.371       19.529        0.061      331.734       -0.060      866.430
12/12/2013  13:54:00       67.012       53.738       36.366       53.822       31.274       31.999     2896.762      978.038     1023.932        0.680        0.245       85.897       18.848        0.048      331.827        0.093      866.417
12/12/2013  13:55:00       72.011       63.447       32.846       47.056       40.203       48.180     2214.287     1616.284     2321.289        0.822        0.308       95.975       37.709        0.154      331.767       -0.007      866.393
12/12/2013  13:56:00       50.303       96.370       95.507       69.195       52.375       59.051     4787.911     2743.131     3487.006        1.598        0.551      108.709       45.088        0.172      331.805        0.057      866.371
12/12/2013  13:57:00      147.416      104.908       35.356       53.961       40.455       47.069     2911.800     1636.628     2215.444        2.037        0.338      180.934       26.036        0.021      331.671       -0.165      866.367
12/12/2013  13:58:00       44.979       85.671       71.317       43.501       32.344       36.001     1892.331     1046.158     1296.044        0.934        0.212       96.761       30.871        0.102      331.819        0.080      866.369
12/12/2013  13:59:00       39.912       54.143       73.919       38.697       42.905       38.059     1497.434     1840.821     1448.515        0.739        0.239       67.264       28.216        0.176      331.894        0.202      866.370
12/12/2013  14:00:00       94.247       75.169       40.234       44.021       35.148       38.128     1937.884     1235.367     1453.772        1.039        0.231      120.552       28.418        0.056      331.654       -0.191      866.364
12/12/2013  14:01:00      114.000       39.017       46.690       48.758       42.228       40.641     2377.318     1783.205     1651.720        1.125        0.291      120.492       29.365        0.059      331.684       -0.142      866.353
12/12/2013  14:02:00      103.477       74.331       18.917       38.825       33.392       31.670     1507.395     1114.996     1002.972        1.011        0.181      127.407       21.486        0.028      331.638       -0.216      866.341
12/12/2013  14:03:00       81.488       76.310       30.347       37.470       46.466       39.502     1404.015     2159.106     1560.437        0.925        0.256      111.640       23.721        0.045      331.708       -0.102      866.315
12/12/2013  14:04:00       76.391       79.094       40.436       66.074       50.113       57.947     4365.741     2511.359     3357.814        1.198        0.512      109.961       38.286        0.121      331.785        0.025      866.283
12/12/2013  14:05:00        7.101      -27.683       21.004       65.680       70.671       44.738     4313.871     4994.397     2001.485        0.628        0.565       28.579       33.304        1.358      332.022        0.414      866.261
12/12/2013  14:06:00       74.798      -89.977       -7.382       43.811       67.295       37.346     1919.396     4528.626     1394.709        1.079        0.392      117.007       38.848        0.110      331.785        0.026      866.249
12/12/2013  14:07:00       89.195      -85.337        3.495       55.680       78.300       37.118     3100.255     6130.875     1377.760        1.293        0.530      123.443       53.047        0.185      331.749       -0.036      866.238
12/12/2013  14:08:00       74.840     -112.857        0.122       31.804       49.654       27.557     1011.473     2465.562      759.408        1.129        0.212      135.417       28.874        0.045      331.818        0.078      866.249
12/12/2013  14:09:00       72.114      -60.745        0.953       33.228       49.579       31.304     1104.131     2458.089      979.919        0.672        0.227       94.289       25.043        0.071      331.827        0.094      866.260
12/12/2013  14:10:00       80.497      -94.349        1.791       51.276       97.028       51.406     2629.262     9414.481     2642.535        1.503        0.734      124.022       64.454        0.270      331.904        0.218      866.230
12/12/2013  14:11:00       99.055      -37.996       26.242       83.628       62.096       49.918     6993.657     3855.930     2491.780        1.264        0.667      106.092       56.805        0.287      331.993        0.367      866.216
12/12/2013  14:12:00      139.652     -119.707      -20.571       35.157       45.818       31.132     1236.001     2099.303      969.174        1.928        0.215      183.936       27.241        0.022      331.690       -0.132      866.215
12/12/2013  14:13:00       27.027        9.652       58.910       44.844       59.173       34.197     2011.012     3501.410     1169.464        0.549        0.334       28.698       32.086        1.250      331.980        0.344      866.210
12/12/2013  14:14:00       43.672      -58.238       -1.749       22.852       26.038       18.705      522.207      677.997      349.879        0.343        0.078       72.793        7.148        0.010      331.712       -0.095      866.191
12/12/2013  14:15:00       25.394      -36.088        1.209       29.071       57.240       23.038      845.125     3276.464      530.748        0.330        0.233       44.127       26.349        0.357      331.910        0.231      866.178
12/12/2013  14:16:00       71.848      -98.154      -26.350       38.332       49.400       28.606     1469.319     2440.400      818.278        1.011        0.236      121.640       24.065        0.039      331.822        0.085      866.174
12/12/2013  14:17:00      107.178     -152.559      -11.262       41.656       45.399       23.602     1735.208     2061.089      557.042        1.962        0.218      186.444       19.043        0.010      331.776        0.009      866.161
12/12/2013  14:18:00       57.571      -31.757       41.579       58.435       79.863       47.989     3414.638     6378.137     2302.992        0.907        0.605       65.749       46.174        0.493      332.036        0.437      866.132
12/12/2013  14:19:00       86.988      -78.559        7.193       65.883      101.517       66.807     4340.602    10305.670     4463.148        1.645        0.955      117.211       76.787        0.429      331.748       -0.037      866.127
12/12/2013  14:20:00       44.364        4.198       22.298       36.474       48.844       41.079     1330.316     2385.766     1687.484        0.394        0.270       44.562       37.939        0.725      331.905        0.222      866.147
12/12/2013  14:21:00       99.276       71.005       49.327       67.699       43.496       33.494     4583.201     1891.871     1121.826        1.246        0.380      122.055       25.303        0.043      331.756       -0.024      866.151
12/12/2013  14:22:00       88.823        5.791       53.528       86.081       85.706       55.580     7409.972     7345.527     3089.123        1.431        0.892       89.012       67.170        0.569      331.891        0.198      866.113
12/12/2013  14:23:00       86.938       13.729       72.568       80.398      100.701       67.552     6463.792    10140.607     4563.277        1.709        1.058       88.016       78.022        0.786      331.991        0.362      866.066
12/12/2013  14:24:00      105.621      -46.707       20.308       41.948       76.353       52.548     1759.651     5829.835     2761.281        1.205        0.518      115.488       54.541        0.223      331.813        0.069      866.039
12/12/2013  14:25:00       14.622       -4.875       21.780       40.363       57.676       29.689     1629.136     3326.476      881.442        0.327        0.292       15.414       28.657        3.457      332.085        0.518      866.043
12/12/2013  14:26:00       26.208      -82.928       17.138       76.471       69.601       42.474     5847.778     4844.303     1804.013        1.017        0.625       86.970       34.677        0.159      332.152        0.628      866.051
12/12/2013  14:27:00       77.132      -28.554       27.873       64.444       49.368       42.195     4153.039     2437.228     1780.385        0.795        0.419       82.248       43.305        0.277      332.026        0.420      866.038
12/12/2013  14:28:00       81.214       73.949       77.364       36.219       36.358       36.555     1311.802     1321.933     1336.286        1.101        0.199      109.837       18.789        0.029      331.914        0.236      866.036
12/12/2013  14:29:00       39.581       13.277       10.344       43.250       44.332       29.881     1870.569     1965.282      892.894        0.329        0.236       41.748       16.911        0.164      331.929        0.261      866.047
12/12/2013  14:30:00        8.346      -51.256        5.870       17.900       31.692       26.647      320.417     1004.355      710.057        0.238        0.102       51.931       21.324        0.169      332.245        0.782      866.040
12/12/2013  14:31:00       48.472       68.628       62.693       59.609       53.668       42.659     3553.210     2880.260     1819.810        0.962        0.413       84.020       24.233        0.083      332.049        0.460      866.030
12/12/2013  14:32:00       88.802      -34.840       33.817       76.868       95.335       48.560     5908.746     9088.813     2358.083        1.380        0.868       95.392       62.345        0.427      332.000        0.377      866.040
12/12/2013  14:33:00       65.094      -92.139       -6.960       70.851       80.535       48.294     5019.913     6485.836     2332.269        1.330        0.692      112.814       31.856        0.080      331.983        0.350      866.024
12/12/2013  14:34:00      120.036     -137.707      -22.826       60.852       73.285       46.240     3702.945     5370.637     2138.138        2.255        0.561      182.679       42.480        0.054      331.729       -0.071      866.000
12/12/2013  14:35:00       37.283       16.742       63.061       63.385       96.343       70.429     4017.650     9281.937     4960.268        1.195        0.913       40.869       79.156        3.751      331.931        0.264      865.992
12/12/2013  14:36:00       47.118        6.838       65.906       64.293       70.502       54.342     4133.532     4970.562     2953.091        0.933        0.603       47.611       52.378        1.210      331.920        0.246      865.970
12/12/2013  14:37:00       14.845       63.621       76.223       26.889       41.904       32.692      722.994     1755.978     1068.794        0.681        0.177       65.330       28.498        0.190      331.938        0.276      865.956
12/12/2013  14:38:00       50.593      -87.195        0.251       47.943       68.505       30.891     2298.549     4692.891      954.230        0.905        0.397      100.810       31.243        0.096      332.086        0.520      865.949
12/12/2013  14:39:00       79.097      -38.484       12.095       56.550      111.357       52.721     3197.858    12400.478     2779.541        1.313        0.919       87.963       68.364        0.604      331.975        0.336      865.937
12/12/2013  14:40:00      113.287      120.022      105.508       75.650       69.673       56.008     5722.939     4854.366     3136.946        2.604        0.686      165.043       46.866        0.081      331.804        0.054      865.917
12/12/2013  14:41:00       81.876       52.278       66.810       68.506       48.264       44.132     4693.048     2329.389     1947.669        1.143        0.449       97.142       46.770        0.232      331.789        0.031      865.928
12/12/2013  14:42:00       71.154       40.818       46.886       55.497       40.473       42.487     3079.917     1638.041     1805.126        0.772        0.326       82.030       35.321        0.185      331.874        0.172      865.935
12/12/2013  14:43:00      127.770       69.893       37.324       50.159       39.351       34.016     2515.887     1548.507     1157.057        1.391        0.261      145.637       19.883        0.019      331.731       -0.066      865.930
12/12/2013  14:44:00       61.912       53.090       42.238       46.809       33.491       29.231     2191.103     1121.633      854.449        0.630        0.208       81.557       13.198        0.026      331.860        0.147      865.929
12/12/2013  14:45:00        8.540      -19.804        7.919       12.265       20.258       18.687      150.434      410.367      349.203        0.072        0.046       21.567       13.986        0.421      332.194        0.699      865.953
12/12/2013  14:46:00        1.107       -3.439       22.238       30.230       36.121       27.789      913.830     1304.720      772.255        0.175        0.150        3.613       27.119       56.336      332.230        0.758      865.952
12/12/2013  14:47:00       -4.449       17.312       64.278       41.059       78.597       47.562     1685.877     6177.454     2262.107        0.729        0.506       17.874       55.196        9.536      332.123        0.581      865.921
12/12/2013  14:48:00       76.113     -120.232      -23.809       55.833       58.875       32.478     3117.283     3466.211     1054.802        1.423        0.382      142.298       31.657        0.049      331.912        0.233      865.890
12/12/2013  14:49:00       61.982      -70.949       -3.604       37.769       44.692       35.566     1426.497     1997.391     1264.952        0.679        0.234       94.210       36.742        0.152      331.876        0.174      865.867
12/12/2013  14:50:00       20.677      -25.319       21.103       29.173       55.088       29.070      851.042     3034.687      845.079        0.312        0.237       32.689       36.676        1.259      332.152        0.629      865.844
12/12/2013  14:51:00        5.412       28.885       64.007       23.938       65.975       43.930      573.037     4352.655     1929.834        0.591        0.343       29.387       48.620        2.737      332.118        0.573      865.820
12/12/2013  14:52:00        7.978       26.417       36.911       47.274       71.058       45.802     2234.876     5049.208     2097.809        0.575        0.469       27.595       51.530        3.487      332.087        0.522      865.826
12/12/2013  14:53:00       17.200       20.029       36.297       44.291       84.192       55.099     1961.701     7088.257     3035.888        0.705        0.604       26.401       56.480        4.577      332.042        0.449      865.855
12/12/2013  14:54:00       79.744       71.652       38.617       67.882       39.869       34.502     4607.965     1589.534     1190.354        1.018        0.369      107.207       31.483        0.086      331.843        0.120      865.869
12/12/2013  14:55:00       71.751      -84.516       -7.748       64.493       41.646       23.336     4159.379     1734.385      544.552        0.939        0.322      110.865       30.470        0.076      331.927        0.258      865.871
12/12/2013  14:56:00       61.543     -117.082       -6.403       47.886       60.762       33.621     2293.067     3692.028     1130.349        1.232        0.356      132.272       31.504        0.057      331.925        0.255      865.859
12/12/2013  14:57:00       67.776      -82.096       -7.002       40.296       57.838       34.202     1623.800     3345.251     1169.772        0.876        0.307      106.458       35.865        0.113      331.882        0.183      865.839
12/12/2013  14:58:00       49.002       29.751       31.834       26.688       27.443       16.682      712.257      753.101      278.301        0.302        0.087       57.326       17.540        0.094      331.890        0.197      865.835
12/12/2013  14:59:00       27.411       13.638       11.684       24.195       16.337       12.016      585.418      266.914      144.393        0.104        0.050       30.616        6.050        0.039      331.822        0.085      865.842
12/12/2013  15:00:00      -32.771      -10.601        5.873       36.333       32.663       17.246     1320.108     1066.862      297.415        0.195        0.134       34.443       15.579        0.205      332.075        0.503      865.863
12/12/2013  15:01:00      -70.632      -17.166        2.831       17.665       23.434       17.022      312.060      549.134      289.750        0.322        0.058       72.688       11.672        0.026      331.990        0.361      865.888
12/12/2013  15:02:00      -23.792        7.038        7.836       31.954       20.266       19.923     1021.074      410.706      396.932        0.125        0.091       24.811       21.376        0.742      332.083        0.516      865.891
12/12/2013  15:03:00       -0.373      -13.491       23.761       15.054       44.848       15.713      226.615     2011.342      246.883        0.162        0.124       13.496       19.546        2.097      332.343        0.944      865.897
12/12/2013  15:04:00        6.896      -76.388       -4.272       28.069       39.696       25.153      787.871     1575.777      632.693        0.445        0.150       76.698       21.347        0.077      332.292        0.859      865.905
12/12/2013  15:05:00       51.411      -35.624       10.874       45.266       37.003       22.087     2048.976     1369.192      487.854        0.397        0.195       62.547       28.718        0.211      332.114        0.565      865.907
12/12/2013  15:06:00        5.892       21.218       33.044       18.852       19.757       17.119      355.380      390.351      293.048        0.131        0.052       22.020       13.709        0.388      332.292        0.860      865.893
12/12/2013  15:07:00      -19.532       26.661        5.195       20.473       31.619       25.702      419.148      999.733      660.580        0.160        0.104       33.050       13.529        0.168      332.185        0.686      865.899
12/12/2013  15:08:00      -27.460       -7.265        4.509       22.987       15.045       13.871      528.379      226.337      192.418        0.089        0.047       28.405       10.062        0.125      332.333        0.927      865.901
12/12/2013  15:09:00        2.097       -8.903       -6.311       16.186       14.598       11.923      261.996      213.095      142.167        0.037        0.031        9.146       10.594        1.342      332.276        0.833      865.880
12/12/2013  15:10:00       36.665       31.858       -1.509       26.842       12.524       16.016      720.467      156.855      256.519        0.175        0.057       48.572        9.029        0.035      332.089        0.524      865.868
12/12/2013  15:11:00       30.792       13.935        6.794       18.264       25.829       25.362      333.556      667.148      643.206        0.142        0.082       33.799       18.145        0.288      332.159        0.641      865.864
12/12/2013  15:12:00       28.605       30.050       37.247       25.847       36.132       28.847      668.087     1305.489      832.135        0.296        0.140       41.489       26.869        0.419      332.138        0.606      865.848
12/12/2013  15:13:00       47.551       80.628       80.267       38.167       42.180       31.061     1456.707     1779.131      964.762        0.970        0.210       93.606       25.984        0.077      332.056        0.471      865.826
12/12/2013  15:14:00        6.947       35.286       68.258       31.946       32.410       25.756     1020.545     1050.434      663.390        0.434        0.137       35.964       21.237        0.349      332.194        0.698      865.818
12/12/2013  15:15:00       60.704       45.720       41.803       42.704       40.848       33.475     1823.604     1668.536     1120.563        0.607        0.231       75.995       32.842        0.187      332.108        0.557      865.810
12/12/2013  15:16:00       52.327       56.571       45.715       45.662       32.900       25.343     2085.052     1082.393      642.292        0.592        0.190       77.061       18.336        0.057      332.116        0.569      865.804
12/12/2013  15:17:00       54.112       48.293       36.476       31.223       26.051       24.932      974.879      678.679      621.612        0.443        0.114       72.528       20.698        0.081      331.975        0.337      865.783
12/12/2013  15:18:00       22.498       21.336       32.430       22.623       23.398       17.219      511.808      547.483      296.508        0.168        0.068       31.007       16.307        0.277      332.114        0.565      865.786
12/12/2013  15:19:00       37.111       44.995       36.795       28.092       21.039       24.486      789.171      442.631      599.566        0.329        0.092       58.325       15.232        0.068      332.073        0.498      865.790
12/12/2013  15:20:00       97.550       73.451       18.650       35.253       33.962       31.544     1242.757     1153.409      995.029        0.932        0.170      122.111       23.505        0.037      331.949        0.294      865.782
12/12/2013  15:21:00      121.595       61.234        7.719       47.445       33.085       31.920     2251.014     1094.602     1018.885        1.148        0.218      136.143       23.786        0.031      331.873        0.168      865.768
12/12/2013  15:22:00       97.695       64.218        9.575       35.995       35.722       22.266     1295.604     1276.048      495.772        0.841        0.153      116.911       20.633        0.031      331.872        0.168      865.774
12/12/2013  15:23:00      114.194       55.447        8.731       25.617       19.926       25.675      656.248      397.043      659.230        0.895        0.086      126.944       15.360        0.015      331.870        0.164      865.775
12/12/2013  15:24:00       64.572       50.204        1.029       34.065       29.910       18.976     1160.414      894.625      360.083        0.455        0.121       81.792       14.484        0.031      331.935        0.272      865.768
12/12/2013  15:25:00       36.934       42.947        0.682       37.864       27.710       21.078     1433.685      767.862      444.272        0.293        0.132       56.644       16.786        0.088      331.996        0.373      865.784
12/12/2013  15:26:00       39.501       49.397       -3.962       20.909       19.760       18.587      437.171      390.454      345.460        0.259        0.059       63.249       11.398        0.032      331.987        0.357      865.784
12/12/2013  15:27:00       61.437       46.494       35.795       29.100       32.984       24.809      846.828     1087.921      615.509        0.488        0.128       77.047       12.116        0.025      331.986        0.354      865.766
12/12/2013  15:28:00       55.522        5.030       21.218       36.172       27.099       24.230     1308.412      734.334      587.092        0.309        0.131       55.749       20.489        0.135      332.008        0.389      865.763
12/12/2013  15:29:00       62.941       14.536       17.449       31.172       22.184       24.650      971.664      492.148      607.641        0.327        0.104       64.598       13.973        0.047      331.990        0.361      865.782
12/12/2013  15:30:00       62.030       40.426       15.164       22.970       17.204       16.015      527.643      295.960      256.469        0.340        0.054       74.041       11.508        0.024      331.979        0.343      865.795
12/12/2013  15:31:00       65.361       52.454        5.380       19.642       18.368       17.808      385.818      337.377      317.114        0.405        0.052       83.806       11.932        0.020      331.972        0.332      865.786
12/12/2013  15:32:00       41.710       43.882        0.186       19.821       25.762       18.362      392.858      663.655      337.169        0.253        0.070       60.542       15.609        0.066      331.922        0.249      865.783
12/12/2013  15:33:00       53.095       42.885       11.434       19.802       17.644       14.656      392.104      311.302      214.792        0.285        0.046       68.251        8.184        0.014      331.931        0.262      865.769
12/12/2013  15:34:00       71.019       61.526       15.207       28.465       19.936       19.114      810.233      397.430      365.329        0.532        0.079       93.964       14.254        0.023      331.982        0.349      865.740
12/12/2013  15:35:00       82.562       55.000       20.501       26.157       15.174       18.866      684.164      230.255      355.911        0.577        0.064       99.204       16.060        0.026      331.984        0.351      865.721
12/12/2013  15:36:00       87.004       46.481       19.063       13.418        9.749       10.648      180.038       95.050      113.388        0.524        0.019       98.642        4.722        0.002      331.977        0.339      865.718
12/12/2013  15:37:00       82.368       43.514       13.840       14.763        8.786       14.131      217.939       77.190      199.697        0.468        0.025       93.155       10.161        0.012      332.022        0.414      865.723
12/12/2013  15:38:00       47.713       12.386       14.973       25.865       22.707       18.151      668.993      515.616      329.468        0.208        0.076       49.294       16.852        0.117      332.086        0.520      865.715
12/12/2013  15:39:00       44.615       42.425        9.483       22.264       18.370       19.356      495.692      337.439      374.645        0.254        0.060       61.566       13.541        0.048      331.996        0.370      865.724
12/12/2013  15:40:00       68.523       53.293        9.961       30.204       19.414       20.272      912.296      376.892      410.950        0.467        0.085       86.808       12.188        0.020      332.000        0.377      865.732
12/12/2013  15:41:00       91.720       62.524        7.506       24.853       17.668       18.968      617.685      312.161      359.784        0.683        0.064      111.004        8.888        0.006      331.986        0.354      865.736
12/12/2013  15:42:00       74.012       67.253        5.436       30.874       21.393       22.901      953.180      457.657      524.434        0.598        0.097      100.004        8.906        0.008      331.961        0.313      865.738
12/12/2013  15:43:00       92.230       56.462       13.392       25.352       15.175       14.294      642.707      230.289      204.322        0.648        0.054      108.140       11.653        0.012      332.002        0.380      865.745
12/12/2013  15:44:00       55.977       27.033       17.553       27.059       19.081       18.727      732.163      364.101      350.713        0.281        0.072       62.163        9.392        0.023      332.020        0.411      865.745
12/12/2013  15:45:00       97.461       60.180        9.316       27.145       25.996       25.100      736.861      675.778      629.998        0.762        0.102      114.544       17.502        0.023      331.990        0.360      865.756
12/12/2013  15:46:00      115.451       58.449        5.379       26.028       18.860       16.559      677.455      355.691      274.200        0.904        0.065      129.404        9.828        0.006      331.961        0.315      865.770
12/12/2013  15:47:00      115.936       61.191       11.793       28.110       17.318       16.356      790.196      299.903      267.506        0.934        0.068      131.093        7.509        0.003      331.964        0.318      865.773
12/12/2013  15:48:00      104.699       48.553        7.141       28.844       23.001       14.974      832.000      529.026      224.223        0.748        0.079      115.410        7.716        0.004      331.967        0.322      865.780
12/12/2013  15:49:00       79.254       40.473       13.939       27.272       27.762       16.899      743.747      770.708      285.561        0.496        0.090       88.990        7.345        0.007      332.032        0.432      865.808
12/12/2013  15:50:00       93.121       53.854       18.349       14.588       16.054       16.122      212.797      257.736      259.919        0.632        0.037      107.572        2.564        0.001      332.035        0.435      865.802
12/12/2013  15:51:00      106.913       64.496        3.604       13.205       14.332       15.762      174.375      205.408      248.439        0.812        0.031      124.861        9.407        0.006      332.036        0.437      865.793
12/12/2013  15:52:00       80.682       48.527       -1.392       16.442       20.453       15.888      270.326      418.306      252.435        0.490        0.047       94.151        8.276        0.008      332.012        0.397      865.805
12/12/2013  15:53:00       71.132       55.598        5.135       23.138       14.518       15.322      535.373      210.783      234.752        0.458        0.049       90.282        7.165        0.006      332.010        0.396      865.822
12/12/2013  15:54:00      110.828       64.903        9.625       31.868       20.899       20.510     1015.550      436.765      420.649        0.923        0.094      128.434        9.881        0.006      332.016        0.403      865.795
12/12/2013  15:55:00       80.599       41.794        2.504       32.422       21.375       17.774     1051.209      456.895      315.927        0.504        0.091       90.791        9.629        0.011      332.037        0.440      865.783
12/12/2013  15:56:00       61.877       44.916        7.883       23.230       19.495       19.438      539.616      380.048      377.839        0.360        0.065       76.460       11.447        0.022      332.047        0.456      865.793
12/12/2013  15:57:00       34.096       60.998      -10.659       14.996       19.815       15.830      224.892      392.651      250.587        0.293        0.043       69.880       12.373        0.031      332.014        0.402      865.772
12/12/2013  15:58:00       62.676       44.210       -0.882       28.031       23.255       14.080      785.761      540.788      198.237        0.370        0.076       76.699       12.430        0.026      331.970        0.329      865.756
12/12/2013  15:59:00       40.346       16.643        5.735       21.386       21.412       17.538      457.340      458.487      307.597        0.158        0.061       43.644        4.531        0.011      331.958        0.310      865.747
12/12/2013  16:00:00       57.415       20.586       17.979       25.376       22.018       25.796      643.924      484.795      665.457        0.292        0.090       60.994       20.922        0.118      332.007        0.389      865.728
12/12/2013  16:01:00       62.544       46.121       33.187       23.733       24.313       18.672      563.274      591.125      348.628        0.432        0.075       77.711       13.159        0.029      331.987        0.355      865.711
12/12/2013  16:02:00       28.214       48.639       58.905       26.142       25.592       17.063      683.395      654.959      291.160        0.413        0.081       56.230       13.746        0.060      332.076        0.505      865.704
12/12/2013  16:03:00       22.840       32.620       36.518       29.997       18.196       21.101      899.809      331.094      445.266        0.230        0.084       39.821       15.339        0.148      332.050        0.461      865.702
12/12/2013  16:04:00       49.427       74.334       63.168       43.775       45.885       35.815     1916.242     2105.470     1282.728        0.863        0.265       89.267       31.391        0.124      332.051        0.462      865.680
12/12/2013  16:05:00       63.118       79.578       59.785       25.473       22.471       23.993      648.885      504.928      575.654        0.781        0.086      101.570       19.572        0.037      332.089        0.525      865.683
12/12/2013  16:06:00       60.617       54.474       32.209       15.962       14.596       16.683      254.792      213.032      278.318        0.421        0.037       81.497        9.632        0.014      332.056        0.471      865.681
12/12/2013  16:07:00       70.866       58.123       31.274       35.098       23.244       24.441     1231.865      540.294      597.375        0.587        0.118       91.653       15.640        0.029      332.042        0.448      865.629
12/12/2013  16:08:00       61.930       53.455       51.044       24.411       31.754       24.979      595.894     1008.288      623.958        0.576        0.111       81.809       13.423        0.027      332.058        0.475      865.583
12/12/2013  16:09:00       33.381       41.535       56.278       38.285       33.060       24.327     1465.732     1092.974      591.818        0.458        0.158       53.286       26.465        0.247      332.016        0.404      865.579
12/12/2013  16:10:00       35.305       43.692       57.499       45.294       39.441       19.001     2051.514     1555.615      361.048        0.521        0.198       56.173       26.038        0.215      332.014        0.402      865.548
12/12/2013  16:11:00       17.697       -3.376       41.445       28.094       40.034       24.176      789.260     1602.710      584.481        0.251        0.149       18.017       21.169        1.381      332.004        0.385      865.518
12/12/2013  16:12:00       22.847       11.971       32.523       21.424       15.055       17.727      458.984      226.644      314.259        0.136        0.050       25.793       12.349        0.229      331.955        0.304      865.505
12/12/2013  16:13:00       29.965       30.291       38.130       24.184       24.924       26.766      584.887      621.197      716.434        0.260        0.096       42.609       20.198        0.225      331.990        0.362      865.505
12/12/2013  16:14:00       83.246       57.076       31.358       31.209       19.160       26.712      973.989      367.091      713.524        0.661        0.103      100.934       21.749        0.046      331.988        0.358      865.509
12/12/2013  16:15:00       95.802       50.812       23.679       34.361       23.987       20.109     1180.667      575.398      404.387        0.724        0.108      108.443       18.880        0.030      331.909        0.227      865.502
12/12/2013  16:16:00       69.638       21.040       28.640       42.892       28.879       26.332     1839.684      834.005      693.379        0.474        0.168       72.747       24.510        0.114      331.941        0.281      865.549
12/12/2013  16:17:00       33.610       13.714       17.166       20.434       19.055       19.582      417.564      363.077      383.468        0.139        0.058       36.300        5.878        0.026      331.897        0.208      865.590
12/12/2013  16:18:00       84.028       55.699       32.385       28.111       17.830       16.801      790.227      317.896      282.275        0.630        0.070      100.812        8.806        0.008      331.905        0.219      865.605
12/12/2013  16:19:00       60.912       43.353        7.658       26.318       25.874       20.919      692.637      669.481      437.596        0.372        0.090       74.764        9.822        0.017      331.887        0.190      865.611
12/12/2013  16:20:00       60.673       32.668        4.726       20.416       15.551       16.247      416.796      241.843      263.976        0.285        0.046       68.908        9.196        0.018      331.854        0.138      865.645
12/12/2013  16:21:00       76.308       41.687        2.888       20.724       20.165       14.170      429.492      406.638      200.788        0.430        0.052       86.952        6.608        0.006      331.808        0.063      865.649
12/12/2013  16:22:00      117.700       76.708        4.442       29.726       21.292       19.966      883.620      453.334      398.626        1.075        0.087      140.490       12.748        0.008      331.814        0.073      865.598
12/12/2013  16:23:00       87.055       47.662       17.816       40.429       28.266       28.172     1634.492      798.946      793.639        0.670        0.161       99.248       23.039        0.054      331.852        0.134      865.587
12/12/2013  16:24:00       51.429       45.526       42.873       16.827       10.692        9.940      283.134      114.323       98.801        0.353        0.025       68.685        5.747        0.007      331.823        0.086      865.587
12/12/2013  16:25:00       90.026       46.908       26.633       14.754       11.446       13.370      217.677      131.004      178.749        0.577        0.026      101.514        9.025        0.008      331.858        0.145      865.567
12/12/2013  16:26:00       57.123       28.169       30.515       29.433       22.268       22.010      866.294      495.880      484.459        0.342        0.092       63.691        7.293        0.013      331.847        0.124      865.589
12/12/2013  16:27:00       21.150       -6.741       10.298       19.128       19.768       17.162      365.875      390.771      294.533        0.082        0.053       22.198       16.109        0.527      331.877        0.175      865.632
12/12/2013  16:28:00       71.982       44.131       30.600       24.649       14.464       15.271      607.574      209.216      233.188        0.456        0.052       84.433        9.107        0.012      331.864        0.154      865.631
12/12/2013  16:29:00       86.218       42.192       39.351       30.119       23.893       26.283      907.174      570.856      690.821        0.647        0.108       95.988       19.111        0.040      331.824        0.089      865.595
12/12/2013  16:30:00       43.060       17.993       26.113       28.401       17.936       19.928      806.630      321.698      397.118        0.219        0.076       46.668       11.397        0.060      331.882        0.183      865.605
12/12/2013  16:31:00       59.444       46.209       30.346       24.935       12.458       12.565      621.757      155.198      157.882        0.376        0.047       75.292       12.390        0.027      331.907        0.224      865.641
12/12/2013  16:32:00       92.802       57.990       16.079       18.180       14.620       14.684      330.505      213.738      215.612        0.650        0.038      109.430       10.616        0.009      331.863        0.152      865.631
12/12/2013  16:33:00       76.004       57.589       40.241       19.072       12.618       21.231      363.735      159.221      450.737        0.584        0.049       95.358       13.620        0.020      331.908        0.227      865.641
12/12/2013  16:34:00       94.506       51.023       27.560       43.589       30.875       32.216     1899.986      953.249     1037.854        0.809        0.195      107.399       22.696        0.045      331.863        0.153      865.619
12/12/2013  16:35:00       53.635       37.528       48.800       38.135       40.907       32.629     1454.294     1673.419     1064.651        0.543        0.210       65.461       21.347        0.106      331.806        0.058      865.598
12/12/2013  16:36:00       55.345       35.474       47.361       26.535       28.291       22.539      704.085      800.362      507.990        0.429        0.101       65.738        7.459        0.013      331.776        0.007      865.610
12/12/2013  16:37:00      113.095       52.777       23.343       32.906       25.770       24.496     1082.775      664.096      600.060        0.923        0.117      124.804       16.272        0.017      331.745       -0.041      865.563
12/12/2013  16:38:00       78.886       39.858       20.565       25.429       18.053       21.313      646.639      325.914      454.231        0.483        0.071       88.384       11.471        0.017      331.740       -0.049      865.565
12/12/2013  16:39:00       51.110       43.653       43.373       17.218       17.965       20.720      296.465      322.728      429.319        0.372        0.052       67.215       10.824        0.026      331.781        0.017      865.593
12/12/2013  16:40:00       58.491       90.737       66.749       22.767       18.162       23.403      518.332      329.870      547.695        0.875        0.070      107.956       10.025        0.009      331.871        0.165      865.583
12/12/2013  16:41:00       23.945       66.689       57.760       19.611       23.818       17.903      384.589      567.296      320.526        0.481        0.064       70.858       13.207        0.035      331.808        0.061      865.589
12/12/2013  16:42:00       45.375       47.491       35.295       21.984       19.584       15.870      483.276      383.514      251.862        0.334        0.056       65.683       13.865        0.045      331.724       -0.076      865.607
12/12/2013  16:43:00       84.561       52.274       10.417       27.016       16.342       18.496      729.881      267.059      342.113        0.567        0.067       99.414       10.236        0.011      331.676       -0.154      865.597
12/12/2013  16:44:00       73.184       50.595        4.925       32.343       17.036       16.967     1046.040      290.235      287.868        0.478        0.081       88.971       10.579        0.014      331.643       -0.208      865.602
12/12/2013  16:45:00        6.181       42.033       -9.052       15.153       37.005       12.483      229.613     1369.388      155.837        0.182        0.088       42.485       17.598        0.172      331.571       -0.328      865.649
12/12/2013  16:46:00       48.990       56.910        6.869       33.483       20.416       19.649     1121.132      416.794      386.066        0.380        0.096       75.092       19.620        0.068      331.582       -0.311      865.654
12/12/2013  16:47:00       61.775       49.158        4.689       27.316       17.799       17.200      746.185      316.802      295.842        0.381        0.068       78.947       11.527        0.021      331.539       -0.381      865.638
12/12/2013  16:48:00       23.911       19.718       -2.315       22.395       19.933       14.691      501.531      397.340      215.831        0.104        0.056       30.993        8.669        0.078      331.457       -0.517      865.667
12/12/2013  16:49:00       39.419       64.298        0.077       33.700       25.608       21.119     1135.711      655.777      446.000        0.396        0.112       75.419       16.487        0.048      331.433       -0.555      865.707
12/12/2013  16:50:00       56.989       59.015        4.204       29.702       26.349       20.831      882.227      694.258      433.946        0.438        0.101       82.040       13.442        0.027      331.386       -0.632      865.724
12/12/2013  16:51:00       21.311       44.333        5.700       27.743       27.291       23.014      769.666      744.811      529.632        0.225        0.102       49.189       20.464        0.173      331.367       -0.664      865.736
12/12/2013  16:52:00       15.996       55.465       -1.766       19.977       28.011       16.233      399.086      784.628      263.518        0.239        0.072       57.726       14.998        0.068      331.354       -0.684      865.731
12/12/2013  16:53:00       10.019       75.165       -5.382       26.144       38.850       22.399      683.516     1509.343      501.700        0.424        0.135       75.830       18.187        0.058      331.370       -0.659      865.734
12/12/2013  16:54:00        8.600       64.575       -7.561       20.983       25.244       15.680      440.266      637.260      245.860        0.281        0.066       65.146       15.220        0.055      331.372       -0.656      865.745
12/12/2013  16:55:00       16.277       37.133       -0.519       16.750       26.726       12.683      280.566      714.285      160.860        0.140        0.058       40.543       12.524        0.095      331.401       -0.607      865.769
12/12/2013  16:56:00       -2.548       35.076       -5.688       18.308       23.054        8.884      335.167      531.487       78.920        0.111        0.047       35.169        9.840        0.078      331.295       -0.781      865.762
12/12/2013  16:57:00       12.542       28.971       -0.577       11.908       13.107        6.842      141.805      171.798       46.818        0.068        0.018       31.569        3.389        0.012      331.350       -0.692      865.723
12/12/2013  16:58:00       33.559       22.708        6.151       16.886       14.498       13.487      285.130      210.188      181.887        0.118        0.034       40.520        6.468        0.025      331.351       -0.690      865.690
12/12/2013  16:59:00       29.967       25.091        0.121       16.371       13.955       11.042      267.996      194.739      121.917        0.106        0.029       39.085        7.368        0.036      331.326       -0.730      865.695
12/12/2013  17:00:00       21.943       26.434       -6.765       13.150       10.328        8.655      172.932      106.668       74.906        0.079        0.018       34.355        7.831        0.052      331.361       -0.673      865.717
12/12/2013  17:01:00       17.664       21.516       -1.919       11.723        9.031        6.295      137.423       81.551       39.630        0.052        0.013       27.838        5.582        0.040      331.341       -0.706      865.706
12/12/2013  17:02:00        5.691       45.751       -6.384       10.951       20.307        9.662      119.926      412.377       93.349        0.140        0.031       46.103       12.371        0.072      331.387       -0.629      865.684
12/12/2013  17:03:00      -18.104       42.658       -7.220       14.525       21.111        6.316      210.983      445.678       39.886        0.145        0.035       46.341        5.455        0.014      331.346       -0.698      865.664
12/12/2013  17:04:00      -37.114       14.445       -7.976       13.627       15.106       10.398      185.707      228.201      108.127        0.109        0.026       39.826        6.184        0.024      331.220       -0.904      865.644
12/12/2013  17:05:00      -30.302       -4.091        2.206       11.504        9.879        9.417      132.334       97.595       88.680        0.063        0.016       30.577        7.441        0.059      331.079       -1.137      865.624
12/12/2013  17:06:00      -25.195      -17.581       -6.789       24.373       10.888       10.619      594.046      118.538      112.756        0.091        0.041       30.723       11.868        0.149      330.883       -1.459      865.596
12/12/2013  17:07:00      -17.521        1.478        0.445       13.052        7.264        8.834      170.346       52.769       78.043        0.031        0.015       17.583        4.607        0.069      330.921       -1.395      865.565
12/12/2013  17:08:00       -5.986       52.020       -6.546       27.000       30.813       14.217      729.019      949.432      202.111        0.233        0.094       52.363       13.612        0.068      331.186       -0.961      865.518
12/12/2013  17:09:00      -21.708       61.166      -12.329       18.729       41.678       10.243      350.785     1737.049      104.925        0.328        0.110       64.903       10.049        0.024      331.304       -0.766      865.504
12/12/2013  17:10:00      -68.093      -23.478      -10.678       25.905       15.534       10.504      671.051      241.320      110.325        0.316        0.051       72.027       11.658        0.026      330.814       -1.572      865.549
12/12/2013  17:11:00     -116.681      -14.263       -5.485       47.688       33.973       21.285     2274.100     1154.180      453.071        0.886        0.194      117.549       22.538        0.037      330.652       -1.838      865.590
12/12/2013  17:12:00      -98.698      -16.580      -11.648       18.554       27.106       14.050      344.262      734.751      197.408        0.571        0.064      100.081        4.799        0.002      330.712       -1.739      865.573
12/12/2013  17:13:00      -68.864      -15.194       -8.538       18.153       17.955       11.408      329.539      322.388      130.146        0.291        0.039       70.520        8.325        0.014      330.772       -1.641      865.551
12/12/2013  17:14:00      -73.587      -12.321       -7.825       13.234       13.928       13.086      175.135      193.976      171.246        0.308        0.027       74.611        7.170        0.009      330.727       -1.715      865.537
12/12/2013  17:15:00      -75.609       -1.783       -5.872       29.827       12.487       12.783      889.658      155.930      163.412        0.348        0.060       75.630       12.811        0.029      330.796       -1.602      865.539
12/12/2013  17:16:00      -69.253        5.345      -10.661       24.842       13.022       12.571      617.149      169.570      158.024        0.294        0.047       69.459       13.864        0.040      330.804       -1.587      865.560
12/12/2013  17:17:00      -65.530       -8.584      -13.513       13.741       13.614        9.877      188.829      185.332       97.554        0.251        0.024       66.090        7.361        0.012      330.784       -1.622      865.590
12/12/2013  17:18:00      -47.140      -16.945       -9.706       16.311       18.755        8.628      266.058      351.761       74.439        0.165        0.035       50.093        7.657        0.023      330.706       -1.750      865.607
12/12/2013  17:19:00      -61.901      -13.120       -3.529       15.591       22.183       14.164      243.079      492.094      200.631        0.248        0.047       63.276        8.472        0.018      330.724       -1.719      865.624
12/12/2013  17:20:00     -103.495      -31.879      -16.059       22.671       32.474       17.475      513.978     1054.540      305.392        0.693        0.094      108.293        6.247        0.003      330.616       -1.896      865.594
12/12/2013  17:21:00     -103.920      -23.193       -2.632       38.219       33.819       24.715     1460.707     1143.744      610.855        0.728        0.161      106.477       20.104        0.036      330.535       -2.029      865.561
12/12/2013  17:22:00      -47.505        0.288        0.993       42.081       28.268       24.779     1770.823      799.056      613.984        0.272        0.159       47.505       20.639        0.189      330.473       -2.132      865.538
12/12/2013  17:23:00      -53.216      -13.881       -2.783       40.376       23.765       20.839     1630.223      564.771      434.270        0.283        0.131       54.997       23.235        0.178      330.419       -2.220      865.511
12/12/2013  17:24:00      -71.259       -7.165       -8.289       33.038       23.149       21.769     1091.495      535.863      473.892        0.365        0.105       71.618       20.162        0.079      330.369       -2.303      865.502
12/12/2013  17:25:00     -109.151      -22.322      -13.745       20.615       20.676       13.894      424.978      427.483      193.032        0.682        0.052      111.410        9.895        0.008      330.412       -2.233      865.472
12/12/2013  17:26:00      -88.002      -26.388       -8.552       20.407       14.164       12.626      416.449      200.630      159.424        0.465        0.039       91.873        7.094        0.006      330.415       -2.227      865.457
12/12/2013  17:27:00      -87.417      -27.090      -17.517       10.965       15.634       10.569      120.222      244.419      111.695        0.458        0.024       91.519        7.196        0.006      330.408       -2.239      865.465
12/12/2013  17:28:00      -68.498      -15.666       -8.465       15.936       16.104       13.742      253.952      259.343      188.848        0.286        0.035       70.267        8.533        0.015      330.374       -2.294      865.486
12/12/2013  17:29:00      -68.551       -6.134      -11.401       30.184       19.334       18.193      911.092      373.802      330.994        0.324        0.081       68.825       18.418        0.072      330.413       -2.229      865.498
12/12/2013  17:30:00      -61.810        2.420      -11.532       30.091       19.228       16.824      905.462      369.733      283.034        0.276        0.078       61.858       11.573        0.035      330.402       -2.249      865.492
12/12/2013  17:31:00      -67.836      -22.629      -10.601       25.403       24.447       15.150      645.306      597.646      229.513        0.335        0.074       71.511        9.443        0.017      330.335       -2.358      865.482
12/12/2013  17:32:00      -54.883      -19.857      -13.625       27.404       20.407       11.903      751.006      416.429      141.684        0.245        0.065       58.365        6.996        0.014      330.312       -2.395      865.436
12/12/2013  17:33:00      -92.998      -23.399      -14.865       26.248       19.594       12.964      688.969      383.911      168.058        0.533        0.062       95.897        9.916        0.011      330.272       -2.459      865.404
12/12/2013  17:34:00      -59.816      -28.138      -10.556       26.729       21.331       17.241      714.464      455.024      297.243        0.297        0.073       66.104       11.361        0.030      330.344       -2.345      865.370
12/12/2013  17:35:00      -75.062      -27.537      -12.935        9.894       14.605        7.230       97.897      213.303       52.271        0.346        0.018       79.954        3.663        0.002      330.290       -2.432      865.376
12/12/2013  17:36:00      -89.146      -23.778      -10.832       16.722       19.515       13.761      279.609      380.834      189.357        0.474        0.042       92.262       10.789        0.014      330.383       -2.279      865.389
12/12/2013  17:37:00     -111.552       -4.582      -15.878       26.510       16.246       13.846      702.787      263.944      191.713        0.694        0.058      111.646       14.097        0.016      330.354       -2.327      865.429
12/12/2013  17:38:00     -127.153       -3.471      -15.138       44.072       22.379       19.754     1942.379      500.817      390.205        0.962        0.142      127.200       20.389        0.026      330.326       -2.373      865.490
12/12/2013  17:39:00      -83.922      -11.181       -2.818       50.898       31.904       23.725     2590.565     1017.837      562.874        0.567        0.209       84.664       23.463        0.077      330.240       -2.514      865.536
12/12/2013  17:40:00      -80.959       -4.861       -7.585       38.931       38.187       24.715     1515.595     1458.261      610.813        0.511        0.179       81.104       15.703        0.037      330.209       -2.564      865.569
12/12/2013  17:41:00     -100.428       28.971      -10.271       57.184       43.798       30.682     3270.037     1918.262      941.383        0.858        0.306      104.523       24.426        0.055      330.173       -2.624      865.597
12/12/2013  17:42:00     -226.767       65.883      -27.522       52.036       52.722       32.941     2707.789     2779.567     1085.094        3.155        0.329      236.144       21.064        0.008      330.000       -2.912      865.651
12/12/2013  17:43:00     -241.059       58.294      -27.408       59.059       48.787       31.182     3487.942     2380.172      972.320        3.455        0.342      248.007       27.798        0.013      329.937       -3.014      865.702
12/12/2013  17:44:00     -222.072       44.491      -26.573       58.575       41.509       26.243     3430.976     1722.965      688.696        2.892        0.292      226.485       22.211        0.010      329.901       -3.072      865.744
12/12/2013  17:45:00     -151.379       47.293      -11.589       71.173       52.879       29.887     5065.592     2796.157      893.236        1.702        0.438      158.595       24.860        0.025      329.892       -3.085      865.751
12/12/2013  17:46:00     -109.188      -45.817      -20.693       67.981       39.027       30.932     4621.411     1523.133      956.787        1.077        0.355      118.412       33.308        0.079      329.955       -2.979      865.727
12/12/2013  17:47:00       -4.035       -5.595        8.935       20.055       23.055       16.920      402.223      531.528      286.274        0.067        0.061        6.898       12.377        3.219      329.977       -2.944      865.714
12/12/2013  17:48:00      -15.212      -27.938       -3.986       36.622       24.474       25.709     1341.142      598.997      660.948        0.181        0.130       31.811       16.138        0.257      329.970       -2.955      865.702
12/12/2013  17:49:00      -76.701      -43.836      -11.365       36.268       24.620       13.571     1315.334      606.163      184.164        0.502        0.105       88.344       13.147        0.022      329.995       -2.915      865.697
12/12/2013  17:50:00      -71.196      -38.224      -12.777       52.486       36.140       28.031     2754.824     1306.128      785.732        0.577        0.242       80.808       31.186        0.149      329.990       -2.923      865.696
12/12/2013  17:51:00     -122.731      -36.295      -11.615       33.085       31.047       23.792     1094.622      963.911      566.074        0.957        0.131      127.985       12.976        0.010      329.879       -3.105      865.707
12/12/2013  17:52:00     -108.380      -26.244      -10.643       25.592       27.037       16.566      654.952      730.992      274.445        0.710        0.083      111.512       14.290        0.016      329.948       -2.993      865.719
12/12/2013  17:53:00      -92.217      -32.561      -11.355       27.974       21.327       19.596      782.552      454.827      384.022        0.566        0.081       97.796       13.135        0.018      329.970       -2.956      865.718
12/12/2013  17:54:00      -95.765      -48.713       -7.067       33.285       30.285       15.738     1107.917      917.210      247.680        0.693        0.114      107.442        9.991        0.009      329.966       -2.963      865.720
12/12/2013  17:55:00      -97.292      -21.431      -15.638       33.902       21.938       19.004     1149.363      481.294      361.163        0.608        0.100       99.624        6.725        0.005      329.974       -2.951      865.714
12/12/2013  17:56:00     -126.664      -25.277      -16.157       43.222       23.403       21.299     1868.139      547.701      453.659        0.991        0.143      129.162       22.062        0.029      329.971       -2.955      865.712
12/12/2013  17:57:00      -94.186       14.505      -18.296       55.742       39.903       26.181     3107.183     1592.281      685.458        0.740        0.269       95.296       24.706        0.067      329.913       -3.051      865.709
12/12/2013  17:58:00      -75.753       10.717      -11.534       68.001       44.517       25.574     4624.098     1981.756      654.032        0.662        0.363       76.507       33.777        0.195      329.947       -2.996      865.702
12/12/2013  17:59:00      -41.546       -7.610       -4.985       27.436       24.861       18.242      752.755      618.057      332.788        0.176        0.085       42.237       12.913        0.093      330.050       -2.826      865.690
12/12/2013  18:00:00      -73.862      -24.711      -13.234       27.098       28.905       13.663      734.317      835.509      186.691        0.400        0.088       77.886        9.703        0.016      330.053       -2.820      865.680
12/12/2013  18:01:00      -88.321        9.904       -8.935       33.164       24.605       14.357     1099.845      605.427      206.120        0.494        0.096       88.874       10.720        0.015      329.962       -2.968      865.666
12/12/2013  18:02:00      -75.851       -8.741      -10.299       26.827       21.904       14.027      719.698      479.785      196.754        0.367        0.070       76.354       14.011        0.034      329.969       -2.958      865.660
12/12/2013  18:03:00     -119.942      -22.499      -19.672       24.506       19.692       16.261      600.546      387.764      264.414        0.827        0.063      122.034       14.173        0.013      329.894       -3.080      865.707
12/12/2013  18:04:00     -122.544       -3.405      -13.792       36.719       29.212       21.865     1348.255      853.343      478.078        0.895        0.134      122.591       21.277        0.030      329.922       -3.036      865.723
12/12/2013  18:05:00      -66.759       -6.051      -10.732       55.407       25.590       19.446     3069.937      654.827      378.129        0.435        0.205       67.032       22.871        0.116      329.825       -3.193      865.733
12/12/2013  18:06:00      -67.979       21.864      -13.471       21.058       19.621       15.846      443.431      384.996      251.089        0.318        0.054       71.408       11.402        0.025      329.950       -2.988      865.722
12/12/2013  18:07:00     -114.160       10.242      -11.112       32.441       33.388       15.917     1052.435     1114.729      253.363        0.784        0.121      114.618       15.953        0.019      330.066       -2.800      865.728
12/12/2013  18:08:00     -103.031      -17.192       -7.835       29.832       22.862       17.077      889.921      522.668      291.637        0.634        0.085      104.456       12.270        0.014      329.832       -3.182      865.731
12/12/2013  18:09:00      -92.880       -3.791      -12.333       35.668       25.328       15.869     1272.228      641.515      251.812        0.548        0.108       92.957       14.024        0.023      329.730       -3.349      865.709
12/12/2013  18:10:00     -117.905       -8.109      -15.419       26.281       19.986       14.706      690.683      399.450      216.279        0.776        0.065      118.183        7.538        0.004      329.782       -3.264      865.682
12/12/2013  18:11:00     -132.412      -32.219      -15.807       27.380       22.641       16.659      749.680      512.601      277.511        1.018        0.077      136.276       10.009        0.005      329.777       -3.272      865.681
12/12/2013  18:12:00     -127.258      -24.615      -14.958       40.752       34.056       23.283     1660.751     1159.804      542.088        1.019        0.168      129.617       18.546        0.020      329.780       -3.268      865.679
12/12/2013  18:13:00      -95.045      -13.350      -16.442       35.692       24.409       18.395     1273.937      595.823      338.389        0.584        0.110       95.978       13.660        0.020      329.796       -3.239      865.695
12/12/2013  18:14:00      -77.313      -53.583       -7.689       28.049       33.195       25.384      786.728     1101.908      644.364        0.572        0.127       94.066       11.459        0.015      329.811       -3.217      865.693
12/12/2013  18:15:00      -89.079      -40.390      -13.790       32.819       30.603       19.249     1077.072      936.531      370.526        0.607        0.119       97.808        6.740        0.005      329.818       -3.205      865.691
12/12/2013  18:16:00      -34.616      -30.186       -3.642       34.222       25.794       22.419     1171.114      665.317      502.606        0.223        0.117       45.929       19.433        0.179      329.748       -3.319      865.678
12/12/2013  18:17:00      -14.751       -8.110       12.632       38.674       25.051       22.354     1495.714      627.548      499.723        0.153        0.131       16.833       21.071        1.567      329.750       -3.315      865.673
12/12/2013  18:18:00     -122.963      -26.670      -17.861       22.653       24.688       11.930      513.155      609.489      142.332        0.871        0.063      125.822       10.163        0.007      329.787       -3.255      865.693
12/12/2013  18:19:00      -67.862       -3.536       -1.669       30.840       23.383       14.502      951.083      546.773      210.296        0.316        0.085       67.954        8.974        0.017      329.888       -3.090      865.704
12/12/2013  18:20:00      -34.355      -23.205        1.978       25.700       12.203       11.375      660.494      148.910      129.385        0.133        0.047       41.458       13.089        0.100      330.090       -2.761      865.722
12/12/2013  18:21:00      -88.988      -15.184       -7.754       19.407       14.967       12.720      376.636      224.010      161.791        0.449        0.038       90.275        6.856        0.006      330.072       -2.789      865.736
12/12/2013  18:22:00     -107.686       -7.143       -1.588       32.306       21.257       17.039     1043.702      451.865      290.322        0.672        0.089      107.923       17.053        0.025      329.988       -2.927      865.737
12/12/2013  18:23:00      -92.143        2.364        5.462       55.742       40.049       32.316     3107.122     1603.895     1044.331        0.714        0.288       92.173       34.798        0.143      329.869       -3.122      865.706
12/12/2013  18:24:00     -169.745        6.685      -12.157       68.533       38.938       27.067     4696.801     1516.185      732.607        1.797        0.347      169.877       33.195        0.038      329.742       -3.332      865.721
12/12/2013  18:25:00     -185.451      -16.490      -13.218       47.088       31.321       22.450     2217.279      980.976      503.994        1.927        0.185      186.182       22.565        0.015      329.697       -3.404      865.787
12/12/2013  18:26:00     -146.825      -16.160       -4.204       52.070       41.673       28.841     2711.294     1736.673      831.828        1.356        0.264      147.712       28.066        0.036      329.673       -3.443      865.841
12/12/2013  18:27:00     -169.196       10.577      -19.673       43.998       35.339       24.294     1935.858     1248.810      590.201        1.645        0.189      169.526       19.201        0.013      329.734       -3.344      865.866
12/12/2013  18:28:00     -136.194      -11.763      -13.931       27.245       36.798       19.251      742.289     1354.106      370.614        1.067        0.123      136.701       14.708        0.012      329.833       -3.180      865.849
12/12/2013  18:29:00     -129.835      -51.676       -8.486       43.550       47.900       25.328     1896.560     2294.404      641.504        1.222        0.242      139.741       24.249        0.030      329.880       -3.105      865.849
12/12/2013  18:30:00     -163.170      -57.876       -7.292       38.441       41.499       25.333     1477.745     1722.161      641.762        1.693        0.192      173.130       20.519        0.014      329.830       -3.187      865.883
12/12/2013  18:31:00     -139.179      -29.869      -12.645       37.245       61.741       20.211     1387.222     3811.891      408.491        1.301        0.280      142.348       12.935        0.008      329.753       -3.312      865.872
12/12/2013  18:32:00     -176.083       33.025      -19.754       37.357       33.703       24.477     1395.518     1135.883      599.100        1.781        0.157      179.153       13.710        0.006      329.696       -3.405      865.841
12/12/2013  18:33:00     -187.390      -37.290      -15.736       38.605       49.052       31.201     1490.341     2406.129      973.531        2.081        0.244      191.064       24.615        0.017      329.654       -3.475      865.843
12/12/2013  18:34:00     -221.815      -55.696      -17.821       58.960       49.526       32.729     3476.335     2452.817     1071.194        2.981        0.350      228.701       20.771        0.008      329.510       -3.712      865.889
12/12/2013  18:35:00     -213.817        8.042      -13.933       54.490       66.393       33.397     2969.182     4407.976     1115.386        2.723        0.425      213.969       25.467        0.014      329.432       -3.841      865.926
12/12/2013  18:36:00     -142.923        0.387      -15.827       51.769       48.861       24.754     2679.987     2387.385      612.755        1.318        0.284      142.923       25.243        0.031      329.414       -3.867      865.936
12/12/2013  18:37:00     -100.224      -21.189      -15.019       39.628       41.384       26.455     1570.381     1712.595      699.870        0.735        0.199      102.439       12.005        0.014      329.488       -3.745      865.912
12/12/2013  18:38:00     -104.923      -14.189      -13.302       33.834       38.970       21.953     1144.722     1518.656      481.917        0.727        0.157      105.878       20.217        0.036      329.471       -3.772      865.895
12/12/2013  18:39:00      -64.716       12.100       -8.007       37.097       35.690       22.590     1376.180     1273.759      510.291        0.378        0.158       65.837       23.021        0.122      329.421       -3.855      865.903
12/12/2013  18:40:00      -89.345       -1.224      -17.317       27.945       23.772       16.242      780.910      565.117      263.805        0.495        0.080       89.353        8.494        0.009      329.491       -3.741      865.912
12/12/2013  18:41:00      -85.310      -26.590       -5.801       39.028       31.992       23.714     1523.182     1023.465      562.374        0.556        0.155       89.358       11.371        0.016      329.475       -3.766      865.937
12/12/2013  18:42:00     -127.369        2.072      -14.828       64.434       29.370       24.855     4151.745      862.600      617.766        1.104        0.282      127.386       25.054        0.039      329.390       -3.907      865.962
12/12/2013  18:43:00      -92.937        7.164      -20.251       53.922       26.290       19.777     2907.592      691.175      391.145        0.654        0.199       93.213       21.074        0.051      329.442       -3.817      865.966
12/12/2013  18:44:00     -138.937        1.786      -19.128       38.192       36.538       27.766     1458.651     1335.001      770.924        1.162        0.178      138.948       24.013        0.030      329.470       -3.774      865.996
12/12/2013  18:45:00     -145.673       -6.676      -11.706       51.987       40.687       30.533     2702.643     1655.412      932.284        1.335        0.265      145.826       29.673        0.041      329.421       -3.856      866.012
12/12/2013  18:46:00     -112.171      -19.269       -6.697       68.051       41.704       24.170     4630.881     1739.183      584.178        0.997        0.348      113.814       32.294        0.081      329.398       -3.893      865.994
12/12/2013  18:47:00      -81.225      -24.869       -3.244       26.734       28.625       18.357      714.710      819.368      336.977        0.455        0.094       84.947       14.493        0.029      329.713       -3.376      865.991
12/12/2013  18:48:00      -65.063      -45.072       -4.988       16.748       16.159       15.488      280.495      261.128      239.865        0.354        0.039       79.150        5.583        0.005      329.628       -3.517      866.008
12/12/2013  18:49:00      -49.181      -40.740       -7.361       22.929       27.421       18.144      525.728      751.901      329.222        0.287        0.080       63.863       16.091        0.063      329.661       -3.462      865.993
12/12/2013  18:50:00      -44.232      -11.985       -2.554       19.047       15.000       13.034      362.796      224.995      169.891        0.143        0.038       45.827        9.445        0.042      329.677       -3.436      865.972
12/12/2013  18:51:00      -62.016      -26.691      -13.120       18.676       22.307       10.605      348.776      497.619      112.468        0.284        0.048       67.516        7.559        0.013      329.749       -3.317      865.951
12/12/2013  18:52:00      -45.902      -26.723       -5.799       18.473       13.395        9.042      341.240      179.423       81.749        0.173        0.030       53.114        3.678        0.005      329.710       -3.382      865.938
12/12/2013  18:53:00      -35.119      -17.782       -4.584        9.698       15.322        7.084       94.056      234.769       50.186        0.097        0.019       39.364        5.336        0.018      329.761       -3.299      865.917
12/12/2013  18:54:00      -14.188      -14.638       -3.862       10.808        8.841        8.383      116.805       78.156       70.271        0.035        0.013       20.386        5.078        0.062      329.864       -3.130      865.869
12/12/2013  18:55:00       -7.334      -18.354        0.446       12.707       12.378       13.211      161.478      153.226      174.525        0.044        0.024       19.765        7.948        0.162      329.763       -3.295      865.838
12/12/2013  18:56:00       -1.746      -11.080        6.859        8.328       10.765        8.517       69.347      115.879       72.532        0.022        0.013       11.217        6.985        0.388      329.775       -3.275      865.837
12/12/2013  18:57:00       -9.246        1.420        3.285        9.375        5.492        7.957       87.882       30.163       63.307        0.014        0.009        9.354        8.194        0.767      329.748       -3.318      865.836
12/12/2013  18:58:00      -38.928       -7.515       -8.189       11.640        6.182        5.757      135.478       38.219       33.140        0.092        0.010       39.647        3.256        0.007      329.837       -3.174      865.827
12/12/2013  18:59:00      -55.812      -19.724       -7.040        8.427       10.999        7.756       71.010      120.975       60.158        0.190        0.013       59.195        3.965        0.004      329.755       -3.310      865.825
12/12/2013  19:00:00      -71.968       -9.931       -8.155       13.695       11.300       11.436      187.564      127.683      130.790        0.290        0.022       72.650        5.815        0.006      329.674       -3.440      865.835
12/12/2013  19:01:00      -87.073       -5.847      -11.963       18.802       14.235       12.163      353.497      202.649      147.933        0.423        0.035       87.269       10.478        0.014      329.647       -3.485      865.842
12/12/2013  19:02:00      -97.165       -6.833      -10.830       15.940       18.065       17.382      254.077      326.332      302.118        0.524        0.044       97.405       11.659        0.014      329.589       -3.579      865.820
12/12/2013  19:03:00      -83.435      -43.003      -14.432       12.378       19.277       10.770      153.222      371.597      115.993        0.483        0.032       93.865        4.113        0.002      329.565       -3.619      865.769
12/12/2013  19:04:00      -81.510      -38.726      -12.094       13.935       12.675       12.517      194.184      160.660      156.663        0.440        0.026       90.242        8.292        0.008      329.588       -3.583      865.711
12/12/2013  19:05:00      -75.386      -41.191      -10.697       12.886       14.339       10.421      166.043      205.612      108.593        0.399        0.024       85.906        2.897        0.001      329.664       -3.458      865.665
12/12/2013  19:06:00      -92.792      -37.408      -12.801       14.612       15.896       10.932      213.502      252.682      119.505        0.538        0.029      100.049        6.269        0.004      329.642       -3.494      865.667
12/12/2013  19:07:00     -127.646      -32.820      -14.693       25.684       27.502       11.691      659.665      756.343      136.689        0.957        0.078      131.798        7.168        0.003      329.616       -3.536      865.709
12/12/2013  19:08:00     -111.157        2.909       -9.095       33.625       28.819       22.593     1130.612      830.548      510.456        0.746        0.124      111.195       21.530        0.037      329.535       -3.667      865.741
12/12/2013  19:09:00      -83.090        7.026       -9.870       48.241       25.807       22.448     2327.189      666.003      503.913        0.527        0.175       83.387       23.130        0.077      329.530       -3.678      865.757
12/12/2013  19:10:00      -90.266       43.838       -0.627       34.641       26.572       23.525     1200.010      706.069      553.433        0.626        0.123      100.348       17.248        0.030      329.518       -3.697      865.777
12/12/2013  19:11:00      -60.818       10.224       -8.699       35.183       26.892       16.226     1237.817      723.166      263.287        0.305        0.111       61.672       18.519        0.090      329.533       -3.672      865.812
12/12/2013  19:12:00      -58.798       -0.418       -9.689       23.979       20.141       11.673      574.986      405.655      136.258        0.233        0.056       58.800        6.749        0.013      329.520       -3.692      865.840
12/12/2013  19:13:00      -77.598      -25.528      -14.621       18.161       21.841       16.203      329.810      477.030      262.551        0.398        0.053       81.689        9.168        0.013      329.437       -3.829      865.859
12/12/2013  19:14:00     -134.964      -16.364      -15.365       27.742       18.174       15.212      769.637      330.301      231.418        1.002        0.067      135.952        7.400        0.003      329.365       -3.947      865.883
12/12/2013  19:15:00     -125.570      -25.264      -16.317       20.251       28.058       16.230      410.093      787.225      263.422        0.907        0.073      128.086        6.669        0.003      329.354       -3.965      865.908
12/12/2013  19:16:00      -92.651        3.496      -17.361       26.714       32.453       13.794      713.625     1053.178      190.270        0.543        0.098       92.717       11.363        0.015      329.341       -3.987      865.925
12/12/2013  19:17:00      -80.809        8.318      -18.967       19.080       28.663       16.060      364.034      821.543      257.928        0.420        0.072       81.236        5.720        0.005      329.308       -4.039      865.946
12/12/2013  19:18:00      -92.448      -30.365      -17.676       17.199       14.768       11.759      295.799      218.090      138.263        0.522        0.033       97.307        7.791        0.006      329.310       -4.037      865.976
12/12/2013  19:19:00     -103.294      -31.992      -13.282       24.900       28.077       21.375      619.988      788.294      456.910        0.687        0.093      108.135        7.342        0.005      329.380       -3.922      866.012
12/12/2013  19:20:00     -214.280       45.924      -19.057       48.544       34.720       28.403     2356.554     1205.494      806.731        2.638        0.218      219.146       25.739        0.014      329.140       -4.318      866.034
12/12/2013  19:21:00     -133.653       27.258      -10.520       50.240       38.451       25.025     2524.056     1478.464      626.252        1.167        0.231      136.404       19.575        0.021      329.093       -4.391      866.033
12/12/2013  19:22:00     -108.060        8.630       -8.873       46.238       26.513       23.369     2137.947      702.958      546.133        0.761        0.169      108.404       16.366        0.023      329.163       -4.277      866.033
12/12/2013  19:23:00     -121.754      -16.275      -21.762       28.198       43.663       19.428      795.139     1906.448      377.454        0.932        0.154      122.837        8.875        0.005      329.214       -4.193      866.082
12/12/2013  19:24:00      -44.841       -1.726      -15.169       32.801       36.558       22.038     1075.888     1336.520      485.654        0.257        0.145       44.874       16.766        0.140      329.275       -4.093      866.155
12/12/2013  19:25:00      -87.127      -24.493      -13.484       21.402       21.980       16.533      458.030      483.142      273.351        0.479        0.061       90.504       11.753        0.017      329.267       -4.105      866.207
12/12/2013  19:26:00      -30.505       -6.655       -7.163       26.509       13.132       14.066      702.728      172.444      197.853        0.105        0.054       31.222       10.126        0.105      329.633       -3.508      866.216
12/12/2013  19:27:00       36.591       23.663        5.038       15.839       21.136       17.640      250.867      446.719      311.161        0.147        0.050       43.576       15.083        0.120      329.749       -3.318      866.177
12/12/2013  19:28:00       48.047       27.938        0.179       13.695       10.951       10.491      187.559      119.927      110.052        0.175        0.021       55.579        3.134        0.003      329.734       -3.344      866.125
12/12/2013  19:29:00       36.616       21.415        2.812       10.249        9.772        7.450      105.043       95.486       55.500        0.103        0.013       42.419        6.784        0.026      329.938       -3.010      866.093
12/12/2013  19:30:00       -3.079       -5.023        0.046        6.186        7.443        7.527       38.263       55.391       56.661        0.009        0.008        5.891        5.028        0.728      329.723       -3.357      866.106
12/12/2013  19:31:00       -2.937       11.787        0.211        8.599       10.959        5.809       73.935      120.104       33.745        0.019        0.011       12.148        4.423        0.133      329.890       -3.086      866.133
12/12/2013  19:32:00       -5.746       17.902        2.451       12.880       16.397        9.503      165.904      268.850       90.301        0.044        0.026       18.801        7.437        0.156      330.041       -2.841      866.154
12/12/2013  19:33:00      -26.488      -15.387       -2.211       19.365       10.907        7.236      374.996      118.958       52.364        0.074        0.027       30.633        9.896        0.104      329.827       -3.190      866.161
12/12/2013  19:34:00      -63.320      -29.640       -6.953        8.039       12.282        6.627       64.632      150.837       43.912        0.260        0.013       69.914        3.704        0.003      329.690       -3.414      866.179
12/12/2013  19:35:00      -70.809       -3.938      -10.221       19.826       10.400       11.531      393.086      108.170      132.955        0.288        0.032       70.918        8.801        0.015      329.648       -3.483      866.206
12/12/2013  19:36:00      -91.700        6.480      -13.157       15.715       12.240        7.609      246.955      149.810       57.904        0.454        0.023       91.928        4.518        0.002      329.579       -3.595      866.227
12/12/2013  19:37:00      -74.712        0.231      -14.548        6.202        6.540        6.521       38.461       42.767       42.522        0.296        0.006       74.713        3.847        0.003      329.698       -3.403      866.234
12/12/2013  19:38:00      -55.041      -25.210       -7.377       11.213        7.175        6.730      125.728       51.484       45.296        0.197        0.011       60.540        3.441        0.003      329.784       -3.260      866.223
12/12/2013  19:39:00      -46.745      -20.843       -6.508        9.016        9.508        8.789       81.282       90.406       77.246        0.146        0.012       51.182        4.651        0.008      329.735       -3.340      866.196
12/12/2013  19:40:00      -56.379      -26.287       -7.836       14.162        9.861        7.462      200.576       97.243       55.675        0.214        0.018       62.206        3.813        0.004      329.717       -3.371      866.164
12/12/2013  19:41:00      -87.170      -17.521      -10.965       14.202       14.242        9.220      201.707      202.832       85.007        0.426        0.024       88.913        5.673        0.004      329.606       -3.552      866.160
12/12/2013  19:42:00     -136.031      -16.892      -18.706       32.672       23.900       17.965     1067.476      571.189      322.748        1.055        0.098      137.076       16.193        0.014      329.457       -3.796      866.197
12/12/2013  19:43:00      -93.850        1.536       -8.281       62.551       24.874       23.256     3912.675      618.698      540.858        0.697        0.254       93.863       28.860        0.095      329.302       -4.051      866.246
12/12/2013  19:44:00     -111.283      -11.238      -12.475       67.136       44.623       25.390     4507.201     1991.240      644.667        0.990        0.357      111.849       22.663        0.041      329.296       -4.058      866.249
12/12/2013  19:45:00     -128.335      -26.641      -12.619       36.658       43.856       20.360     1343.783     1923.324      414.519        1.051        0.184      131.071       17.962        0.019      329.272       -4.098      866.241
12/12/2013  19:46:00     -124.495      -20.907      -10.738       45.731       45.630       23.617     2091.312     2082.099      557.743        1.039        0.237      126.239       18.193        0.021      329.259       -4.119      866.265
12/12/2013  19:47:00      -84.257       -1.188      -12.462       25.962       36.617       18.853      674.034     1340.821      355.432        0.481        0.119       84.265        9.673        0.013      329.297       -4.057      866.280
12/12/2013  19:48:00      -91.194      -21.399       -8.845       20.109       21.304       15.159      404.384      453.876      229.802        0.497        0.054       93.671        7.449        0.006      329.335       -3.994      866.255
12/12/2013  19:49:00      -88.661      -37.137      -11.964       41.408       25.115       18.678     1714.605      630.746      348.877        0.604        0.135       96.124       14.768        0.024      329.359       -3.957      866.226
12/12/2013  19:50:00     -119.173      -12.031      -14.515       19.227       21.235       16.325      369.668      450.922      266.509        0.782        0.054      119.779        3.726        0.001      329.349       -3.973      866.217
12/12/2013  19:51:00     -109.442       -5.140      -21.110       45.874       29.608       22.282     2104.397      876.629      496.507        0.796        0.174      109.562       18.898        0.030      329.317       -4.025      866.215
12/12/2013  19:52:00     -135.605       -1.668      -16.506       52.047       39.131       24.710     2708.885     1531.235      610.578        1.176        0.243      135.615       22.035        0.026      329.423       -3.851      866.193
12/12/2013  19:53:00     -119.917       27.313      -17.785       44.386       38.835       28.387     1970.129     1508.182      805.798        0.986        0.214      122.988       17.520        0.020      329.397       -3.893      866.174
12/12/2013  19:54:00     -112.288       40.810       -7.711       41.624       27.727       23.294     1732.589      768.790      542.628        0.869        0.152      119.474       14.676        0.015      329.538       -3.664      866.169
12/12/2013  19:55:00      -82.622        5.286       -8.341       29.544       28.360       16.697      872.838      804.303      278.805        0.444        0.098       82.791       16.011        0.037      329.500       -3.724      866.155
12/12/2013  19:56:00      -86.814      -38.938       -8.748       21.714       27.233       13.519      471.491      741.644      182.761        0.526        0.070       95.147       10.011        0.011      329.541       -3.658      866.129
12/12/2013  19:57:00      -58.143       -4.076       -4.715       25.664       29.311       16.978      658.651      859.125      288.250        0.261        0.090       58.286       10.494        0.032      329.442       -3.819      866.096
12/12/2013  19:58:00      -46.426       -4.050       -5.777       31.250       18.681       14.506      976.567      348.994      210.413        0.187        0.077       46.602       13.430        0.083      329.348       -3.977      866.077
12/12/2013  19:59:00      -49.717      -34.583      -12.550       17.688       15.878       10.590      312.851      252.097      112.155        0.225        0.034       60.562        9.605        0.025      329.476       -3.765      866.071
12/12/2013  20:00:00     -108.463      -69.313       -9.581       33.503       23.850       19.519     1122.476      568.820      380.985        0.937        0.104      128.718       20.398        0.025      329.507       -3.713      866.081
12/12/2013  20:01:00     -119.471      -28.521      -11.299       13.929       16.650        9.078      194.013      277.224       82.418        0.788        0.028      122.828        7.635        0.004      329.482       -3.754      866.107
12/12/2013  20:02:00      -86.908      -40.608       -9.846       16.358       17.199       14.046      267.574      295.809      197.295        0.503        0.038       95.927        1.722        0.000      329.475       -3.766      866.130
12/12/2013  20:03:00     -117.386      -10.270       -9.895       45.171       23.649       17.151     2040.400      559.272      294.166        0.844        0.145      117.835       15.993        0.018      329.428       -3.843      866.166
12/12/2013  20:04:00     -105.064      -66.232       -4.375       62.072       30.341       17.508     3852.911      920.567      306.546        1.026        0.254      124.198       19.090        0.024      329.391       -3.904      866.210
12/12/2013  20:05:00      -64.204      -47.873       -4.181       50.286       21.693       19.242     2528.674      470.566      370.259        0.490        0.168       80.087       22.000        0.075      329.449       -3.809      866.218
12/12/2013  20:06:00        0.623       -7.141       15.069       22.226       12.972       12.214      493.978      168.265      149.174        0.054        0.041        7.168       13.352        3.470      329.481       -3.756      866.197
12/12/2013  20:07:00      -57.587      -10.520        4.748       45.341       36.952       15.057     2055.815     1365.475      226.722        0.355        0.182       58.540       16.835        0.083      329.508       -3.713      866.184
12/12/2013  20:08:00      -52.934      -27.924        3.752       36.903       22.188       20.039     1361.854      492.300      401.571        0.293        0.113       59.848       13.215        0.049      329.536       -3.667      866.170
12/12/2013  20:09:00      -43.569      -24.839       -2.654       18.988       12.659        8.668      360.532      160.249       75.132        0.156        0.030       50.152        7.514        0.022      329.576       -3.600      866.136
12/12/2013  20:10:00      -61.735      -26.933       -1.984       28.217       18.580        7.488      796.207      345.232       56.068        0.287        0.060       67.354        6.786        0.010      329.580       -3.593      866.119
12/12/2013  20:11:00      -75.512      -36.125       -6.278       12.109       13.813        8.058      146.631      190.805       64.930        0.372        0.020       83.708        3.587        0.002      329.487       -3.746      866.108
12/12/2013  20:12:00      -43.727      -35.487        1.040       27.331       12.342       11.279      746.988      152.318      127.205        0.210        0.051       56.315        8.802        0.024      329.539       -3.663      866.084
12/12/2013  20:13:00      -28.474      -36.635        1.483       28.058       22.612       15.347      787.223      511.280      235.541        0.184        0.077       46.399       12.642        0.074      329.640       -3.497      866.075
12/12/2013  20:14:00      -49.582      -37.402        5.042       25.711       24.951       16.473      661.055      622.570      271.347        0.272        0.078       62.107       13.928        0.050      329.550       -3.642      866.084
12/12/2013  20:15:00      -33.701      -46.736       -1.718       22.145       31.939       15.848      490.408     1020.124      251.172        0.254        0.088       57.620        6.697        0.014      329.590       -3.580      866.109
12/12/2013  20:16:00      -90.083      -31.567       -2.931       26.371       36.755       17.338      695.433     1350.934      300.612        0.573        0.117       95.454       18.004        0.036      329.534       -3.670      866.138
12/12/2013  20:17:00     -122.843      -42.485       -4.578       33.781       33.500       23.353     1141.181     1122.279      545.346        0.986        0.140      129.982       15.594        0.014      329.442       -3.821      866.160
12/12/2013  20:18:00      -49.118       -1.714       -3.027       33.589       12.668       13.054     1128.235      160.470      170.413        0.194        0.073       49.148       10.926        0.049      329.493       -3.735      866.182
12/12/2013  20:19:00      -92.573      -25.743       -4.902       31.861       30.501       17.079     1015.111      930.338      291.706        0.575        0.112       96.085       15.857        0.027      329.511       -3.706      866.222
12/12/2013  20:20:00     -150.084      -75.640       -6.174       37.121       34.307       24.514     1377.976     1176.952      600.938        1.572        0.158      168.067       18.091        0.012      329.441       -3.822      866.266
12/12/2013  20:21:00     -122.453      -60.131        4.640       38.252       33.371       22.419     1463.245     1113.615      502.623        1.086        0.154      136.420       22.201        0.026      329.403       -3.884      866.285
12/12/2013  20:22:00      -85.996      -20.770        0.102       26.264       27.797       18.196      689.793      772.674      331.095        0.481        0.090       88.469       17.263        0.038      329.347       -3.977      866.277
12/12/2013  20:23:00      -68.291      -18.696        5.014       38.989       28.781       20.611     1520.156      828.342      424.797        0.391        0.139       70.804       20.730        0.086      329.313       -4.031      866.308
12/12/2013  20:24:00      -87.265      -49.444       -1.685       48.697       37.814       21.681     2371.373     1429.888      470.058        0.717        0.214      100.299       23.328        0.054      329.330       -4.004      866.331
12/12/2013  20:25:00     -106.902      -57.582       -7.725       25.107       27.914       14.582      630.353      779.186      212.631        0.821        0.081      121.424       10.531        0.008      329.326       -4.010      866.318
12/12/2013  20:26:00      -65.342       -1.350       -0.934       26.678       17.824       14.143      711.742      317.692      200.025        0.275        0.061       65.356       11.374        0.030      329.262       -4.113      866.259
12/12/2013  20:27:00      -16.234      -26.811       -4.188       19.406       18.278        6.896      376.585      334.081       47.550        0.088        0.038       31.343        5.458        0.030      329.392       -3.902      866.192
12/12/2013  20:28:00      -24.702      -68.016       -7.216       26.629       19.753       11.932      709.105      390.169      142.375        0.326        0.062       72.363       10.161        0.020      329.440       -3.823      866.154
12/12/2013  20:29:00       -1.918      -10.984       -2.328       19.845       14.305       14.590      393.837      204.623      212.879        0.047        0.041       11.151        9.526        0.730      329.459       -3.792      866.138
12/12/2013  20:30:00      -13.019        2.609        6.625       15.599       12.433       10.694      243.334      154.584      114.358        0.037        0.026       13.278        7.568        0.325      329.490       -3.740      866.117
12/12/2013  20:31:00        7.324        9.213       -2.813       25.640       11.847       13.339      657.434      140.352      177.937        0.056        0.049       11.770       13.898        1.394      329.444       -3.817      866.071
12/12/2013  20:32:00      -20.995      -11.295       -0.285       22.525       20.653       11.573      507.381      426.555      133.926        0.082        0.053       23.841        7.932        0.111      329.520       -3.693      866.040
12/12/2013  20:33:00      -22.052      -25.811        4.704       42.064       28.284       19.997     1769.376      799.971      399.864        0.207        0.148       33.948       14.325        0.178      329.533       -3.671      866.054
12/12/2013  20:34:00      -64.491      -20.076       -0.791       45.850       28.542       20.907     2102.261      814.622      437.100        0.396        0.168       67.544       12.273        0.033      329.573       -3.606      866.108
12/12/2013  20:35:00      -82.214      -57.098        2.531       60.670       28.677       23.218     3680.905      822.347      539.074        0.753        0.252      100.097       16.797        0.028      329.466       -3.781      866.184
12/12/2013  20:36:00      -86.215      -48.373       -1.272       52.387       25.292       21.984     2744.358      639.670      483.287        0.682        0.193       98.858       24.905        0.063      329.406       -3.879      866.203
12/12/2013  20:37:00      -58.813      -30.753        7.530       37.522       33.796       20.626     1407.923     1142.148      425.450        0.372        0.149       66.369       17.911        0.073      329.434       -3.834      866.158
12/12/2013  20:38:00      -46.705      -29.486        8.973       26.803       20.013       15.227      718.406      400.507      231.854        0.224        0.068       55.234       11.434        0.043      329.468       -3.778      866.127
12/12/2013  20:39:00      -60.552       -1.746        9.378       44.480       25.941       19.018     1978.492      672.957      361.672        0.338        0.151       60.577       20.402        0.113      329.332       -3.999      866.154
12/12/2013  20:40:00      -36.527        6.905       10.177       41.072       26.595       26.842     1686.940      707.319      720.508        0.230        0.156       37.174       23.391        0.396      329.245       -4.142      866.182
12/12/2013  20:41:00      -99.150       17.127       -0.665       49.945       47.558       31.240     2494.495     2261.749      975.961        0.793        0.287      100.618       28.070        0.078      329.198       -4.218      866.208
12/12/2013  20:42:00     -134.875       12.349      -13.349       54.949       52.457       27.096     3019.355     2751.776      734.209        1.251        0.325      135.439       21.694        0.026      329.106       -4.369      866.238
12/12/2013  20:43:00     -172.900      -16.127      -15.983       58.345       48.704       30.362     3404.127     2372.046      921.856        1.855        0.335      173.651       28.277        0.027      328.984       -4.570      866.244
12/12/2013  20:44:00     -148.434      -55.371      -15.133       39.655       51.780       24.656     1572.524     2681.167      607.922        1.509        0.243      158.426       17.187        0.012      328.940       -4.640      866.205
12/12/2013  20:45:00     -137.393      -10.433       -6.270       57.208       41.048       32.610     3272.760     1684.960     1063.400        1.252        0.301      137.789       31.264        0.051      328.903       -4.700      866.160
12/12/2013  20:46:00     -121.025      -26.856      -13.734       58.711       46.904       29.648     3446.954     2199.970      879.001        1.104        0.326      123.969       30.586        0.061      328.832       -4.817      866.169
12/12/2013  20:47:00     -124.841      -25.189       -7.935       83.272       40.146       24.788     6934.295     1611.680      614.456        1.272        0.458      127.357       28.473        0.050      328.828       -4.825      866.203
12/12/2013  20:48:00     -201.935      -27.800      -15.633       58.699       69.898       29.621     3445.591     4885.731      877.377        2.550        0.460      203.840       31.387        0.024      328.717       -5.006      866.251
12/12/2013  20:49:00     -131.887       40.463       -9.106       44.174       42.893       26.114     1951.343     1839.798      681.966        1.179        0.224      137.955       21.302        0.024      328.710       -5.017      866.204
12/12/2013  20:50:00     -121.495       15.416       -9.075       41.029       39.121       23.217     1683.343     1530.437      539.025        0.942        0.188      122.469       18.890        0.024      328.793       -4.881      866.129
12/12/2013  20:51:00     -128.755      -47.529       -9.797       35.594       31.729       25.232     1266.899     1006.758      636.635        1.092        0.146      137.248       21.946        0.026      328.935       -4.649      866.115
12/12/2013  20:52:00     -106.635      -39.964      -12.396       49.086       28.650       15.694     2409.477      820.818      246.299        0.830        0.174      113.878        9.180        0.006      328.770       -4.918      866.105
12/12/2013  20:53:00      -12.515       -8.753       -4.900       13.490       24.091       16.592      181.983      580.357      275.301        0.065        0.052       15.272       11.157        0.534      328.897       -4.710      866.046
12/12/2013  20:54:00       -6.508        0.260       13.897        9.609        9.833       10.417       92.338       96.686      108.514        0.027        0.015        6.514        7.216        1.227      329.050       -4.460      866.019
12/12/2013  20:55:00      -12.168        8.984        8.522       14.132       13.216        9.912      199.715      174.675       98.249        0.039        0.024       15.126        7.511        0.247      329.083       -4.407      866.033
12/12/2013  20:56:00      -35.616        4.261       -3.751       29.867       14.597        9.576      892.054      213.075       91.702        0.125        0.060       35.870       11.617        0.105      328.972       -4.587      866.051
12/12/2013  20:57:00      -80.731      -25.027       -2.870       35.633       31.017       17.152     1269.692      962.031      294.197        0.484        0.126       84.521       10.365        0.015      328.937       -4.646      866.060
12/12/2013  20:58:00     -111.766      -27.183       -6.008       28.122       23.036       15.259      790.865      530.649      232.824        0.741        0.078      115.024       13.537        0.014      328.898       -4.711      866.058
12/12/2013  20:59:00      -97.783        2.496      -14.366       17.268       17.972       14.300      298.186      322.991      204.481        0.530        0.041       97.815        8.838        0.008      328.972       -4.587      866.025
12/12/2013  21:00:00     -113.476        2.748       -0.808       22.905       21.770       16.147      524.646      473.941      260.732        0.707        0.063      113.510       13.392        0.014      328.987       -4.563      866.018
12/12/2013  21:01:00     -130.308       -1.478      -16.336       22.011       20.257       19.325      484.495      410.358      373.475        0.926        0.063      130.317       10.772        0.007      328.911       -4.687      866.024
12/12/2013  21:02:00     -132.455        1.052      -21.700       26.930       23.109       15.334      725.199      534.029      235.139        0.976        0.075      132.459        8.759        0.004      328.933       -4.653      866.031
12/12/2013  21:03:00     -112.888      -46.200       -6.121       29.327       31.040       19.681      860.053      963.510      387.351        0.856        0.111      121.976        9.993        0.007      328.981       -4.573      866.088
12/12/2013  21:04:00      -65.305      -24.521       -4.897       38.818       25.380       16.251     1506.824      644.135      264.099        0.365        0.121       69.757       17.783        0.065      328.981       -4.574      866.139
12/12/2013  21:05:00      -65.775       10.873        0.286       41.249       24.804       16.699     1701.472      615.224      278.864        0.352        0.130       66.668       18.339        0.076      328.921       -4.672      866.134
12/12/2013  21:06:00      -81.189       13.095       -7.760       27.023       19.691       15.560      730.227      387.728      242.122        0.409        0.068       82.238       13.579        0.027      329.077       -4.417      866.128
12/12/2013  21:07:00      -74.562      -15.565       -3.169       33.085       21.906       18.690     1094.617      479.864      349.329        0.387        0.096       76.169       17.042        0.050      328.924       -4.666      866.126
12/12/2013  21:08:00      -79.116      -46.923       -0.051       44.614       34.735       19.381     1990.372     1206.526      375.636        0.602        0.179       91.985       18.700        0.041      328.864       -4.764      866.138
12/12/2013  21:09:00     -106.830        8.215       -6.878       27.927       27.486       19.427      779.930      755.488      377.400        0.672        0.096      107.146       11.321        0.011      328.812       -4.850      866.131
12/12/2013  21:10:00     -131.633      -15.629      -17.735       19.300       18.982       16.656      372.484      360.325      277.417        0.945        0.051      132.558        8.997        0.005      328.794       -4.878      866.092
12/12/2013  21:11:00      -87.223      -26.540      -11.712       32.570       29.027       15.797     1060.823      842.578      249.533        0.530        0.108       91.171       15.421        0.029      328.838       -4.808      866.045
12/12/2013  21:12:00     -142.504      -32.863       -8.137       31.371       34.809       18.467      984.145     1211.632      341.032        1.199        0.127      146.244       15.346        0.011      328.844       -4.797      866.038
12/12/2013  21:13:00     -124.100       -9.203       -4.275       51.499       40.423       28.665     2652.153     1634.001      821.680        1.030        0.255      124.441       28.307        0.052      328.797       -4.873      866.055
12/12/2013  21:14:00     -135.621       27.566      -15.977       40.327       29.916       22.231     1626.303      894.941      494.239        1.121        0.151      138.394       13.786        0.010      328.800       -4.869      866.062
12/12/2013  21:15:00     -108.144       47.535      -16.999       33.314       31.402       26.520     1109.832      986.107      703.328        0.852        0.140      118.130       19.091        0.026      328.959       -4.609      866.061
12/12/2013  21:16:00     -112.459      -13.761      -24.747       29.772       36.661       18.404      886.365     1344.018      338.708        0.801        0.128      113.298       12.385        0.012      329.014       -4.522      866.068
12/12/2013  21:17:00     -128.547      -42.492      -14.144       37.743       28.179       19.047     1424.560      794.028      362.780        1.056        0.129      135.388       14.337        0.011      328.840       -4.803      866.078
12/12/2013  21:18:00      -68.833      -48.393       -2.195       38.979       27.896       19.510     1519.347      778.194      380.646        0.488        0.134       84.142       12.397        0.022      328.845       -4.795      866.044
12/12/2013  21:19:00      -57.631      -52.789       -3.403       50.121       25.184       19.314     2512.159      634.220      373.045        0.482        0.176       78.154       22.832        0.085      328.865       -4.763      865.987
12/12/2013  21:20:00     -112.269       -8.794       -5.994       52.872       23.551       20.871     2795.490      554.659      435.614        0.825        0.189      112.613       25.331        0.051      328.871       -4.753      865.954
12/12/2013  21:21:00     -154.064       -3.642      -13.293       26.650       28.815       12.796      710.196      830.320      163.733        1.281        0.085      154.107        9.170        0.004      328.933       -4.652      865.970
12/12/2013  21:22:00     -133.341       -3.266        1.011       48.901       41.581       25.362     2391.319     1729.013      643.218        1.128        0.238      133.381       25.189        0.036      328.861       -4.768      866.005
12/12/2013  21:23:00     -142.017       13.345       -7.581       42.592       23.326       28.045     1814.058      544.112      786.513        1.177        0.157      142.643       28.646        0.040      329.002       -4.539      865.987
12/12/2013  21:24:00      -41.011      -12.232       -4.767       32.463       23.691       17.233     1053.819      561.246      296.973        0.188        0.096       42.796       15.618        0.133      329.042       -4.473      865.916
12/12/2013  21:25:00      -10.997      -42.550       -1.670       20.140       21.163        9.690      405.612      447.870       93.898        0.144        0.047       43.948        7.225        0.027      329.223       -4.177      865.902
12/12/2013  21:26:00      -33.446      -14.383        6.982       18.614       23.576       15.432      346.470      555.821      238.147        0.126        0.057       36.407        9.968        0.075      329.340       -3.986      865.940
12/12/2013  21:27:00      -26.705       34.948        0.170       11.762       12.838       12.096      138.349      164.816      146.319        0.119        0.022       43.983        4.457        0.010      329.402       -3.887      865.975
12/12/2013  21:28:00      -39.315       50.702      -10.929       25.397       20.219       15.006      645.005      408.794      225.188        0.276        0.064       64.159       14.401        0.050      329.242       -4.148      866.014
12/12/2013  21:29:00      -98.083       80.142      -27.087       27.182       32.807       16.570      738.868     1076.305      274.579        0.943        0.104      126.661       16.131        0.016      329.155       -4.290      866.053
12/12/2013  21:30:00     -129.533       94.861      -30.490       28.395       36.858       18.900      806.259     1358.500      357.223        1.461        0.126      160.554       15.584        0.009      329.075       -4.419      866.043
12/12/2013  21:31:00      -89.482       67.103      -19.367       32.789       26.324       16.839     1075.107      692.950      283.554        0.747        0.103      111.847       20.165        0.033      329.010       -4.526      865.958
12/12/2013  21:32:00      -50.994       51.473      -14.918       13.449       24.013       12.405      180.868      576.607      153.886        0.319        0.046       72.456       13.457        0.034      329.093       -4.391      865.861
12/12/2013  21:33:00      -19.543       15.326        1.593       20.986       15.806       12.583      440.421      249.829      158.322        0.073        0.042       24.836        7.905        0.101      329.180       -4.249      865.859
12/12/2013  21:34:00      -72.625        9.294       -8.366       23.247       21.961       12.031      540.417      482.304      144.739        0.330        0.058       73.217        9.253        0.016      329.110       -4.363      865.940
12/12/2013  21:35:00     -141.078       10.103      -16.703       38.419       28.579       19.133     1475.988      816.769      366.059        1.147        0.133      141.440       15.339        0.012      328.960       -4.608      866.014
12/12/2013  21:36:00     -184.463       44.437      -22.659       33.581       27.962       19.203     1127.662      781.874      368.759        1.940        0.114      189.740       11.931        0.004      328.928       -4.660      866.064
12/12/2013  21:37:00     -142.381       -5.519      -24.245       32.993       29.695       18.594     1088.516      881.777      345.742        1.160        0.116      142.488       17.005        0.014      329.005       -4.535      866.085
12/12/2013  21:38:00      -65.500      -43.558       -7.121       31.931       34.264       19.897     1019.609     1174.033      395.889        0.441        0.129       78.661       18.868        0.058      329.065       -4.438      866.047
12/12/2013  21:39:00      -53.410       -2.291       -4.092       23.572       17.253       13.724      555.642      297.681      188.337        0.196        0.052       53.459        6.920        0.017      329.123       -4.342      865.973
12/12/2013  21:40:00      -75.475      -22.035      -10.958       15.455       21.412       10.825      238.845      458.469      117.182        0.356        0.041       78.626        6.861        0.008      329.177       -4.253      865.934
12/12/2013  21:41:00      -53.491      -13.213       -4.572       34.165       18.193       15.612     1167.277      331.000      243.738        0.240        0.087       55.099        7.157        0.017      329.250       -4.133      865.955
12/12/2013  21:42:00     -102.681      -47.399       -4.891       21.568       18.083       12.414      465.195      327.006      154.117        0.688        0.047      113.093        8.086        0.005      329.250       -4.134      865.988
12/12/2013  21:43:00     -102.468      -18.080       -7.760       20.361       23.511       11.290      414.553      552.753      127.453        0.599        0.055      104.051        6.721        0.004      329.306       -4.042      866.001
12/12/2013  21:44:00     -116.170      -31.112       -5.649       25.592       20.071       17.807      654.931      402.843      317.092        0.793        0.069      120.264       14.906        0.015      329.256       -4.122      865.997
12/12/2013  21:45:00      -93.468      -47.746       -5.817       29.560       27.275       16.166      873.819      743.917      261.329        0.646        0.094      104.957       17.200        0.027      329.271       -4.099      865.980
12/12/2013  21:46:00      -83.175      -29.392       -4.085       34.869       27.695       15.628     1215.881      767.038      244.243        0.501        0.111       88.215       18.312        0.043      329.211       -4.197      865.985
12/12/2013  21:47:00      -60.808       -3.872       -6.453       24.806       16.539       15.935      615.362      273.548      253.935        0.245        0.057       60.931       16.467        0.073      329.243       -4.145      865.987
12/12/2013  21:48:00      -38.691      -11.275       -1.330       19.985       14.675       10.063      399.393      215.346      101.263        0.117        0.036       40.301        9.224        0.052      329.255       -4.126      865.971
12/12/2013  21:49:00      -99.473      -43.431       -7.615       28.285       35.464       15.198      800.058     1257.660      230.987        0.706        0.114      108.541       14.242        0.017      329.336       -3.994      865.962
12/12/2013  21:50:00     -132.734      -82.592       -0.429       34.196       27.687       21.437     1169.383      766.571      459.547        1.342        0.120      156.332       19.808        0.016      329.321       -4.018      865.989
12/12/2013  21:51:00      -94.234      -57.461        4.542       64.768       43.443       24.333     4194.833     1887.258      592.099        0.944        0.334      110.372       20.393        0.034      329.279       -4.084      866.018
12/12/2013  21:52:00      -22.951      -25.761        7.025       37.158       28.054       17.615     1380.751      787.020      310.299        0.186        0.124       34.502       18.802        0.297      329.341       -3.986      865.986
12/12/2013  21:53:00      -18.908      -41.136        2.469       12.051       18.337        8.980      145.226      336.234       80.644        0.131        0.028       45.274        2.496        0.003      329.471       -3.772      865.918
12/12/2013  21:54:00      -43.441      -12.221       -2.976       28.918       14.173        8.848      836.268      200.867       78.294        0.158        0.056       45.127        7.189        0.025      329.494       -3.733      865.900
12/12/2013  21:55:00      -75.394       19.856        1.677       34.904       22.633       17.626     1218.300      512.256      310.659        0.406        0.102       77.965       19.050        0.060      329.357       -3.959      865.937
12/12/2013  21:56:00      -80.538      -15.252       -3.557       32.517       30.524       22.160     1057.369      931.696      491.070        0.461        0.124       81.969       22.034        0.072      329.270       -4.102      865.970
12/12/2013  21:57:00      -16.400      -11.388        5.455       35.150       22.169       14.617     1235.492      491.451      213.663        0.118        0.097       19.966       20.033        1.007      329.349       -3.972      865.982
12/12/2013  21:58:00      -18.839      -25.259       -3.361       19.572       13.707        9.282      383.063      187.876       86.149        0.083        0.033       31.511        4.996        0.025      329.432       -3.835      865.958
12/12/2013  21:59:00      -69.051      -24.079       -4.674       21.150       11.647       11.341      447.325      135.654      128.611        0.304        0.036       73.129       13.048        0.032      329.355       -3.964      865.974
12/12/2013  22:00:00      -58.078      -33.696       -5.747       35.544       19.168       10.414     1263.396      367.404      108.448        0.314        0.087       67.145        8.399        0.016      329.324       -4.016      865.987
12/12/2013  22:01:00      -30.888      -35.227       -1.499       17.893       20.791        5.819      320.163      432.282       33.865        0.149        0.039       46.851        3.890        0.007      329.399       -3.890      865.980
12/12/2013  22:02:00      -35.277      -25.456       -3.625       15.571       10.087       10.328      242.464      101.744      106.670        0.118        0.023       43.503        5.765        0.018      329.454       -3.803      865.986
12/12/2013  22:03:00      -55.566      -35.465       -3.056       30.683       21.263       14.722      941.472      452.127      216.724        0.298        0.081       65.920        6.465        0.010      329.379       -3.924      866.004
12/12/2013  22:04:00      -30.363      -25.580        3.460       35.881       17.446       12.369     1287.450      304.362      152.990        0.167        0.087       39.702       12.523        0.099      329.397       -3.894      866.018
12/12/2013  22:05:00       11.435       -9.341        1.893       19.218       37.392       16.482      369.335     1398.139      271.641        0.113        0.102       14.766       22.198        2.260      329.493       -3.737      866.007
12/12/2013  22:06:00        8.016       28.850        5.892       23.294       13.233       17.666      542.589      175.112      312.105        0.098        0.051       29.943       12.409        0.172      329.395       -3.896      865.984
12/12/2013  22:07:00      -38.635      -17.065        1.305       20.097       19.280       13.576      403.902      371.717      184.312        0.137        0.048       42.236        6.886        0.027      329.374       -3.933      866.007
12/12/2013  22:08:00      -17.100      -24.312        3.353       38.847       14.507       12.510     1509.100      210.442      156.498        0.139        0.094       29.724        7.486        0.063      329.375       -3.930      866.015
12/12/2013  22:09:00        9.013       -4.909       11.274       13.120       22.991        8.377      172.130      528.568       70.169        0.050        0.039       10.263        5.734        0.312      329.341       -3.986      865.970
12/12/2013  22:10:00       14.042       20.357       -7.700       12.759       24.767       10.581      162.781      613.427      111.966        0.078        0.044       24.730        8.345        0.114      329.251       -4.131      865.975
12/12/2013  22:11:00       -0.577      -17.368        6.227       18.337       22.207       10.145      336.239      493.160      102.918        0.064        0.047       17.378        8.191        0.222      329.327       -4.008      866.036
12/12/2013  22:12:00        5.288        2.941       17.474       13.308       11.937        8.364      177.095      142.500       69.950        0.037        0.019        6.051        3.991        0.435      329.246       -4.140      866.042
12/12/2013  22:13:00       28.683       24.064       12.020       15.605       13.238       19.287      243.527      175.249      371.982        0.117        0.040       37.441       14.154        0.143      329.182       -4.247      866.000
12/12/2013  22:14:00       -7.240       24.979      -11.336       19.743       17.550        6.827      389.803      307.995       46.614        0.077        0.037       26.007        4.834        0.035      329.147       -4.303      865.987
12/12/2013  22:15:00      -23.184      -25.815        1.646       31.939       23.162       22.855     1020.131      536.468      522.358        0.164        0.104       34.698       18.435        0.282      329.313       -4.031      866.010
12/12/2013  22:16:00      -84.163      -79.730      -11.589       34.477       29.259       19.149     1188.642      856.096      366.688        0.799        0.121      115.932       21.186        0.033      329.348       -3.974      866.021
12/12/2013  22:17:00      -83.749      -56.227        3.072       25.045       17.166       18.354      627.252      294.669      336.861        0.572        0.063      100.873       17.623        0.031      329.394       -3.899      865.995
12/12/2013  22:18:00      -45.679      -85.315       -3.683       34.100       47.033       26.352     1162.814     2212.149      694.448        0.672        0.203       96.774       18.683        0.037      329.338       -3.991      866.000
12/12/2013  22:19:00      -91.077      -24.900        8.506       29.781       28.683       22.065      886.930      822.690      486.864        0.559        0.110       94.419       15.988        0.029      329.295       -4.060      865.991
12/12/2013  22:20:00      -99.470      -42.990       -5.068       24.202       27.514       15.316      585.726      757.020      234.593        0.667        0.079      108.363        6.920        0.004      329.190       -4.232      865.999
12/12/2013  22:21:00      -97.364      -69.600        0.651       55.050       27.118       22.649     3030.464      735.372      512.976        0.930        0.214      119.682       22.168        0.034      329.210       -4.200      866.055
12/12/2013  22:22:00      -28.628      -19.446        3.242       43.522       29.808       24.739     1894.132      888.504      612.032        0.230        0.170       34.608       21.732        0.394      329.245       -4.141      866.100
12/12/2013  22:23:00      -29.624      -28.437        3.083       30.359       24.487       18.906      921.648      599.599      357.441        0.179        0.094       41.064       17.509        0.182      329.330       -4.003      866.068
12/12/2013  22:24:00      -18.467       18.593        5.092       29.393       36.099       15.466      863.943     1303.128      239.202        0.156        0.120       26.205       22.429        0.733      329.211       -4.197      866.025
12/12/2013  22:25:00      -52.217       33.525      -13.415       14.649       24.631        9.936      214.580      606.707       98.719        0.248        0.046       62.053        4.265        0.005      329.064       -4.436      866.019
12/12/2013  22:26:00      -10.899      -11.352        1.529       18.998       16.013        8.926      360.931      256.424       79.672        0.047        0.035       15.738       10.964        0.485      329.172       -4.262      866.052
12/12/2013  22:27:00       11.232      -19.125        5.827       11.598       24.604       11.327      134.508      605.371      128.300        0.070        0.043       22.179       10.282        0.215      329.244       -4.144      866.074
12/12/2013  22:28:00        2.635       10.260       15.736       21.745       16.385       10.888      472.826      268.478      118.559        0.061        0.043       10.593        7.901        0.556      329.196       -4.223      866.095
12/12/2013  22:29:00      -62.041      -27.937       -0.456       28.618       17.223       11.605      818.974      296.634      134.685        0.294        0.063       68.040        9.095        0.018      329.218       -4.186      866.106
12/12/2013  22:30:00      -43.540      -26.742        7.694       29.419       24.627       16.111      865.455      606.498      259.577        0.220        0.087       51.097       15.705        0.094      329.139       -4.316      866.080
12/12/2013  22:31:00      -45.781      -21.573        1.441       24.545       20.134       14.441      602.455      405.390      208.539        0.189        0.061       50.610       13.061        0.067      329.129       -4.333      866.053
12/12/2013  22:32:00      -14.194       26.965        4.389       21.081       13.189       12.229      444.419      173.937      149.558        0.086        0.038       30.473        9.455        0.096      329.087       -4.401      866.139
12/12/2013  22:33:00       31.653       25.258       15.679       13.045       15.535       11.748      170.164      241.327      138.007        0.122        0.027       40.495        8.538        0.044      329.087       -4.399      866.250
12/12/2013  22:34:00       70.330       53.934        6.600       14.936       13.219       16.467      223.077      174.734      271.177        0.428        0.033       88.629        9.117        0.011      329.020       -4.508      866.284
12/12/2013  22:35:00       74.420       38.449       -1.450       29.884       28.980       27.452      893.039      839.845      753.593        0.475        0.124       83.765       23.266        0.077      328.947       -4.629      866.238
12/12/2013  22:36:00       28.320       18.061      -15.172       44.733       26.424       17.934     2001.052      698.236      321.645        0.219        0.151       33.589       14.130        0.177      328.939       -4.643      866.223
12/12/2013  22:37:00       18.839       39.283        0.570       21.035       18.418       19.800      442.475      339.213      392.040        0.154        0.059       43.566        4.938        0.013      328.903       -4.700      866.232
12/12/2013  22:38:00       18.651       83.048      -13.923        8.812       13.453        9.783       77.648      180.973       95.705        0.390        0.018       85.117        5.675        0.004      328.961       -4.607      866.237
12/12/2013  22:39:00        1.520       43.248       -7.798       10.490       17.896        9.962      110.044      320.263       99.245        0.123        0.026       43.275       11.844        0.075      329.031       -4.491      866.259
12/12/2013  22:40:00        8.046        6.897        7.874       11.753        9.137       12.342      138.135       83.493      152.331        0.027        0.019       10.597        9.036        0.727      329.114       -4.356      866.294
12/12/2013  22:41:00       52.681       52.267        5.324       26.584       16.846       11.579      706.704      283.791      134.074        0.333        0.056       74.210        8.544        0.013      329.067       -4.433      866.259
12/12/2013  22:42:00       81.572       59.118        3.108       21.288       15.533       19.472      453.192      241.275      379.142        0.562        0.054      100.742        7.555        0.006      329.058       -4.448      866.181
12/12/2013  22:43:00       55.536       52.379       26.188       41.627       15.883       26.583     1732.776      252.273      706.674        0.460        0.135       76.340       26.878        0.124      329.136       -4.320      866.137
12/12/2013  22:44:00       -1.047        1.032       16.157       17.234       30.747       19.509      296.997      945.358      380.609        0.094        0.081        1.470       23.213      249.517      329.133       -4.326      866.132
12/12/2013  22:45:00        1.116        4.976       -6.494       11.189       22.285        7.666      125.191      496.636       58.761        0.037        0.034        5.100       11.148        4.778      329.150       -4.300      866.168
12/12/2013  22:46:00       49.412       49.959        5.341       18.536       10.933        8.745      343.570      119.540       76.470        0.275        0.027       70.267        7.764        0.012      329.180       -4.248      866.169
12/12/2013  22:47:00       30.997       -8.154       13.428       22.303       34.080       14.880      497.432     1161.475      221.400        0.154        0.094       32.052        8.120        0.064      329.229       -4.169      866.179
12/12/2013  22:48:00       -1.090       11.272       29.331       14.471       14.644       10.954      209.407      214.433      119.980        0.077        0.027       11.325        7.634        0.454      329.264       -4.113      866.221
12/12/2013  22:49:00       18.803       -4.017       23.094       16.387       30.868       21.771      268.544      952.847      473.978        0.130        0.085       19.227       23.824        1.535      329.260       -4.117      866.236
12/12/2013  22:50:00      -17.644      -25.974       -2.974       32.570       11.804        9.226     1060.780      139.338       85.113        0.114        0.064       31.400        3.624        0.013      329.316       -4.027      866.241
12/12/2013  22:51:00      -23.033      -14.277        9.018       32.794       24.628       15.367     1075.446      606.532      236.159        0.137        0.096       27.099       17.946        0.439      329.288       -4.071      866.231
12/12/2013  22:52:00       16.235        7.382       19.967       17.226        9.195        9.972      296.724       84.548       99.437        0.060        0.024       17.835        6.883        0.149      329.289       -4.069      866.194
12/12/2013  22:53:00        5.433      -44.436       -4.798       12.724       11.531       13.658      161.894      132.957      186.535        0.125        0.024       44.767        5.736        0.016      329.439       -3.827      866.200
12/12/2013  22:54:00      -10.309       -6.772       -7.133       11.772       23.428       10.364      138.582      548.882      107.417        0.050        0.040       12.334       11.292        0.838      329.360       -3.957      866.209
12/12/2013  22:55:00      -48.844       25.599       -6.164       19.587       18.115        9.460      383.661      328.139       89.485        0.194        0.040       55.146        8.919        0.026      329.339       -3.989      866.223
12/12/2013  22:56:00       -7.246       17.872       10.087       19.603       21.183       12.536      384.295      448.723      157.158        0.073        0.050       19.285       14.932        0.600      329.261       -4.116      866.215
12/12/2013  22:57:00       37.795       41.948        8.483       18.718       22.993       13.960      350.366      528.662      194.881        0.217        0.054       56.463       13.114        0.054      329.193       -4.226      866.158
12/12/2013  22:58:00       51.494      109.310      -15.414       11.267       25.015       12.273      126.939      625.764      150.637        0.787        0.045      120.832       15.576        0.017      329.234       -4.158      866.094
12/12/2013  22:59:00       51.303      101.413      -22.500       39.748       51.858       24.585     1579.933     2689.250      604.399        0.915        0.244      113.651       23.559        0.043      329.167       -4.269      866.053
12/12/2013  23:00:00        7.761       26.682        7.344       31.224       46.554       24.419      974.936     2167.318      596.287        0.228        0.187       27.788       26.539        0.912      329.132       -4.327      866.092
12/12/2013  23:01:00        7.501       12.509       -0.945       26.271       15.826       15.649      690.192      250.449      244.898        0.070        0.059       14.586       14.417        0.977      329.147       -4.303      866.183
12/12/2013  23:02:00       74.803       49.967       31.067       23.203       13.674       14.656      538.361      186.973      214.807        0.500        0.047       89.956        9.805        0.012      329.193       -4.227      866.200
12/12/2013  23:03:00       85.636       49.922        9.880       23.948       21.530       20.372      573.519      463.532      415.021        0.569        0.073       99.125       10.827        0.012      329.121       -4.345      866.148
12/12/2013  23:04:00       22.049       26.379        0.035       19.231       15.027       15.082      369.826      225.821      227.471        0.100        0.041       34.380        8.897        0.067      329.069       -4.430      866.148
12/12/2013  23:05:00       27.468       25.921        2.377        8.382       11.222       10.064       70.266      125.935      101.281        0.086        0.015       37.767        6.280        0.028      329.086       -4.402      866.140
12/12/2013  23:06:00        2.961       15.928       -2.352       13.316       10.582        7.553      177.316      111.973       57.051        0.031        0.017       16.201        6.222        0.148      329.079       -4.413      866.143
12/12/2013  23:07:00      -15.560       16.434       -2.707        4.958        4.669        2.734       24.583       21.798        7.475        0.029        0.003       22.632        1.455        0.004      329.097       -4.385      866.133
12/12/2013  23:08:00      -29.138       14.644       -4.534        9.283        8.973        7.297       86.176       80.514       53.247        0.065        0.011       32.611        2.974        0.008      329.116       -4.353      866.093
12/12/2013  23:09:00      -23.637       -5.852       -9.929       16.633       13.361        6.307      276.653      178.523       39.780        0.059        0.025       24.350        6.637        0.074      329.216       -4.190      866.085
12/12/2013  23:10:00       -8.436        6.474        4.413       12.176       10.638        9.616      148.249      113.174       92.468        0.024        0.018       10.634        7.436        0.489      329.275       -4.094      866.112
12/12/2013  23:11:00      -14.970       19.195        0.711       19.309       17.058       11.227      372.833      290.965      126.043        0.069        0.039       24.343        8.589        0.125      329.248       -4.138      866.135
12/12/2013  23:12:00      -36.685       -6.414       -1.787       19.997       12.540        8.334      399.877      157.264       69.457        0.101        0.031       37.241        7.769        0.044      329.240       -4.148      866.130
12/12/2013  23:13:00      -54.221      -13.457       -2.196       13.034        7.975        7.393      169.896       63.604       54.653        0.171        0.014       55.866        2.245        0.002      329.216       -4.190      866.107
12/12/2013  23:14:00       -6.055        8.569        5.700       16.805       18.532       10.833      282.395      343.448      117.345        0.044        0.037       10.493        7.065        0.453      329.218       -4.185      866.057
12/12/2013  23:15:00       30.453       45.775       -4.037       12.860       20.457       14.975      165.385      418.474      224.251        0.192        0.040       54.979       15.614        0.081      329.156       -4.288      866.007
12/12/2013  23:16:00        6.453       73.566      -16.136       14.988       14.465        7.960      224.630      209.240       63.363        0.311        0.025       73.849        7.603        0.011      329.185       -4.239      866.004
12/12/2013  23:17:00      -12.272       22.823        2.970       22.967       46.220       21.609      527.498     2136.273      466.946        0.190        0.157       25.913       28.570        1.216      329.230       -4.168      866.054
12/12/2013  23:18:00      -23.165       86.201       -4.885       29.586       31.334       19.252      875.356      981.823      370.645        0.511        0.111       89.259       19.016        0.045      329.239       -4.152      866.097
12/12/2013  23:19:00       -8.367      114.675      -16.931       14.202       19.034        8.746      201.701      362.276       76.493        0.707        0.032      114.979        4.950        0.002      329.181       -4.246      866.162
12/12/2013  23:20:00      -23.389       45.882       -6.396       19.044       38.170       12.935      362.667     1456.977      167.302        0.234        0.099       51.499       10.230        0.039      329.206       -4.207      866.213
12/12/2013  23:21:00      -41.923       46.471       -5.888       22.239       31.584       17.168      494.576      997.553      294.736        0.287        0.089       62.587       18.181        0.084      329.295       -4.060      866.175
12/12/2013  23:22:00      -57.854       36.083      -10.202       19.097       29.730       13.712      364.688      883.869      188.009        0.309        0.072       68.184       11.865        0.030      329.274       -4.094      866.158
12/12/2013  23:23:00      -36.687       15.327       -7.388       13.766       16.716       11.033      189.494      279.422      121.731        0.111        0.030       39.760       10.622        0.071      329.219       -4.183      866.150
12/12/2013  23:24:00      -34.838      -15.373        0.366       14.164       15.585       14.827      200.626      242.893      219.843        0.106        0.033       38.079        9.882        0.067      329.224       -4.176      866.171
12/12/2013  23:25:00      -12.526      -17.954        5.247       18.062       22.720       11.494      326.234      516.194      132.103        0.074        0.049       21.892       13.881        0.402      329.284       -4.078      866.157
12/12/2013  23:26:00      -40.823       -7.532       -2.330       23.795       10.602        8.166      566.198      112.407       66.680        0.124        0.037       41.512        9.739        0.055      329.254       -4.127      866.118
12/12/2013  23:27:00      -79.079       -4.741       -4.978       22.074       23.271       15.461      487.241      541.549      239.032        0.378        0.063       79.221       12.860        0.026      329.157       -4.287      866.106
12/12/2013  23:28:00      -57.003        4.797       -2.094       40.135       28.679       21.346     1610.829      822.513      455.660        0.308        0.144       57.205       21.988        0.148      329.184       -4.243      866.115
12/12/2013  23:29:00      -57.596       31.715       -5.124       33.477       24.879       24.436     1120.739      618.967      597.135        0.334        0.117       65.750       15.522        0.056      329.084       -4.407      866.095
12/12/2013  23:30:00      -86.078       43.467      -18.639       26.258       28.137       20.500      689.473      791.683      420.265        0.577        0.095       96.430        9.821        0.010      329.151       -4.296      866.065
12/12/2013  23:31:00      -70.612       23.517      -15.104       34.114       29.764       19.480     1163.738      885.870      379.485        0.410        0.121       74.426       15.968        0.046      329.169       -4.267      866.062
12/12/2013  23:32:00     -108.879       -0.795      -14.902       29.968       46.793       15.025      898.094     2189.575      225.746        0.769        0.166      108.882       14.525        0.018      329.226       -4.173      866.070
12/12/2013  23:33:00     -147.773      -94.346       -6.064       79.343       43.964       32.655     6295.319     1932.857     1066.340        2.003        0.465      175.323       36.935        0.044      329.105       -4.372      866.099
12/12/2013  23:34:00      -96.322      -14.762       -7.790       54.890       46.448       22.601     3012.915     2157.391      510.788        0.762        0.284       97.447       18.103        0.035      329.041       -4.476      866.092
12/12/2013  23:35:00      -31.538      -15.237       -5.110       27.428       21.508       10.919      752.285      462.614      119.215        0.129        0.067       35.026       11.330        0.105      329.039       -4.477      866.035
12/12/2013  23:36:00     -122.919      -35.286      -13.747       31.804       26.088       12.048     1011.469      680.603      145.146        0.919        0.092      127.884       11.216        0.008      329.116       -4.353      866.066
12/12/2013  23:37:00     -151.898      -67.154      -11.252       26.564       35.591       19.158      705.658     1266.725      367.018        1.502        0.117      166.080        3.578        0.000      329.117       -4.352      866.097
12/12/2013  23:38:00     -131.554      -20.374      -15.149       28.451       26.626       16.183      809.453      708.944      261.878        0.987        0.089      133.122       12.172        0.008      329.104       -4.372      866.074
12/12/2013  23:39:00      -87.810      -14.765      -14.712       29.387       24.418       19.249      863.614      596.226      370.508        0.499        0.092       89.043       15.831        0.032      329.089       -4.396      866.048
12/12/2013  23:40:00     -112.812      -14.045       -6.774       36.264       25.452       20.880     1315.107      647.781      435.994        0.768        0.120      113.683       18.135        0.025      329.170       -4.264      866.059
12/12/2013  23:41:00      -88.973      -38.888        0.458       33.195       31.024       16.945     1101.939      962.491      287.145        0.589        0.118       97.100       16.628        0.029      329.219       -4.185      866.066
12/12/2013  23:42:00      -96.094        9.899       -7.095       47.023       40.616       19.024     2211.130     1649.633      361.922        0.680        0.211       96.602       15.891        0.027      329.207       -4.204      866.065
12/12/2013  23:43:00      -76.694       46.221        5.136       40.576       28.153       27.076     1646.398      792.568      733.088        0.561        0.159       89.545       18.707        0.044      329.190       -4.232      866.041
12/12/2013  23:44:00     -113.938      -47.232      -13.853       38.659       38.386       23.061     1494.508     1473.502      531.811        0.945        0.175      123.340        8.269        0.004      329.261       -4.116      866.034
12/12/2013  23:45:00      -77.114      -60.167       10.980       53.506       48.909       24.076     2862.923     2392.117      579.634        0.776        0.292       97.809       26.225        0.072      329.262       -4.114      866.059
12/12/2013  23:46:00      -15.574      -37.499        1.872       23.150       24.354       13.192      535.900      593.096      174.042        0.148        0.065       40.604       13.234        0.106      329.304       -4.046      866.060
12/12/2013  23:47:00        7.344      -12.827       10.516       11.166       11.545       11.072      124.676      133.292      122.584        0.035        0.019       14.781       11.172        0.571      329.410       -3.872      866.045
12/12/2013  23:48:00      -58.810      -46.829       -0.333       24.165       19.369       13.186      583.928      375.171      173.882        0.339        0.057       75.177        6.208        0.007      329.410       -3.873      866.027
12/12/2013  23:49:00      -55.904      -27.878       11.451       63.998       29.860       25.150     4095.788      891.613      632.502        0.483        0.281       62.469       25.573        0.168      329.458       -3.794      866.015
12/12/2013  23:50:00      -28.364      -13.092        2.047       32.289       24.938       17.878     1042.595      621.919      319.608        0.148        0.099       31.239       18.333        0.344      329.460       -3.791      866.005
12/12/2013  23:51:00      -30.036       -8.898       -1.772       23.127       14.012       13.765      534.840      196.328      189.481        0.095        0.046       31.326       15.623        0.249      329.460       -3.791      865.986
12/12/2013  23:52:00      -26.683      -11.602        3.831       27.198       13.129       13.979      739.723      172.373      195.420        0.098        0.055       29.096       12.588        0.187      329.495       -3.734      865.941
12/12/2013  23:53:00       -8.621        5.119        4.503       12.529       10.090       13.401      156.982      101.806      179.597        0.028        0.022       10.027        6.481        0.418      329.436       -3.830      865.897
12/12/2013  23:54:00       15.097       31.422       25.900       19.034       19.221       13.527      362.275      369.438      182.984        0.140        0.046       34.861        4.727        0.018      329.534       -3.672      865.893
12/12/2013  23:55:00      -11.561       18.580       17.858       12.317       16.204       13.919      151.720      262.574      193.731        0.070        0.030       21.883       11.151        0.260      329.535       -3.668      865.925
12/12/2013  23:56:00      -43.278       17.612        1.127       11.363       12.939        8.358      129.119      167.425       69.855        0.128        0.018       46.725        4.304        0.008      329.527       -3.680      865.976
12/12/2013  23:57:00      -49.296        5.076       -1.933       17.268       15.917        6.679      298.169      253.355       44.605        0.153        0.030       49.557        4.541        0.008      329.465       -3.782      865.988
12/12/2013  23:58:00     -115.568      -30.927      -11.437       26.039       21.982       14.583      678.051      483.218      212.654        0.791        0.069      119.635       13.881        0.013      329.337       -3.990      865.995
12/12/2013  23:59:00     -124.305      -22.688       -8.905       32.119       37.710       20.487     1031.652     1422.071      419.731        0.946        0.144      126.358       13.953        0.012      329.279       -4.088      866.014
